ftp/pub/palmer/observations_modified/2017/June/AR170627_BASE.txt

Download

Sample DateTime	Unit Id	WS Avg 2min	WD Avg 2min	WGS 10min	WGD 10min	Air Temp	Rel Humidity	Dew Point	Pyranometer	Quantum	Air Pressure	Snow Level	Rainfall	PW Current	Visibility	CBase 1	CBase 2	CBase 3	Vert Vis
2017/06/27 00:00:00	BASE	11.66	265	17.08	257	-1.0	97	-1.4	0	0	963.9	NA	0.0000	BR	7000	1870	3740	0	0
2017/06/27 00:01:00	BASE	11.25	268	17.08	257	-1.0	97	-1.5	0	0	963.9	NA	0.0000	BR	7000	1870	3810	0	0
2017/06/27 00:02:00	BASE	11.43	267	17.08	257	-1.0	96	-1.5	0	0	963.9	NA	0.0000	BR	7000	1510	2130	0	0
2017/06/27 00:03:00	BASE	11.37	266	17.08	257	-1.0	96	-1.5	0	0	964.1	NA	0.0000	BR	7000	1610	0	0	0
2017/06/27 00:04:00	BASE	11.26	268	14.56	256	-1.0	96	-1.6	0	0	964.0	NA	0.0000	BR	7000	1740	2460	0	0
2017/06/27 00:05:00	BASE	11.41	266	14.56	256	-1.0	96	-1.6	0	0	964.1	NA	0.0000	BR	7000	2170	0	0	0
2017/06/27 00:06:00	BASE	11.39	264	14.35	260	-1.0	96	-1.6	0	0	964.1	NA	0.0000	BR	7000	2400	0	0	0
2017/06/27 00:07:00	BASE	12.34	265	14.82	263	-1.0	96	-1.6	0	0	964.0	NA	0.0000	BR	7000	1940	0	0	0
2017/06/27 00:08:00	BASE	13.76	260	16.62	265	-1.0	96	-1.6	0	0	963.9	NA	0.0000	BR	8000	2100	3580	0	0
2017/06/27 00:09:00	BASE	13.12	261	16.62	265	-1.0	96	-1.7	0	0	964.2	NA	0.0000	BR	8000	1840	0	0	0
2017/06/27 00:10:00	BASE	12.57	264	16.62	265	-1.0	95	-1.7	0	0	964.0	NA	0.0000	BR	8000	2070	3510	0	0
2017/06/27 00:11:00	BASE	12.95	262	16.62	265	-1.0	95	-1.7	0	0	964.2	NA	0.0000	BR	9000	3610	0	0	0
2017/06/27 00:12:00	BASE	12.61	263	16.62	265	-1.1	95	-1.8	0	0	964.2	NA	0.0000	BR	8000	2200	3670	0	0
2017/06/27 00:13:00	BASE	12.76	262	17.29	250	-1.1	94	-1.8	0	0	964.1	NA	0.0000	BR	8000	3810	0	0	0
2017/06/27 00:14:00	BASE	12.67	261	17.29	250	-1.1	94	-1.9	0	0	964.2	NA	0.0000	BR	8000	3940	0	0	0
2017/06/27 00:15:00	BASE	12.44	259	17.29	250	-1.1	94	-2.0	0	0	964.2	NA	0.0000	BR	8000	4070	4530	0	0
2017/06/27 00:16:00	BASE	12.92	259	17.29	250	-1.1	94	-2.0	0	0	964.2	NA	0.0000	BR	8000	4660	0	0	0
2017/06/27 00:17:00	BASE	13.23	260	17.29	250	-1.1	93	-2.0	0	0	964.1	NA	0.0000	BR	8000	4950	0	0	0
2017/06/27 00:18:00	BASE	13.11	260	17.29	250	-1.1	93	-2.1	0	0	964.3	NA	0.0000	BR	8000	5090	0	0	0
2017/06/27 00:19:00	BASE	12.77	259	17.29	250	-1.1	93	-2.2	0	0	964.2	NA	0.0000	BR	8000	5250	9610	0	0
2017/06/27 00:20:00	BASE	11.48	258	17.29	250	-1.2	92	-2.2	0	0	964.5	NA	0.0000	BR	8000	4040	9510	0	0
2017/06/27 00:21:00	BASE	11.38	258	17.29	250	-1.2	92	-2.3	0	0	964.4	NA	0.0000	BR	8000	4230	7610	0	0
2017/06/27 00:22:00	BASE	11.91	259	17.29	250	-1.2	92	-2.3	0	0	964.4	NA	0.0000	BR	8000	3970	0	0	0
2017/06/27 00:23:00	BASE	11.74	261	14.82	255	-1.2	92	-2.3	0	0	964.5	NA	0.0000	BR	8000	4130	0	0	0
2017/06/27 00:24:00	BASE	11.82	261	14.82	255	-1.2	92	-2.3	0	0	964.5	NA	0.0000	BR	8000	4170	0	0	0
2017/06/27 00:25:00	BASE	10.87	261	14.82	255	-1.1	92	-2.3	0	0	964.5	NA	0.0000	BR	8000	4230	0	0	0
2017/06/27 00:26:00	BASE	11.07	258	14.82	255	-1.1	91	-2.4	0	0	964.4	NA	0.0000	BR	8000	4230	0	0	0
2017/06/27 00:27:00	BASE	12.00	257	14.82	255	-1.1	91	-2.4	0	0	964.4	NA	0.0000	BR	8000	2330	4400	0	0
2017/06/27 00:28:00	BASE	11.55	263	14.82	255	-1.1	91	-2.4	0	0	964.5	NA	0.0000	BR	8000	4400	0	0	0
2017/06/27 00:29:00	BASE	11.95	264	15.54	267	-1.1	91	-2.4	0	0	964.3	NA	0.0000	BR	7000	4430	7910	0	0
2017/06/27 00:30:00	BASE	12.50	264	15.54	267	-1.1	91	-2.4	0	0	964.4	NA	0.0000	BR	7000	4330	0	0	0
2017/06/27 00:31:00	BASE	12.10	265	15.54	267	-1.1	91	-2.4	0	0	964.4	NA	0.0000	BR	7000	4360	0	0	0
2017/06/27 00:32:00	BASE	11.79	266	15.54	267	-1.1	91	-2.4	0	0	964.4	NA	0.0000	BR	7000	4460	10600	0	0
2017/06/27 00:33:00	BASE	11.77	265	15.54	267	-1.1	91	-2.4	0	0	964.5	NA	0.0000	BR	7000	4560	8040	0	0
2017/06/27 00:34:00	BASE	12.24	265	15.54	267	-1.1	91	-2.4	0	0	964.4	NA	0.0000	BR	7000	4360	8070	0	0
2017/06/27 00:35:00	BASE	12.81	266	15.54	267	-1.1	91	-2.4	0	0	964.4	NA	0.0000	BR	7000	4460	10500	0	0
2017/06/27 00:36:00	BASE	13.04	267	15.54	267	-1.1	91	-2.4	0	0	964.4	NA	0.0000	BR	7000	4460	0	0	0
2017/06/27 00:37:00	BASE	12.86	267	15.54	267	-1.0	91	-2.4	0	0	964.4	NA	0.0000	BR	7000	4430	0	0	0
2017/06/27 00:38:00	BASE	13.11	263	15.54	267	-1.0	91	-2.4	0	0	964.5	NA	0.0000	BR	7000	4360	0	0	0
2017/06/27 00:39:00	BASE	13.33	262	14.97	262	-1.0	91	-2.3	0	0	964.6	NA	0.0000	BR	7000	1710	4360	0	0
2017/06/27 00:40:00	BASE	12.71	260	14.97	262	-1.0	91	-2.3	0	0	964.6	NA	0.0000	BR	7000	1670	4230	0	0
2017/06/27 00:41:00	BASE	11.59	261	14.97	262	-1.0	91	-2.3	0	0	964.8	NA	0.0000	BR	7000	4100	0	0	0
2017/06/27 00:42:00	BASE	12.35	265	15.54	269	-1.0	91	-2.2	0	0	964.6	NA	0.0000	BR	7000	2360	3020	0	0
2017/06/27 00:43:00	BASE	13.41	264	15.69	263	-1.0	91	-2.2	0	0	964.6	NA	0.0000	BR	7000	2760	4170	0	0
2017/06/27 00:44:00	BASE	12.42	260	15.69	263	-1.0	92	-2.2	0	0	964.7	NA	0.0000	BR	9000	2760	4040	0	0
2017/06/27 00:45:00	BASE	12.45	257	15.69	263	-1.1	92	-2.2	0	0	964.8	NA	0.0000	BR	9999	1480	4720	0	0
2017/06/27 00:46:00	BASE	11.90	254	15.69	263	-1.1	92	-2.2	0	0	964.9	NA	0.0000	BR	9999	2030	4860	0	0
2017/06/27 00:47:00	BASE	11.35	253	15.69	263	-1.2	92	-2.3	0	0	964.9	NA	0.0000	BR	9999	3580	5250	0	0
2017/06/27 00:48:00	BASE	12.24	254	15.69	263	-1.2	92	-2.3	0	0	964.9	NA	0.0000	BR	9999	12040	0	0	0
2017/06/27 00:49:00	BASE	12.30	254	15.69	263	-1.3	93	-2.3	0	0	964.8	NA	0.0000	BR	9999	1970	12170	0	0
2017/06/27 00:50:00	BASE	12.02	256	15.69	263	-1.3	93	-2.3	0	0	964.9	NA	0.0000	BR	9999	1610	0	0	0
2017/06/27 00:51:00	BASE	11.22	257	15.69	263	-1.3	93	-2.3	0	0	965.0	NA	0.0000	BR	9999	1610	2720	0	0
2017/06/27 00:52:00	BASE	10.07	258	15.69	263	-1.3	93	-2.3	0	0	964.9	NA	0.0000	BR	9999	1210	2890	0	0
2017/06/27 00:53:00	BASE	9.90	257	15.23	243	-1.3	93	-2.3	0	0	964.9	NA	0.0000	BR	9999	1540	0	0	0
2017/06/27 00:54:00	BASE	10.39	258	15.23	243	-1.3	93	-2.3	0	0	964.9	NA	0.0000		9999	1350	0	0	0
2017/06/27 00:55:00	BASE	10.84	263	15.23	243	-1.3	93	-2.2	0	0	965.0	NA	0.0000		9999	1250	0	0	0
2017/06/27 00:56:00	BASE	11.01	265	15.23	243	-1.2	93	-2.2	0	0	964.9	NA	0.0000		9999	1210	1710	0	0
2017/06/27 00:57:00	BASE	11.67	260	15.23	243	-1.2	93	-2.2	0	0	964.8	NA	0.0000		9999	1440	7280	0	0
2017/06/27 00:58:00	BASE	13.06	257	15.28	254	-1.2	93	-2.2	0	0	964.9	NA	0.0000		9999	1350	0	0	0
2017/06/27 00:59:00	BASE	13.47	260	15.28	254	-1.2	93	-2.2	0	0	965.0	NA	0.0000		9999	1280	0	0	0
2017/06/27 01:00:00	BASE	12.65	260	15.28	254	-1.3	93	-2.3	0	0	965.0	NA	0.0000		9999	1250	3710	0	0
2017/06/27 01:01:00	BASE	11.62	260	15.28	254	-1.3	93	-2.3	0	0	965.1	NA	0.0000		9999	1180	3740	0	0
2017/06/27 01:02:00	BASE	11.17	262	15.28	254	-1.3	93	-2.3	0	0	965.1	NA	0.0000		9999	3540	8690	0	0
2017/06/27 01:03:00	BASE	12.00	261	15.28	254	-1.3	93	-2.3	0	0	964.9	NA	0.0000		9999	3610	0	0	0
2017/06/27 01:04:00	BASE	12.46	262	15.28	254	-1.3	93	-2.3	0	0	965.0	NA	0.0000		9999	3710	0	0	0
2017/06/27 01:05:00	BASE	10.85	263	15.28	254	-1.3	93	-2.3	0	0	965.1	NA	0.0000		9999	3710	0	0	0
2017/06/27 01:06:00	BASE	10.53	261	15.28	254	-1.3	93	-2.3	0	0	965.0	NA	0.0000		9999	1410	4070	0	0
2017/06/27 01:07:00	BASE	11.87	262	15.28	254	-1.4	93	-2.3	0	0	965.0	NA	0.0000		9999	10400	0	0	0
2017/06/27 01:08:00	BASE	12.24	264	14.92	261	-1.4	93	-2.3	0	0	965.1	NA	0.0000		9999	3480	4990	0	0
2017/06/27 01:09:00	BASE	11.96	263	14.92	261	-1.3	93	-2.3	0	0	965.1	NA	0.0000		9999	3940	0	0	0
2017/06/27 01:10:00	BASE	11.83	260	14.92	261	-1.3	93	-2.4	0	0	965.1	NA	0.0000		9999	3640	5250	0	0
2017/06/27 01:11:00	BASE	11.91	259	14.71	263	-1.3	93	-2.4	0	0	965.1	NA	0.0000		9999	2760	3410	0	0
2017/06/27 01:12:00	BASE	11.88	258	14.71	263	-1.3	92	-2.4	0	0	965.2	NA	0.0000		9999	3310	0	0	0
2017/06/27 01:13:00	BASE	11.16	256	14.35	259	-1.3	92	-2.5	0	0	965.3	NA	0.0000		9999	3280	0	0	0
2017/06/27 01:14:00	BASE	10.61	256	14.35	259	-1.3	91	-2.5	0	0	965.3	NA	0.0000		9999	2070	3480	0	0
2017/06/27 01:15:00	BASE	11.45	258	14.71	257	-1.3	91	-2.6	0	0	965.2	NA	0.0000		9999	2200	7710	0	0
2017/06/27 01:16:00	BASE	11.80	259	14.71	257	-1.3	91	-2.6	0	0	965.1	NA	0.0000		9999	2660	0	0	0
2017/06/27 01:17:00	BASE	11.23	256	14.71	257	-1.3	91	-2.6	0	0	965.3	NA	0.0000		9999	2720	0	0	0
2017/06/27 01:18:00	BASE	11.80	254	15.28	252	-1.3	91	-2.6	0	0	965.3	NA	0.0000		9999	950	1870	0	0
2017/06/27 01:19:00	BASE	12.44	252	15.28	252	-1.3	90	-2.6	0	0	965.4	NA	0.0000		9999	460	0	0	0
2017/06/27 01:20:00	BASE	12.84	249	15.95	243	-1.3	90	-2.6	0	0	965.5	NA	0.0000		3300	0	0	0	1510
2017/06/27 01:21:00	BASE	14.90	242	18.06	233	-1.3	91	-2.6	0	0	965.6	NA	0.0000	-SN BR	1100	0	0	0	750
2017/06/27 01:22:00	BASE	16.30	237	18.06	233	-1.5	91	-2.7	0	0	965.7	NA	0.0000	UP BR	0800	0	0	0	660
2017/06/27 01:23:00	BASE	15.77	240	18.06	233	-1.6	92	-2.8	0	0	965.7	NA	0.0000	UP BR	1100	0	0	0	1540
2017/06/27 01:24:00	BASE	14.16	241	18.06	233	-1.8	92	-2.9	0	0	965.8	NA	0.0000	UP BR	1500	0	0	0	1540
2017/06/27 01:25:00	BASE	12.33	241	18.06	233	-2.0	93	-3.0	0	0	965.8	NA	0.0000	-SN BR	2300	0	0	0	1080
2017/06/27 01:26:00	BASE	10.51	246	18.06	233	-2.1	93	-3.1	0	0	965.9	NA	0.0000	-SN BR	2100	0	0	0	890
2017/06/27 01:27:00	BASE	10.01	248	18.06	233	-2.1	93	-3.1	0	0	965.9	NA	0.0000	-SN BR	2300	0	0	0	1310
2017/06/27 01:28:00	BASE	11.11	246	18.06	233	-2.1	94	-3.0	0	0	965.9	NA	0.0000	-SN BR	4300	4070	4760	0	0
2017/06/27 01:29:00	BASE	10.55	242	18.06	233	-2.1	94	-3.0	0	0	966.0	NA	0.0000	-SN BR	9999	3540	6690	0	0
2017/06/27 01:30:00	BASE	10.02	243	18.06	233	-2.2	94	-2.9	0	0	965.9	NA	0.0000	-SN BR	9999	3810	8300	0	0
2017/06/27 01:31:00	BASE	9.91	252	17.95	237	-2.2	95	-2.9	0	0	965.9	NA	0.0000	-SN BR	9999	7250	8300	0	0
2017/06/27 01:32:00	BASE	9.31	255	17.13	239	-2.2	95	-2.9	0	0	966.0	NA	0.0000	-SN BR	9999	7580	8630	0	0
2017/06/27 01:33:00	BASE	9.27	252	15.74	238	-2.2	95	-2.9	0	0	966.1	NA	0.0000	-SN BR	9999	7810	0	0	0
2017/06/27 01:34:00	BASE	8.87	253	14.20	232	-2.2	95	-2.9	0	0	966.1	NA	0.0000	-SN BR	9999	7450	0	0	0
2017/06/27 01:35:00	BASE	9.72	255	13.94	236	-2.2	95	-2.9	0	0	966.1	NA	0.0000	-SN BR	9999	7380	0	0	0
2017/06/27 01:36:00	BASE	10.38	254	13.94	236	-2.2	95	-2.9	0	0	966.0	NA	0.0000	-SN BR	9999	7640	0	0	0
2017/06/27 01:37:00	BASE	9.50	253	13.94	236	-2.2	95	-2.9	0	0	966.2	NA	0.0000	-SN	9999	8040	9580	0	0
2017/06/27 01:38:00	BASE	9.61	255	12.71	268	-2.2	95	-2.9	0	0	966.1	NA	0.0000	-SN	9999	7480	9710	0	0
2017/06/27 01:39:00	BASE	10.11	255	12.71	268	-2.2	95	-2.9	0	0	966.3	NA	0.0000		9999	7420	0	0	0
2017/06/27 01:40:00	BASE	9.99	253	12.71	268	-2.1	95	-2.8	0	0	966.3	NA	0.0000		9999	8040	0	0	0
2017/06/27 01:41:00	BASE	9.61	253	12.71	268	-2.1	95	-2.8	0	0	966.2	NA	0.0000		9999	7150	0	0	0
2017/06/27 01:42:00	BASE	9.78	254	12.71	268	-2.1	95	-2.7	0	0	966.3	NA	0.0000		9999	8200	0	0	0
2017/06/27 01:43:00	BASE	10.74	255	13.48	252	-2.0	96	-2.7	0	0	966.2	NA	0.0000		9999	8200	0	0	0
2017/06/27 01:44:00	BASE	10.95	254	13.48	253	-2.0	96	-2.6	0	0	966.3	NA	0.0000		9999	7380	8300	0	0
2017/06/27 01:45:00	BASE	10.80	252	13.48	253	-2.0	96	-2.6	0	0	966.3	NA	0.0000		9999	7910	8530	0	0
2017/06/27 01:46:00	BASE	11.37	252	13.94	252	-2.0	96	-2.5	0	0	966.3	NA	0.0000		9999	8100	8730	0	0
2017/06/27 01:47:00	BASE	10.79	253	13.94	252	-1.9	96	-2.5	0	0	966.4	NA	0.0000		9999	8240	8860	0	0
2017/06/27 01:48:00	BASE	10.78	254	13.94	252	-1.9	96	-2.5	0	0	966.4	NA	0.0000		9999	8140	0	0	0
2017/06/27 01:49:00	BASE	11.28	252	13.94	252	-1.9	96	-2.5	0	0	966.4	NA	0.0000		9999	8630	0	0	0
2017/06/27 01:50:00	BASE	11.14	252	13.94	252	-1.9	96	-2.5	0	0	966.4	NA	0.0000		9999	8760	0	0	0
2017/06/27 01:51:00	BASE	11.00	256	13.94	252	-1.9	96	-2.5	0	0	966.5	NA	0.0000		9999	4130	8830	0	0
2017/06/27 01:52:00	BASE	10.13	256	13.94	252	-1.9	95	-2.5	0	0	966.6	NA	0.0000		9999	4070	0	0	0
2017/06/27 01:53:00	BASE	9.77	255	13.94	252	-1.8	95	-2.5	0	0	966.5	NA	0.0000		9999	3900	0	0	0
2017/06/27 01:54:00	BASE	10.01	259	13.94	252	-1.8	95	-2.5	0	0	966.5	NA	0.0000		9999	3940	0	0	0
2017/06/27 01:55:00	BASE	10.70	259	13.94	252	-1.8	95	-2.4	0	0	966.4	NA	0.0000		9999	4040	0	0	0
2017/06/27 01:56:00	BASE	10.91	258	13.68	259	-1.7	95	-2.5	0	0	966.6	NA	0.0000		9999	3900	0	0	0
2017/06/27 01:57:00	BASE	11.28	257	14.15	259	-1.7	95	-2.5	0	0	966.5	NA	0.0000		9999	3840	0	0	0
2017/06/27 01:58:00	BASE	11.43	256	14.15	259	-1.7	94	-2.5	0	0	966.5	NA	0.0000		9999	1570	3710	0	0
2017/06/27 01:59:00	BASE	10.47	257	14.15	259	-1.7	94	-2.6	0	0	966.6	NA	0.0000		9999	2950	3580	0	0
2017/06/27 02:00:00	BASE	11.30	256	14.15	246	-1.7	93	-2.6	0	0	966.6	NA	0.0000		9999	3050	3840	0	0
2017/06/27 02:01:00	BASE	11.08	251	14.15	246	-1.7	93	-2.6	0	0	966.8	NA	0.0000		9999	3580	0	0	0
2017/06/27 02:02:00	BASE	9.93	254	14.15	246	-1.7	93	-2.6	0	0	966.7	NA	0.0000		9999	2850	3480	0	0
2017/06/27 02:03:00	BASE	10.30	259	14.15	246	-1.6	93	-2.6	0	0	966.8	NA	0.0000		9999	2400	0	0	0
2017/06/27 02:04:00	BASE	11.17	258	14.15	255	-1.6	93	-2.6	0	0	966.7	NA	0.0000		9999	2230	3940	0	0
2017/06/27 02:05:00	BASE	11.52	258	14.15	255	-1.6	93	-2.6	0	0	966.8	NA	0.0000		9999	2170	4100	0	0
2017/06/27 02:06:00	BASE	10.78	261	14.15	255	-1.6	93	-2.6	0	0	966.8	NA	0.0000		9999	2230	4200	0	0
2017/06/27 02:07:00	BASE	10.87	262	14.15	255	-1.6	92	-2.7	0	0	966.8	NA	0.0000		9999	2330	4460	0	0
2017/06/27 02:08:00	BASE	10.67	260	14.15	255	-1.6	92	-2.7	0	0	967.0	NA	0.0000		9999	2100	0	0	0
2017/06/27 02:09:00	BASE	10.23	260	14.15	255	-1.6	92	-2.7	0	0	966.9	NA	0.0000		9999	1740	0	0	0
2017/06/27 02:10:00	BASE	9.89	260	14.15	255	-1.6	92	-2.7	0	0	967.0	NA	0.0000		9999	1640	4400	0	0
2017/06/27 02:11:00	BASE	9.07	258	14.15	255	-1.6	92	-2.7	0	0	967.0	NA	0.0000		9999	4490	0	0	0
2017/06/27 02:12:00	BASE	9.02	258	14.15	255	-1.6	92	-2.7	0	0	967.1	NA	0.0000		9999	4590	0	0	0
2017/06/27 02:13:00	BASE	9.58	259	14.15	255	-1.6	92	-2.7	0	0	967.1	NA	0.0000		9999	4660	0	0	0
2017/06/27 02:14:00	BASE	10.16	259	13.12	250	-1.5	92	-2.6	0	0	967.1	NA	0.0000		9999	4530	0	0	0
2017/06/27 02:15:00	BASE	10.42	260	12.66	265	-1.5	92	-2.6	0	0	967.0	NA	0.0000		9999	4460	0	0	0
2017/06/27 02:16:00	BASE	10.73	259	13.48	252	-1.5	92	-2.6	0	0	967.0	NA	0.0000		9999	4070	0	0	0
2017/06/27 02:17:00	BASE	10.63	257	13.48	252	-1.5	92	-2.7	0	0	967.1	NA	0.0000		9999	4040	0	0	0
2017/06/27 02:18:00	BASE	10.01	258	13.48	252	-1.4	91	-2.7	0	0	967.3	NA	0.0000		9999	4270	0	0	0
2017/06/27 02:19:00	BASE	10.20	257	13.48	252	-1.4	91	-2.7	0	0	967.2	NA	0.0000		9999	1970	0	0	0
2017/06/27 02:20:00	BASE	10.22	259	13.48	252	-1.4	91	-2.7	0	0	967.2	NA	0.0000		9999	4230	0	0	0
2017/06/27 02:21:00	BASE	9.82	262	13.48	252	-1.4	91	-2.6	0	0	967.2	NA	0.0000		9999	4270	0	0	0
2017/06/27 02:22:00	BASE	10.44	262	13.48	252	-1.4	91	-2.6	0	0	967.1	NA	0.0000		9999	4200	0	0	0
2017/06/27 02:23:00	BASE	11.60	257	14.92	251	-1.4	91	-2.6	0	0	967.1	NA	0.0000		9999	4530	0	0	0
2017/06/27 02:24:00	BASE	11.51	257	14.92	251	-1.4	91	-2.6	0	0	967.3	NA	0.0000		9999	4490	0	0	0
2017/06/27 02:25:00	BASE	11.35	261	14.92	251	-1.4	91	-2.6	0	0	967.2	NA	0.0000		9999	4460	0	0	0
2017/06/27 02:26:00	BASE	11.16	259	14.92	251	-1.4	91	-2.6	0	0	967.2	NA	0.0000		9999	4490	0	0	0
2017/06/27 02:27:00	BASE	11.83	258	14.92	251	-1.4	91	-2.7	0	0	967.1	NA	0.0000		9999	4530	0	0	0
2017/06/27 02:28:00	BASE	13.08	257	14.92	251	-1.4	90	-2.7	0	0	967.2	NA	0.0000		9999	4590	0	0	0
2017/06/27 02:29:00	BASE	12.06	257	14.92	251	-1.4	90	-2.8	0	0	967.3	NA	0.0000		9999	4560	0	0	0
2017/06/27 02:30:00	BASE	11.17	258	14.92	251	-1.4	90	-2.8	0	0	967.3	NA	0.0000		9999	4690	0	0	0
2017/06/27 02:31:00	BASE	12.02	258	14.92	260	-1.4	90	-2.8	0	0	967.2	NA	0.0000		9999	2820	4430	0	0
2017/06/27 02:32:00	BASE	12.61	259	14.92	260	-1.4	90	-2.8	0	0	967.3	NA	0.0000		9999	4330	0	0	0
2017/06/27 02:33:00	BASE	11.95	259	14.92	260	-1.4	90	-2.8	0	0	967.4	NA	0.0000		9999	3450	4000	0	0
2017/06/27 02:34:00	BASE	11.08	262	14.92	260	-1.4	90	-2.8	0	0	967.4	NA	0.0000		9999	2590	3610	0	0
2017/06/27 02:35:00	BASE	12.12	264	14.97	261	-1.4	90	-2.8	0	0	967.2	NA	0.0000		9999	2330	9610	0	0
2017/06/27 02:36:00	BASE	13.06	262	14.97	261	-1.4	90	-2.8	0	0	967.3	NA	0.0000		9999	4630	5220	0	0
2017/06/27 02:37:00	BASE	11.91	260	14.97	261	-1.4	90	-2.8	0	0	967.6	NA	0.0000		9999	4690	0	0	0
2017/06/27 02:38:00	BASE	11.25	259	14.97	261	-1.4	90	-2.8	0	0	967.5	NA	0.0000		9999	4760	0	0	0
2017/06/27 02:39:00	BASE	11.06	258	14.97	261	-1.4	90	-2.8	0	0	967.5	NA	0.0000		9999	4820	0	0	0
2017/06/27 02:40:00	BASE	11.54	259	14.97	261	-1.4	90	-2.9	0	0	967.5	NA	0.0000		9999	4860	0	0	0
2017/06/27 02:41:00	BASE	12.34	260	14.97	261	-1.4	89	-2.9	0	0	967.4	NA	0.0000		9999	5020	9420	0	0
2017/06/27 02:42:00	BASE	12.61	257	14.97	261	-1.4	89	-3.0	0	0	967.5	NA	0.0000		9999	9380	0	0	0
2017/06/27 02:43:00	BASE	11.77	256	14.97	261	-1.5	89	-3.1	0	0	967.6	NA	0.0000		9999	9650	0	0	0
2017/06/27 02:44:00	BASE	10.79	256	14.97	261	-1.5	88	-3.1	0	0	967.6	NA	0.0000		9999	4790	9480	0	0
2017/06/27 02:45:00	BASE	11.52	257	14.61	259	-1.5	88	-3.2	0	0	967.4	NA	0.0000		9999	4760	0	0	0
2017/06/27 02:46:00	BASE	11.80	260	14.61	259	-1.5	88	-3.2	0	0	967.6	NA	0.0000		9999	4630	0	0	0
2017/06/27 02:47:00	BASE	11.63	260	14.61	259	-1.5	88	-3.2	0	0	967.5	NA	0.0000		9999	4720	5280	0	0
2017/06/27 02:48:00	BASE	11.83	261	14.61	259	-1.5	88	-3.1	0	0	967.6	NA	0.0000		9999	4130	4990	0	0
2017/06/27 02:49:00	BASE	12.39	262	14.61	259	-1.4	88	-3.2	0	0	967.5	NA	0.0000		9999	3840	0	0	0
2017/06/27 02:50:00	BASE	12.20	257	14.61	259	-1.4	88	-3.1	0	0	967.6	NA	0.0000		9999	1970	4070	0	0
2017/06/27 02:51:00	BASE	11.18	259	14.61	259	-1.4	88	-3.1	0	0	967.7	NA	0.0000		9999	2000	4360	0	0
2017/06/27 02:52:00	BASE	10.74	264	14.35	254	-1.4	88	-3.1	0	0	967.7	NA	0.0000		9999	4300	0	0	0
2017/06/27 02:53:00	BASE	10.33	264	14.35	254	-1.4	88	-3.1	0	0	967.8	NA	0.0000		9999	4330	0	0	0
2017/06/27 02:54:00	BASE	9.88	265	14.35	254	-1.4	88	-3.1	0	0	967.8	NA	0.0000		9999	4230	0	0	0
2017/06/27 02:55:00	BASE	10.21	265	14.25	261	-1.4	88	-3.1	0	0	967.8	NA	0.0000		9999	4000	0	0	0
2017/06/27 02:56:00	BASE	10.87	263	14.25	261	-1.4	88	-3.0	0	0	967.8	NA	0.0000		9999	4040	0	0	0
2017/06/27 02:57:00	BASE	11.57	265	14.25	261	-1.3	89	-3.0	0	0	967.7	NA	0.0000		9999	2330	4270	0	0
2017/06/27 02:58:00	BASE	11.80	264	14.25	261	-1.3	89	-3.0	0	0	967.8	NA	0.0000		9999	4070	0	0	0
2017/06/27 02:59:00	BASE	11.06	263	14.04	256	-1.3	88	-3.0	0	0	967.8	NA	0.0000		9999	4000	4890	0	0
2017/06/27 03:00:00	BASE	11.39	264	14.35	268	-1.3	88	-3.0	0	0	967.7	NA	0.0000		9999	4000	0	0	0
2017/06/27 03:01:00	BASE	11.82	266	14.35	268	-1.3	88	-3.0	0	0	967.7	NA	0.0000		9999	4100	4630	0	0
2017/06/27 03:02:00	BASE	11.09	269	14.35	268	-1.3	88	-3.0	0	0	967.7	NA	0.0000		9999	4200	0	0	0
2017/06/27 03:03:00	BASE	11.21	271	14.35	268	-1.3	88	-3.0	0	0	967.7	NA	0.0000		9999	4170	0	0	0
2017/06/27 03:04:00	BASE	12.04	269	14.51	262	-1.3	88	-3.0	0	0	967.6	NA	0.0000		9999	3900	0	0	0
2017/06/27 03:05:00	BASE	12.79	268	15.07	263	-1.3	88	-3.1	0	0	967.5	NA	0.0000		9999	4170	5120	0	0
2017/06/27 03:06:00	BASE	12.59	268	15.07	263	-1.3	88	-3.1	0	0	967.7	NA	0.0000		9999	4490	0	0	0
2017/06/27 03:07:00	BASE	12.08	267	15.07	263	-1.3	87	-3.1	0	0	967.7	NA	0.0000		9999	4300	0	0	0
2017/06/27 03:08:00	BASE	12.26	268	15.07	263	-1.3	87	-3.2	0	0	967.8	NA	0.0000		9999	4630	0	0	0
2017/06/27 03:09:00	BASE	12.07	266	15.07	263	-1.3	87	-3.2	0	0	967.8	NA	0.0000		9999	4490	0	0	0
2017/06/27 03:10:00	BASE	11.63	263	15.07	263	-1.3	87	-3.1	0	0	968.0	NA	0.0000		9999	2260	0	0	0
2017/06/27 03:11:00	BASE	12.23	263	15.07	263	-1.2	87	-3.2	0	0	967.9	NA	0.0000		9999	0	0	0	4100
2017/06/27 03:12:00	BASE	12.08	265	15.07	263	-1.2	87	-3.1	0	0	968.0	NA	0.0000		9999	3640	0	0	0
2017/06/27 03:13:00	BASE	11.26	266	15.07	263	-1.2	87	-3.1	0	0	968.0	NA	0.0000		9999	3380	0	0	0
2017/06/27 03:14:00	BASE	11.36	267	15.07	263	-1.2	87	-3.1	0	0	967.9	NA	0.0000		9999	3050	0	0	0
2017/06/27 03:15:00	BASE	11.77	268	15.07	263	-1.2	87	-3.1	0	0	968.1	NA	0.0000		9999	3350	0	0	0
2017/06/27 03:16:00	BASE	11.89	262	15.07	263	-1.2	87	-3.1	0	0	968.2	NA	0.0000		9999	2330	0	0	0
2017/06/27 03:17:00	BASE	11.29	256	15.07	263	-1.2	87	-3.1	0	0	968.3	NA	0.0000		9999	2330	0	0	0
2017/06/27 03:18:00	BASE	11.59	244	14.40	255	-1.2	87	-3.1	0	0	968.8	NA	0.0000		9999	1800	0	0	0
2017/06/27 03:19:00	BASE	12.81	229	15.18	217	-1.4	87	-3.3	0	0	968.9	NA	0.0000	BR	1900	0	0	0	1050
2017/06/27 03:20:00	BASE	13.23	228	15.18	217	-1.6	88	-3.4	0	0	969.0	NA	0.0000	BR	0900	0	0	0	690
2017/06/27 03:21:00	BASE	12.28	233	15.18	217	-1.9	88	-3.6	0	0	969.0	NA	0.0000	-SN BR	1500	0	0	0	660
2017/06/27 03:22:00	BASE	11.62	233	15.18	217	-2.2	90	-3.6	0	0	969.1	NA	0.0000	-SN BR	1800	0	0	0	430
2017/06/27 03:23:00	BASE	10.89	232	15.18	217	-2.4	91	-3.7	0	0	969.2	NA	0.0000	-SN BR	2000	0	0	0	490
2017/06/27 03:24:00	BASE	10.08	231	15.18	217	-2.5	92	-3.6	0	0	969.2	NA	0.0000	-SN BR	2400	0	0	0	590
2017/06/27 03:25:00	BASE	9.53	230	15.18	217	-2.4	93	-3.5	0	0	969.2	NA	0.0000	-SN BR	2500	0	0	0	890
2017/06/27 03:26:00	BASE	9.50	229	15.18	217	-2.4	93	-3.4	0	0	969.2	NA	0.0000	-SN BR	2500	0	0	0	890
2017/06/27 03:27:00	BASE	10.03	229	15.18	217	-2.4	94	-3.3	0	0	969.3	NA	0.0000	-SN BR	2400	0	0	0	890
2017/06/27 03:28:00	BASE	10.88	230	15.18	217	-2.4	94	-3.3	0	0	969.4	NA	0.0000	-SN BR	2600	0	0	0	1020
2017/06/27 03:29:00	BASE	11.23	232	14.35	230	-2.4	94	-3.2	0	0	969.4	NA	0.0000	-SN BR	3200	0	0	0	1150
2017/06/27 03:30:00	BASE	11.03	232	14.35	230	-2.4	94	-3.2	0	0	969.5	NA	0.0000	-SN BR	3200	0	0	0	1210
2017/06/27 03:31:00	BASE	11.18	228	14.04	235	-2.4	95	-3.2	0	0	969.6	NA	0.0000	-SN BR	3100	0	0	0	980
2017/06/27 03:32:00	BASE	10.88	226	14.04	235	-2.4	95	-3.1	0	0	969.6	NA	0.0000	-SN BR	2700	0	0	0	750
2017/06/27 03:33:00	BASE	10.65	229	14.04	235	-2.4	95	-3.1	0	0	969.6	NA	0.0000	-SN BR	2200	0	0	0	620
2017/06/27 03:34:00	BASE	10.73	231	14.04	235	-2.4	95	-3.1	0	0	969.5	NA	0.0000	-SN BR	2400	0	0	0	620
2017/06/27 03:35:00	BASE	10.95	234	14.04	235	-2.4	95	-3.1	0	0	969.5	NA	0.0000	-SN BR	2600	0	0	0	690
2017/06/27 03:36:00	BASE	11.50	236	14.04	235	-2.4	95	-3.1	0	0	969.5	NA	0.0000	-SN BR	2900	0	0	0	660
2017/06/27 03:37:00	BASE	11.44	233	14.04	235	-2.5	95	-3.1	0	0	969.6	NA	0.0000	-SN BR	2500	0	0	0	460
2017/06/27 03:38:00	BASE	10.66	235	13.27	227	-2.5	96	-3.1	0	0	969.6	NA	0.0000	-SN BR	2200	0	0	0	460
2017/06/27 03:39:00	BASE	10.63	238	13.27	227	-2.5	96	-3.0	0	0	969.6	NA	0.0000	-SN BR	2400	0	0	0	850
2017/06/27 03:40:00	BASE	10.80	238	13.27	227	-2.4	96	-3.0	0	0	969.6	NA	0.0000	-SN BR	3000	0	0	0	1540
2017/06/27 03:41:00	BASE	11.07	238	13.27	227	-2.4	96	-3.0	0	0	969.6	NA	0.0000	-SN BR	3600	0	0	0	1640
2017/06/27 03:42:00	BASE	10.93	239	13.27	227	-2.4	96	-3.0	0	0	969.7	NA	0.2540	-SN BR	4400	0	0	0	1900
2017/06/27 03:43:00	BASE	10.17	243	13.27	227	-2.4	96	-3.0	0	0	969.7	NA	0.0000	-SN BR	4500	0	0	0	1970
2017/06/27 03:44:00	BASE	9.26	247	13.27	227	-2.5	96	-3.0	0	0	969.7	NA	0.0000	-SN BR	4500	0	0	0	1480
2017/06/27 03:45:00	BASE	9.01	251	13.27	227	-2.5	96	-3.0	0	0	969.7	NA	0.0000	-SN BR	3600	0	0	0	1350
2017/06/27 03:46:00	BASE	8.72	257	13.02	239	-2.5	97	-3.0	0	0	969.8	NA	0.0000	-SN BR	4100	0	0	0	2300
2017/06/27 03:47:00	BASE	8.17	258	13.02	239	-2.5	97	-3.0	0	0	969.7	NA	0.0000	-SN BR	5000	330	0	0	0
2017/06/27 03:48:00	BASE	8.51	255	13.02	239	-2.5	97	-2.9	0	0	969.7	NA	0.0000	-SN BR	5000	0	0	0	2560
2017/06/27 03:49:00	BASE	8.84	255	13.02	239	-2.6	97	-3.0	0	0	969.8	NA	0.2540	-SN BR	4700	300	3050	0	0
2017/06/27 03:50:00	BASE	8.41	256	13.02	239	-2.6	97	-3.0	0	0	969.9	NA	0.0000	-SN BR	3800	3020	0	0	0
2017/06/27 03:51:00	BASE	7.49	257	12.96	244	-2.6	97	-3.0	0	0	969.9	NA	0.0000	-SN BR	8000	2890	0	0	0
2017/06/27 03:52:00	BASE	7.14	257	12.96	244	-2.6	97	-3.0	0	0	970.0	NA	0.0000	-SN BR	9999	2590	0	0	0
2017/06/27 03:53:00	BASE	6.71	253	10.75	251	-2.5	97	-3.0	0	0	970.0	NA	0.0000	-SN BR	9999	4530	0	0	0
2017/06/27 03:54:00	BASE	6.20	252	10.65	251	-2.5	97	-2.9	0	0	970.1	NA	0.0000	-SN BR	9999	2460	3610	4760	0
2017/06/27 03:55:00	BASE	5.97	253	10.65	251	-2.5	97	-2.9	0	0	970.1	NA	0.2540	-SN BR	9999	3670	4950	0	0
2017/06/27 03:56:00	BASE	5.97	248	10.65	251	-2.5	97	-2.9	0	0	970.2	NA	0.0000	-SN BR	9999	3940	0	0	0
2017/06/27 03:57:00	BASE	6.31	244	10.19	248	-2.5	97	-2.9	0	0	970.2	NA	0.0000	-SN BR	9999	3840	0	0	0
2017/06/27 03:58:00	BASE	6.55	241	10.19	248	-2.4	97	-2.8	0	0	970.2	NA	0.0000	-SN BR	9999	3710	0	0	0
2017/06/27 03:59:00	BASE	6.40	238	9.67	257	-2.4	97	-2.8	0	0	970.3	NA	0.0000	-SN	9999	4330	0	0	0
2017/06/27 04:00:00	BASE	6.06	237	9.67	257	-2.3	97	-2.7	0	0	970.4	NA	0.0000	-SN	9999	2760	5280	0	0
2017/06/27 04:01:00	BASE	6.57	237	8.64	257	-2.3	97	-2.7	0	0	970.4	NA	0.0000		9999	2560	0	0	0
2017/06/27 04:02:00	BASE	7.65	237	9.26	233	-2.2	97	-2.6	0	0	970.4	NA	0.0000		9999	3180	0	0	0
2017/06/27 04:03:00	BASE	9.09	235	10.75	239	-2.2	97	-2.6	0	0	970.3	NA	0.0000		9999	2890	4720	0	0
2017/06/27 04:04:00	BASE	9.70	232	10.75	239	-2.2	97	-2.6	0	0	970.4	NA	0.0000		9999	2300	4720	0	0
2017/06/27 04:05:00	BASE	8.56	231	10.75	239	-2.1	97	-2.6	0	0	970.4	NA	0.0000		9999	2950	4040	0	0
2017/06/27 04:06:00	BASE	7.51	232	10.75	239	-2.1	96	-2.6	0	0	970.4	NA	0.0000		9999	2170	3020	0	0
2017/06/27 04:07:00	BASE	7.45	234	10.75	239	-2.1	96	-2.6	0	0	970.4	NA	0.0000		9999	2890	4300	0	0
2017/06/27 04:08:00	BASE	7.74	235	10.75	239	-2.1	96	-2.6	0	0	970.4	NA	0.0000		9999	2430	0	0	0
2017/06/27 04:09:00	BASE	8.12	236	10.75	239	-2.0	96	-2.6	0	0	970.4	NA	0.0000		9999	2100	0	0	0
2017/06/27 04:10:00	BASE	8.51	235	10.75	239	-2.0	96	-2.6	0	0	970.5	NA	0.0000		9999	1670	0	0	0
2017/06/27 04:11:00	BASE	7.97	243	10.75	239	-2.0	95	-2.6	0	0	970.5	NA	0.0000		9999	1210	0	0	0
2017/06/27 04:12:00	BASE	8.15	255	11.63	257	-2.0	95	-2.6	0	0	970.3	NA	0.0000		6000	0	0	0	1440
2017/06/27 04:13:00	BASE	8.66	255	11.63	257	-1.9	95	-2.6	0	0	970.3	NA	0.0000	-SN	3600	0	0	0	1180
2017/06/27 04:14:00	BASE	8.52	251	11.63	257	-1.9	95	-2.6	0	0	970.5	NA	0.0000	-SN BR	3600	0	0	0	1540
2017/06/27 04:15:00	BASE	9.30	246	12.60	234	-1.9	96	-2.5	0	0	970.4	NA	0.0000	-SN BR	4500	1150	2030	0	0
2017/06/27 04:16:00	BASE	10.10	243	12.60	234	-1.9	96	-2.5	0	0	970.5	NA	0.0000	-SN BR	9999	1310	0	0	0
2017/06/27 04:17:00	BASE	10.43	243	12.76	241	-1.9	96	-2.6	0	0	970.6	NA	0.0000	-SN BR	9999	300	0	0	0
2017/06/27 04:18:00	BASE	9.57	243	12.76	241	-2.0	95	-2.6	0	0	970.6	NA	0.0000	-SN BR	8000	390	0	0	0
2017/06/27 04:19:00	BASE	8.33	246	12.76	241	-2.0	95	-2.6	0	0	970.6	NA	0.0000	-SN BR	9999	2360	3220	0	0
2017/06/27 04:20:00	BASE	8.72	248	12.76	241	-2.0	95	-2.7	0	0	970.6	NA	0.0000	-SN BR	9999	1380	0	0	0
2017/06/27 04:21:00	BASE	9.27	247	12.76	241	-2.0	95	-2.7	0	0	970.6	NA	0.0000	-SN BR	9999	4590	0	0	0
2017/06/27 04:22:00	BASE	9.21	252	12.76	241	-2.0	95	-2.7	0	0	970.7	NA	0.0000	-SN BR	9999	2100	0	0	0
2017/06/27 04:23:00	BASE	8.54	257	12.76	241	-2.1	95	-2.8	0	0	970.7	NA	0.0000	-SN BR	9999	2200	0	0	0
2017/06/27 04:24:00	BASE	8.41	259	12.76	241	-2.1	95	-2.8	0	0	970.6	NA	0.0000	-SN	9999	4070	0	0	0
2017/06/27 04:25:00	BASE	8.95	258	12.76	241	-2.1	95	-2.8	0	0	970.6	NA	0.0000	-SN	9999	4040	0	0	0
2017/06/27 04:26:00	BASE	8.56	257	12.76	241	-2.1	95	-2.8	0	0	970.7	NA	0.0000	-SN	9999	4170	0	0	0
2017/06/27 04:27:00	BASE	8.48	256	11.06	241	-2.1	95	-2.8	0	0	970.7	NA	0.0000	-SN	9999	2360	4330	0	0
2017/06/27 04:28:00	BASE	8.36	256	11.06	241	-2.1	95	-2.8	0	0	970.7	NA	0.0000		9999	2200	4400	0	0
2017/06/27 04:29:00	BASE	7.72	254	11.06	241	-2.0	95	-2.7	0	0	970.8	NA	0.0000		9999	2130	0	0	0
2017/06/27 04:30:00	BASE	7.62	253	11.06	241	-2.0	95	-2.7	0	0	970.8	NA	0.0000		9999	2200	0	0	0
2017/06/27 04:31:00	BASE	8.75	256	11.37	255	-2.0	95	-2.7	0	0	970.7	NA	0.0000		9999	2200	4820	0	0
2017/06/27 04:32:00	BASE	10.56	258	13.17	254	-2.0	95	-2.7	0	0	970.6	NA	0.0000		9999	2070	4720	0	0
2017/06/27 04:33:00	BASE	10.92	255	13.79	254	-1.9	95	-2.7	0	0	970.8	NA	0.0000		9999	4630	0	0	0
2017/06/27 04:34:00	BASE	10.37	251	13.79	254	-1.9	95	-2.7	0	0	970.9	NA	0.0000		9999	2030	3380	0	0
2017/06/27 04:35:00	BASE	12.11	247	16.20	247	-1.9	94	-2.7	0	0	970.9	NA	0.0000		9999	1940	0	0	0
2017/06/27 04:36:00	BASE	13.32	242	16.20	247	-1.9	93	-2.8	0	0	970.9	NA	0.0000		9999	360	0	0	0
2017/06/27 04:37:00	BASE	13.07	240	16.46	241	-1.9	93	-2.9	0	0	971.0	NA	0.0000	-SN	9999	1800	0	0	0
2017/06/27 04:38:00	BASE	13.41	242	16.46	241	-2.0	92	-3.0	0	0	970.9	NA	0.0000	-SN	9999	3410	3940	0	0
2017/06/27 04:39:00	BASE	12.06	245	16.46	241	-2.0	92	-3.1	0	0	971.1	NA	0.0000	-SN	9999	3640	0	0	0
2017/06/27 04:40:00	BASE	10.53	245	16.46	241	-2.0	92	-3.1	0	0	971.1	NA	0.0000	-SN	9999	360	0	0	0
2017/06/27 04:41:00	BASE	10.74	246	16.46	241	-2.0	92	-3.1	0	0	971.0	NA	0.0000	-SN	9999	4070	0	0	0
2017/06/27 04:42:00	BASE	10.81	247	16.46	241	-2.0	92	-3.1	0	0	971.1	NA	0.0000	-SN	9999	4200	0	0	0
2017/06/27 04:43:00	BASE	9.77	249	16.46	241	-2.0	92	-3.1	0	0	971.1	NA	0.0000	-SN	9999	4330	0	0	0
2017/06/27 04:44:00	BASE	9.90	254	16.46	241	-2.0	93	-3.0	0	0	971.0	NA	0.0000	-SN	9999	4460	0	0	0
2017/06/27 04:45:00	BASE	11.19	254	16.46	241	-2.0	92	-3.1	0	0	971.0	NA	0.0000	-SN	9999	2100	4690	0	0
2017/06/27 04:46:00	BASE	11.89	255	16.46	241	-2.0	92	-3.1	0	0	970.9	NA	0.0000	-SN	9999	4300	0	0	0
2017/06/27 04:47:00	BASE	11.87	255	15.12	242	-2.0	92	-3.2	0	0	971.0	NA	0.0000	-SN	9999	4490	0	0	0
2017/06/27 04:48:00	BASE	12.14	254	14.82	257	-2.0	92	-3.2	0	0	970.9	NA	0.0000	-SN	9999	4330	0	0	0
2017/06/27 04:49:00	BASE	12.37	256	14.82	257	-2.0	91	-3.2	0	0	971.0	NA	0.0000	-SN	9999	4100	0	0	0
2017/06/27 04:50:00	BASE	11.14	256	14.82	257	-2.0	91	-3.3	0	0	971.1	NA	0.0000	-SN	9999	4300	0	0	0
2017/06/27 04:51:00	BASE	11.01	253	14.82	257	-2.0	91	-3.3	0	0	971.2	NA	0.0000	-SN	9999	4530	0	0	0
2017/06/27 04:52:00	BASE	11.50	252	14.82	257	-2.0	91	-3.3	0	0	971.2	NA	0.0000		9999	4490	0	0	0
2017/06/27 04:53:00	BASE	11.39	252	14.82	257	-2.0	90	-3.4	0	0	971.2	NA	0.0000		9999	4490	0	0	0
2017/06/27 04:54:00	BASE	11.49	252	14.82	257	-2.0	90	-3.5	0	0	971.4	NA	0.0000		9999	4430	0	0	0
2017/06/27 04:55:00	BASE	10.80	248	14.82	257	-2.0	89	-3.6	0	0	971.5	NA	0.0000	-SN	9999	4490	0	0	0
2017/06/27 04:56:00	BASE	10.34	244	14.82	257	-2.1	88	-3.8	0	0	971.6	NA	0.0000	-SN	9999	4430	0	0	0
2017/06/27 04:57:00	BASE	10.13	243	14.76	252	-2.1	87	-3.9	0	0	971.6	NA	0.0000	-SN	9999	4460	0	0	0
2017/06/27 04:58:00	BASE	9.38	247	14.25	247	-2.1	86	-4.1	0	0	971.6	NA	0.0000	-SN	9999	4460	0	0	0
2017/06/27 04:59:00	BASE	8.83	250	14.25	247	-2.1	85	-4.2	0	0	971.6	NA	0.0000	-SN	9999	4360	0	0	0
2017/06/27 05:00:00	BASE	9.01	247	14.25	247	-2.1	84	-4.3	0	0	971.6	NA	0.0000		9999	4400	0	0	0
2017/06/27 05:01:00	BASE	9.48	247	14.25	247	-2.0	84	-4.5	0	0	971.6	NA	0.0000		9999	4400	0	0	0
2017/06/27 05:02:00	BASE	10.41	249	14.25	247	-2.0	83	-4.5	0	0	971.7	NA	0.0000		9999	4230	0	0	0
2017/06/27 05:03:00	BASE	9.93	249	13.58	244	-2.0	82	-4.6	0	0	971.7	NA	0.0000		9999	4230	0	0	0
2017/06/27 05:04:00	BASE	8.70	247	13.58	244	-2.0	82	-4.7	0	0	971.8	NA	0.0000		9999	4360	0	0	0
2017/06/27 05:05:00	BASE	9.89	245	13.22	242	-2.0	81	-4.8	0	0	971.7	NA	0.0000		9999	4460	0	0	0
2017/06/27 05:06:00	BASE	11.35	245	13.22	242	-2.0	81	-4.8	0	0	971.7	NA	0.0000		9999	4430	0	0	0
2017/06/27 05:07:00	BASE	11.59	247	13.22	242	-2.0	81	-4.8	0	0	971.7	NA	0.0000		9999	4530	0	0	0
2017/06/27 05:08:00	BASE	10.49	247	13.22	242	-2.0	81	-4.8	0	0	971.8	NA	0.0000		9999	4560	0	0	0
2017/06/27 05:09:00	BASE	10.09	243	13.22	242	-2.0	81	-4.8	0	0	971.8	NA	0.0000		9999	4170	0	0	0
2017/06/27 05:10:00	BASE	10.66	242	13.22	242	-2.0	81	-4.8	0	0	971.8	NA	0.0000		9999	4270	0	0	0
2017/06/27 05:11:00	BASE	9.43	248	13.22	242	-2.0	81	-4.8	0	0	971.8	NA	0.0000		9999	4430	0	0	0
2017/06/27 05:12:00	BASE	8.79	254	13.22	242	-2.0	81	-4.7	0	0	971.8	NA	0.0000		9999	4460	5020	0	0
2017/06/27 05:13:00	BASE	9.29	257	13.22	242	-1.9	81	-4.7	0	0	971.8	NA	0.0000		9999	4590	0	0	0
2017/06/27 05:14:00	BASE	9.61	256	13.22	242	-1.9	81	-4.7	0	0	971.8	NA	0.0000		9999	4460	0	0	0
2017/06/27 05:15:00	BASE	9.53	252	13.17	242	-1.9	81	-4.7	0	0	971.9	NA	0.0000		9999	4490	0	0	0
2017/06/27 05:16:00	BASE	9.43	250	13.17	242	-1.9	81	-4.7	0	0	972.0	NA	0.0000		9999	2660	4720	0	0
2017/06/27 05:17:00	BASE	9.77	245	13.58	243	-1.9	82	-4.6	0	0	972.1	NA	0.0000		9999	2760	4100	0	0
2017/06/27 05:18:00	BASE	11.48	237	14.76	227	-2.0	83	-4.5	0	0	972.2	NA	0.0000		4400	0	0	0	3710
2017/06/27 05:19:00	BASE	12.36	235	14.76	227	-2.1	85	-4.3	0	0	972.3	NA	0.0000	HZ	2100	0	0	0	2530
2017/06/27 05:20:00	BASE	11.08	235	14.76	227	-2.2	87	-4.1	0	0	972.3	NA	0.0000	-SN BR	3300	0	0	0	2690
2017/06/27 05:21:00	BASE	10.74	238	14.76	227	-2.4	89	-4.0	0	0	972.3	NA	0.0000	-SN BR	4100	260	0	0	0
2017/06/27 05:22:00	BASE	10.05	238	14.76	227	-2.5	91	-3.8	0	0	972.4	NA	0.0000	-SN BR	6000	2430	0	0	0
2017/06/27 05:23:00	BASE	9.53	236	14.76	227	-2.5	91	-3.7	0	0	972.4	NA	0.0000	-SN BR	9999	360	0	0	0
2017/06/27 05:24:00	BASE	9.67	238	14.76	227	-2.4	92	-3.6	0	0	972.4	NA	0.0000	-SN BR	9999	2620	3410	0	0
2017/06/27 05:25:00	BASE	9.36	240	14.76	227	-2.4	92	-3.6	0	0	972.5	NA	0.0000	-SN BR	9999	3120	3770	0	0
2017/06/27 05:26:00	BASE	9.17	244	14.76	227	-2.4	91	-3.6	0	0	972.4	NA	0.0000	-SN BR	9999	2170	0	0	0
2017/06/27 05:27:00	BASE	8.74	245	14.76	227	-2.3	91	-3.6	0	0	972.4	NA	0.0000	-SN BR	9999	2330	0	0	0
2017/06/27 05:28:00	BASE	7.87	244	13.38	233	-2.3	91	-3.6	0	0	972.5	NA	0.0000	-SN BR	9999	2690	0	0	0
2017/06/27 05:29:00	BASE	7.44	246	12.24	235	-2.2	91	-3.6	0	0	972.6	NA	0.0000	-SN BR	9999	3250	4990	0	0
2017/06/27 05:30:00	BASE	7.40	244	12.04	238	-2.2	90	-3.5	0	0	972.6	NA	0.0000	-SN	9999	3250	4820	0	0
2017/06/27 05:31:00	BASE	8.26	239	11.37	240	-2.1	90	-3.5	0	0	972.6	NA	0.0000	-SN	9999	3220	4070	0	0
2017/06/27 05:32:00	BASE	9.00	240	11.37	240	-2.1	90	-3.6	0	0	972.6	NA	0.0000	-SN	9999	3450	5380	0	0
2017/06/27 05:33:00	BASE	9.86	239	12.40	231	-2.1	89	-3.7	0	0	972.6	NA	0.0000	-SN	9999	5320	0	0	0
2017/06/27 05:34:00	BASE	10.73	235	12.96	238	-2.1	88	-3.9	0	0	972.6	NA	0.0000	-SN	9999	5220	5940	0	0
2017/06/27 05:35:00	BASE	10.18	236	12.96	238	-2.1	87	-4.0	0	0	972.6	NA	0.0000	-SN	9999	5050	0	0	0
2017/06/27 05:36:00	BASE	9.49	239	12.96	238	-2.1	86	-4.2	0	0	972.7	NA	0.0000	-SN	9999	4760	0	0	0
2017/06/27 05:37:00	BASE	9.66	241	12.96	238	-2.1	85	-4.2	0	0	972.7	NA	0.0000		9999	4660	0	0	0
2017/06/27 05:38:00	BASE	10.31	240	12.96	238	-2.1	85	-4.3	0	0	972.7	NA	0.0000		9999	4720	0	0	0
2017/06/27 05:39:00	BASE	10.53	240	12.96	238	-2.1	84	-4.4	0	0	972.7	NA	0.0000		9999	4950	0	0	0
2017/06/27 05:40:00	BASE	9.96	241	12.96	238	-2.0	83	-4.5	0	0	972.8	NA	0.0000		9999	4590	0	0	0
2017/06/27 05:41:00	BASE	8.50	242	12.96	238	-2.0	83	-4.6	0	0	972.8	NA	0.0000		9999	4490	0	0	0
2017/06/27 05:42:00	BASE	8.00	243	12.96	238	-2.0	82	-4.7	0	0	972.8	NA	0.0000		9999	4630	0	0	0
2017/06/27 05:43:00	BASE	8.56	243	12.96	238	-2.0	82	-4.8	0	0	972.8	NA	0.0000		9999	4590	0	0	0
2017/06/27 05:44:00	BASE	9.20	244	12.04	245	-2.0	81	-4.8	0	0	972.7	NA	0.0000		9999	4460	0	0	0
2017/06/27 05:45:00	BASE	9.29	241	12.04	245	-2.0	81	-4.9	0	0	972.8	NA	0.0000		9999	4690	0	0	0
2017/06/27 05:46:00	BASE	8.87	237	12.04	245	-2.0	80	-5.0	0	0	972.8	NA	0.0000		9999	4720	0	0	0
2017/06/27 05:47:00	BASE	7.97	238	12.04	245	-2.0	80	-5.0	0	0	972.8	NA	0.0000		9999	4690	0	0	0
2017/06/27 05:48:00	BASE	8.48	240	12.04	245	-2.0	79	-5.1	0	0	972.8	NA	0.0000		9999	4720	0	0	0
2017/06/27 05:49:00	BASE	9.85	242	12.04	237	-2.0	79	-5.2	0	0	972.8	NA	0.0000		9999	4330	0	0	0
2017/06/27 05:50:00	BASE	10.17	241	12.04	237	-2.0	78	-5.3	0	0	972.9	NA	0.0000		9999	4860	0	0	0
2017/06/27 05:51:00	BASE	9.50	241	12.04	237	-1.9	78	-5.3	0	0	972.9	NA	0.0000		9999	4820	0	0	0
2017/06/27 05:52:00	BASE	8.59	244	12.04	237	-1.9	77	-5.5	0	0	973.0	NA	0.0000		9999	4660	0	0	0
2017/06/27 05:53:00	BASE	7.92	240	12.04	237	-1.9	76	-5.5	0	0	973.0	NA	0.0000		9999	4690	0	0	0
2017/06/27 05:54:00	BASE	7.70	240	12.04	237	-1.9	76	-5.5	0	0	973.1	NA	0.0000		9999	4760	0	0	0
2017/06/27 05:55:00	BASE	8.58	240	12.04	237	-1.8	76	-5.5	0	0	973.1	NA	0.0000		9999	5020	0	0	0
2017/06/27 05:56:00	BASE	8.21	242	12.04	237	-1.8	76	-5.5	0	0	973.2	NA	0.0000		9999	4530	0	0	0
2017/06/27 05:57:00	BASE	7.94	246	12.04	237	-1.8	76	-5.5	0	0	973.1	NA	0.0000		9999	4590	0	0	0
2017/06/27 05:58:00	BASE	9.07	243	12.04	237	-1.8	76	-5.5	0	0	973.1	NA	0.0000		9999	4400	0	0	0
2017/06/27 05:59:00	BASE	9.03	237	11.88	236	-1.8	75	-5.6	0	0	973.1	NA	0.0000		9999	4490	5220	0	0
2017/06/27 06:00:00	BASE	7.92	237	11.27	248	-1.8	75	-5.6	0	0	973.2	NA	0.0000		9999	4630	5120	0	0
2017/06/27 06:01:00	BASE	8.15	238	11.27	248	-1.8	75	-5.6	0	0	973.1	NA	0.0000		9999	5580	0	0	0
2017/06/27 06:02:00	BASE	8.87	237	11.27	248	-1.8	75	-5.6	0	0	973.1	NA	0.0000		9999	4690	5510	0	0
2017/06/27 06:03:00	BASE	9.06	235	11.27	248	-1.7	75	-5.7	0	0	973.1	NA	0.0000		9999	5410	0	0	0
2017/06/27 06:04:00	BASE	9.50	234	11.27	248	-1.7	75	-5.7	0	0	973.1	NA	0.0000		9999	5250	0	0	0
2017/06/27 06:05:00	BASE	9.24	234	11.32	223	-1.7	74	-5.7	0	0	973.1	NA	0.0000		9999	3180	5090	0	0
2017/06/27 06:06:00	BASE	8.52	237	11.32	223	-1.7	74	-5.7	0	0	973.1	NA	0.0000		9999	3180	5150	0	0
2017/06/27 06:07:00	BASE	8.62	240	11.32	223	-1.7	74	-5.7	0	0	973.0	NA	0.0000		9999	3180	5150	0	0
2017/06/27 06:08:00	BASE	8.83	240	11.32	223	-1.7	75	-5.6	0	0	973.0	NA	0.0000		9999	5020	0	0	0
2017/06/27 06:09:00	BASE	8.94	239	11.32	223	-1.7	75	-5.6	0	0	973.0	NA	0.0000		9999	4760	0	0	0
2017/06/27 06:10:00	BASE	9.36	237	11.32	223	-1.7	75	-5.6	0	0	973.0	NA	0.0000		9999	4790	0	0	0
2017/06/27 06:11:00	BASE	9.15	238	11.32	223	-1.7	75	-5.6	0	0	973.0	NA	0.0000		9999	4950	0	0	0
2017/06/27 06:12:00	BASE	8.83	240	11.32	223	-1.7	75	-5.6	0	0	973.0	NA	0.0000		9999	4820	0	0	0
2017/06/27 06:13:00	BASE	8.96	241	11.32	223	-1.7	74	-5.6	0	0	973.0	NA	0.0000		9999	4720	0	0	0
2017/06/27 06:14:00	BASE	9.33	239	11.32	223	-1.6	74	-5.6	0	0	973.0	NA	0.0000		9999	4430	0	0	0
2017/06/27 06:15:00	BASE	9.09	238	10.80	234	-1.6	74	-5.6	0	0	973.0	NA	0.0000		9999	4130	0	0	0
2017/06/27 06:16:00	BASE	8.56	237	10.80	234	-1.6	74	-5.6	0	0	973.0	NA	0.0000		9999	3740	0	0	0
2017/06/27 06:17:00	BASE	8.20	237	10.80	234	-1.6	74	-5.6	0	0	973.0	NA	0.0000		9999	3580	0	0	0
2017/06/27 06:18:00	BASE	7.74	239	10.80	234	-1.6	74	-5.6	0	0	973.1	NA	0.0000		9999	3080	0	0	0
2017/06/27 06:19:00	BASE	7.27	240	10.80	234	-1.6	75	-5.5	0	0	973.1	NA	0.0000		9999	2990	0	0	0
2017/06/27 06:20:00	BASE	6.88	239	10.75	234	-1.6	75	-5.4	0	0	973.1	NA	0.0000		9999	3840	0	0	0
2017/06/27 06:21:00	BASE	6.70	241	10.65	230	-1.6	76	-5.3	0	0	973.0	NA	0.0000		9999	3770	4330	0	0
2017/06/27 06:22:00	BASE	6.90	242	10.65	230	-1.6	76	-5.2	0	0	973.0	NA	0.0000		9999	4040	0	0	0
2017/06/27 06:23:00	BASE	6.67	242	10.65	230	-1.6	76	-5.2	0	0	973.1	NA	0.0000		9999	4430	0	0	0
2017/06/27 06:24:00	BASE	6.61	245	9.67	240	-1.6	76	-5.2	0	0	973.1	NA	0.0000		9999	4560	0	0	0
2017/06/27 06:25:00	BASE	7.28	248	9.67	240	-1.6	76	-5.3	0	0	973.1	NA	0.0000		9999	4660	0	0	0
2017/06/27 06:26:00	BASE	7.60	248	9.72	240	-1.6	75	-5.4	0	0	973.1	NA	0.0000		9999	3180	4430	0	0
2017/06/27 06:27:00	BASE	7.74	242	9.72	240	-1.6	75	-5.4	0	0	973.1	NA	0.0000		9999	4300	0	0	0
2017/06/27 06:28:00	BASE	7.56	239	9.72	240	-1.5	75	-5.4	0	0	973.2	NA	0.0000		9999	4530	0	0	0
2017/06/27 06:29:00	BASE	7.46	243	9.72	240	-1.5	75	-5.5	0	0	973.1	NA	0.0000		9999	4360	0	0	0
2017/06/27 06:30:00	BASE	7.74	245	9.93	229	-1.5	74	-5.5	0	0	973.2	NA	0.0000		9999	4360	0	0	0
2017/06/27 06:31:00	BASE	7.57	247	9.93	229	-1.5	74	-5.5	0	0	973.2	NA	0.0000		9999	3940	0	0	0
2017/06/27 06:32:00	BASE	7.02	249	9.93	229	-1.5	74	-5.5	0	0	973.2	NA	0.0000		9999	4130	0	0	0
2017/06/27 06:33:00	BASE	7.58	251	9.93	229	-1.6	75	-5.5	0	0	973.2	NA	0.0000		9999	3020	4100	0	0
2017/06/27 06:34:00	BASE	8.66	251	10.24	257	-1.6	75	-5.5	0	0	973.2	NA	0.0000		9999	2790	0	0	0
2017/06/27 06:35:00	BASE	8.83	251	10.24	257	-1.6	76	-5.3	0	0	973.3	NA	0.0000		9999	390	2720	0	0
2017/06/27 06:36:00	BASE	9.60	256	11.63	257	-1.7	79	-5.0	0	0	973.2	NA	0.0000		9999	460	0	0	0
2017/06/27 06:37:00	BASE	10.47	255	11.78	256	-1.8	81	-4.7	0	0	973.2	NA	0.0000	UP	9999	2530	0	0	0
2017/06/27 06:38:00	BASE	9.33	251	11.78	256	-1.9	83	-4.4	0	0	973.4	NA	0.0000	UP	9999	3080	0	0	0
2017/06/27 06:39:00	BASE	8.01	252	11.78	256	-2.0	86	-4.1	0	0	973.4	NA	0.0000	UP	9999	3050	0	0	0
2017/06/27 06:40:00	BASE	7.91	253	11.78	256	-2.1	87	-4.0	0	0	973.4	NA	0.0000	UP	9999	2790	0	0	0
2017/06/27 06:41:00	BASE	8.98	253	11.78	244	-2.1	88	-3.9	0	0	973.3	NA	0.0000	UP	9999	3450	0	0	0
2017/06/27 06:42:00	BASE	9.49	252	11.78	244	-2.2	88	-3.9	0	0	973.4	NA	0.0000	UP	9999	4070	0	0	0
2017/06/27 06:43:00	BASE	8.84	250	11.78	244	-2.2	88	-3.9	0	0	973.5	NA	0.0000	UP	9999	4040	4660	0	0
2017/06/27 06:44:00	BASE	8.81	250	11.78	244	-2.1	87	-3.9	0	0	973.4	NA	0.0000	UP	9999	4990	0	0	0
2017/06/27 06:45:00	BASE	8.63	250	11.78	244	-2.1	87	-3.9	0	0	973.5	NA	0.0000	UP	9999	4560	5120	0	0
2017/06/27 06:46:00	BASE	8.71	249	11.78	244	-2.0	87	-3.9	0	0	973.5	NA	0.0000		9999	4690	0	0	0
2017/06/27 06:47:00	BASE	9.21	249	11.78	244	-2.0	87	-3.9	0	0	973.6	NA	0.0000		9999	5050	0	0	0
2017/06/27 06:48:00	BASE	9.42	248	11.78	244	-1.9	86	-3.9	0	0	973.6	NA	0.0000		9999	4920	0	0	0
2017/06/27 06:49:00	BASE	8.94	248	11.78	244	-1.9	86	-4.0	0	0	973.6	NA	0.0000		9999	5020	0	0	0
2017/06/27 06:50:00	BASE	8.19	253	11.78	244	-1.9	86	-4.0	0	0	973.6	NA	0.0000		9999	5580	0	0	0
2017/06/27 06:51:00	BASE	8.59	254	11.73	244	-1.9	85	-4.0	0	0	973.5	NA	0.0000		9999	5410	0	0	0
2017/06/27 06:52:00	BASE	9.05	254	11.73	244	-1.9	85	-4.1	0	0	973.5	NA	0.0000		9999	5020	5640	0	0
2017/06/27 06:53:00	BASE	8.61	250	11.73	244	-1.8	84	-4.1	0	0	973.6	NA	0.0000		9999	5250	0	0	0
2017/06/27 06:54:00	BASE	7.85	249	11.73	244	-1.8	84	-4.2	0	0	973.6	NA	0.0000		9999	0	0	0	0
2017/06/27 06:55:00	BASE	7.89	247	11.73	244	-1.8	83	-4.2	0	0	973.6	NA	0.0000		9999	3150	0	0	0
2017/06/27 06:56:00	BASE	7.93	246	11.42	258	-1.8	83	-4.3	0	0	973.6	NA	0.0000		9999	2820	0	0	0
2017/06/27 06:57:00	BASE	8.44	248	11.32	245	-1.7	82	-4.4	0	0	973.6	NA	0.0000		9999	3380	0	0	0
2017/06/27 06:58:00	BASE	9.06	246	11.06	250	-1.7	81	-4.5	0	0	973.6	NA	0.0000		9999	2890	0	0	0
2017/06/27 06:59:00	BASE	9.03	245	11.06	250	-1.7	80	-4.7	0	0	973.7	NA	0.0000		9999	4920	0	0	0
2017/06/27 07:00:00	BASE	9.52	245	12.30	246	-1.6	79	-4.8	0	0	973.7	NA	0.0000		9999	2950	4300	5050	0
2017/06/27 07:01:00	BASE	9.71	244	12.30	246	-1.6	77	-5.1	0	0	973.7	NA	0.0000		9999	4200	0	0	0
2017/06/27 07:02:00	BASE	8.46	246	12.30	246	-1.6	76	-5.3	0	0	973.7	NA	0.0000		9999	4170	0	0	0
2017/06/27 07:03:00	BASE	8.19	245	12.30	246	-1.6	75	-5.5	0	0	973.7	NA	0.0000		9999	4460	0	0	0
2017/06/27 07:04:00	BASE	8.87	243	12.30	246	-1.5	74	-5.6	0	0	973.7	NA	0.0000		9999	4990	5450	0	0
2017/06/27 07:05:00	BASE	8.57	244	12.30	246	-1.5	73	-5.7	0	0	973.7	NA	0.0000		9999	4920	0	0	0
2017/06/27 07:06:00	BASE	8.63	246	12.30	246	-1.5	73	-5.7	0	0	973.7	NA	0.0000		9999	5350	0	0	0
2017/06/27 07:07:00	BASE	8.87	245	12.30	246	-1.5	73	-5.8	0	0	973.7	NA	0.0000		9999	9610	0	0	0
2017/06/27 07:08:00	BASE	8.48	243	12.30	246	-1.5	72	-5.8	0	0	973.8	NA	0.0000		9999	0	0	0	0
2017/06/27 07:09:00	BASE	8.20	244	12.30	246	-1.5	72	-5.9	0	0	973.8	NA	0.0000		9999	0	0	0	0
2017/06/27 07:10:00	BASE	8.40	244	12.14	243	-1.5	72	-5.9	0	0	973.8	NA	0.0000		9999	0	0	0	0
2017/06/27 07:11:00	BASE	8.11	243	12.14	243	-1.5	72	-5.9	0	0	973.8	NA	0.0000		9999	0	0	0	0
2017/06/27 07:12:00	BASE	7.42	247	12.14	243	-1.5	72	-5.9	0	0	973.8	NA	0.0000		9999	0	0	0	0
2017/06/27 07:13:00	BASE	6.97	248	12.14	243	-1.5	72	-5.9	0	0	973.8	NA	0.0000		9999	4690	5250	0	0
2017/06/27 07:14:00	BASE	7.01	247	11.88	245	-1.5	72	-5.8	0	0	973.8	NA	0.0000		9999	4530	0	0	0
2017/06/27 07:15:00	BASE	7.13	247	11.88	245	-1.5	72	-5.8	0	0	973.8	NA	0.0000		9999	4300	0	0	0
2017/06/27 07:16:00	BASE	7.20	249	11.88	245	-1.5	72	-5.8	0	0	973.9	NA	0.0000		9999	4270	0	0	0
2017/06/27 07:17:00	BASE	7.83	248	10.39	255	-1.5	72	-5.9	0	0	973.9	NA	0.0000		9999	4130	0	0	0
2017/06/27 07:18:00	BASE	8.13	246	10.96	246	-1.5	72	-5.9	0	0	973.9	NA	0.0000		9999	4100	0	0	0
2017/06/27 07:19:00	BASE	7.93	246	10.96	246	-1.5	71	-6.0	0	0	973.9	NA	0.0000		9999	4070	0	0	0
2017/06/27 07:20:00	BASE	7.53	249	10.96	246	-1.5	71	-6.0	0	0	973.9	NA	0.0000		9999	3940	0	0	0
2017/06/27 07:21:00	BASE	7.64	252	10.96	246	-1.5	71	-6.0	0	0	973.9	NA	0.0000		9999	3640	0	0	0
2017/06/27 07:22:00	BASE	7.65	249	10.96	246	-1.5	72	-6.0	0	0	973.9	NA	0.0000		9999	3540	0	0	0
2017/06/27 07:23:00	BASE	7.67	250	10.96	246	-1.5	72	-5.9	0	0	973.9	NA	0.0000		9999	3280	0	0	0
2017/06/27 07:24:00	BASE	8.12	249	10.96	246	-1.5	72	-5.9	0	0	973.9	NA	0.0000		9999	3310	0	0	0
2017/06/27 07:25:00	BASE	7.46	250	10.96	246	-1.5	72	-5.9	0	0	973.9	NA	0.0000		9999	3250	0	0	0
2017/06/27 07:26:00	BASE	7.53	254	10.96	246	-1.4	72	-5.9	0	0	973.9	NA	0.0000		9999	3150	0	0	0
2017/06/27 07:27:00	BASE	7.77	252	10.96	246	-1.4	72	-5.9	0	0	973.9	NA	0.0000		9999	3250	0	0	0
2017/06/27 07:28:00	BASE	7.84	248	10.13	245	-1.4	71	-5.9	0	0	973.9	NA	0.0000		9999	3250	0	0	0
2017/06/27 07:29:00	BASE	7.87	247	10.13	245	-1.4	71	-6.0	0	0	974.0	NA	0.0000		9999	3220	0	0	0
2017/06/27 07:30:00	BASE	7.68	245	10.29	239	-1.4	71	-6.0	0	0	974.0	NA	0.0000		9999	3080	0	0	0
2017/06/27 07:31:00	BASE	7.82	243	10.29	239	-1.4	71	-6.0	0	0	974.1	NA	0.0000		9999	3050	0	0	0
2017/06/27 07:32:00	BASE	8.65	241	10.85	236	-1.4	71	-6.0	0	0	974.1	NA	0.0000		9999	3020	0	0	0
2017/06/27 07:33:00	BASE	9.80	243	12.19	248	-1.4	71	-6.0	0	0	974.0	NA	0.0000		9999	2990	0	0	0
2017/06/27 07:34:00	BASE	8.94	246	12.19	248	-1.4	71	-5.9	0	0	974.1	NA	0.0000		9999	2590	0	0	0
2017/06/27 07:35:00	BASE	8.36	244	12.19	248	-1.4	72	-5.9	0	0	974.1	NA	0.0000		9999	2490	0	0	0
2017/06/27 07:36:00	BASE	9.01	242	12.19	248	-1.4	72	-5.8	0	0	974.2	NA	0.0000		9999	2360	0	0	0
2017/06/27 07:37:00	BASE	8.66	239	12.19	248	-1.4	72	-5.7	0	0	974.2	NA	0.0000		9999	2300	0	0	0
2017/06/27 07:38:00	BASE	8.10	235	12.19	248	-1.4	74	-5.5	0	0	974.2	NA	0.0000		9999	2430	0	0	0
2017/06/27 07:39:00	BASE	8.34	232	12.19	248	-1.5	75	-5.4	0	0	974.3	NA	0.0000		9999	2260	0	0	0
2017/06/27 07:40:00	BASE	8.22	235	12.19	248	-1.5	75	-5.3	0	0	974.3	NA	0.0000		9999	2130	0	0	0
2017/06/27 07:41:01	BASE	7.29	242	12.19	248	-1.6	77	-5.1	0	0	974.4	NA	0.0000		9999	1120	0	0	0
2017/06/27 07:42:00	BASE	6.71	245	12.19	248	-1.7	78	-5.0	0	0	974.4	NA	0.0000		9999	520	0	0	0
2017/06/27 07:43:00	BASE	6.21	245	10.49	244	-1.8	80	-4.8	0	0	974.4	NA	0.0000		9999	390	0	0	0
2017/06/27 07:44:00	BASE	5.97	245	10.49	244	-1.9	82	-4.6	0	0	974.3	NA	0.0000	UP	9999	330	2070	0	0
2017/06/27 07:45:00	BASE	6.50	244	10.29	243	-1.9	84	-4.2	0	0	974.4	NA	0.0000	UP	9999	390	0	0	0
2017/06/27 07:46:00	BASE	7.04	243	9.41	231	-2.0	86	-4.0	0	0	974.4	NA	0.0000	UP	6000	300	1480	0	0
2017/06/27 07:47:00	BASE	8.12	244	11.11	233	-2.0	88	-3.8	0	0	974.3	NA	0.0000	UP BR	3400	0	0	0	1770
2017/06/27 07:48:00	BASE	9.33	242	11.11	233	-2.1	90	-3.6	0	0	974.4	NA	0.0000	-SN BR	2900	0	0	0	1670
2017/06/27 07:49:00	BASE	9.13	247	11.11	233	-2.2	91	-3.5	0	0	974.4	NA	0.0000	-SN BR	2800	0	0	0	1670
2017/06/27 07:50:00	BASE	8.48	250	11.11	233	-2.3	92	-3.5	0	0	974.5	NA	0.0000	-SN BR	2600	0	0	0	2200
2017/06/27 07:51:00	BASE	7.67	244	11.11	233	-2.4	92	-3.5	0	0	974.6	NA	0.0000	-SN BR	2900	230	1540	0	0
2017/06/27 07:52:00	BASE	6.87	235	11.11	233	-2.4	93	-3.5	0	0	974.6	NA	0.0000	-SN BR	4100	1670	0	0	0
2017/06/27 07:53:00	BASE	6.64	232	11.11	233	-2.5	92	-3.5	0	0	974.6	NA	0.0000	-SN BR	6000	330	1970	0	0
2017/06/27 07:54:00	BASE	6.56	233	11.11	233	-2.5	92	-3.6	0	0	974.7	NA	0.0000	-SN BR	7000	1540	0	0	0
2017/06/27 07:55:00	BASE	6.51	229	11.11	233	-2.5	92	-3.6	0	0	974.7	NA	0.0000	-SN BR	9000	1310	0	0	0
2017/06/27 07:56:00	BASE	5.99	227	11.11	233	-2.5	92	-3.7	0	0	974.6	NA	0.0000	-SN BR	9999	1310	0	0	0
2017/06/27 07:57:00	BASE	5.63	230	10.80	240	-2.6	92	-3.7	0	0	974.6	NA	0.0000	-SN BR	6000	300	0	0	0
2017/06/27 07:58:00	BASE	6.21	232	9.88	244	-2.6	92	-3.7	0	0	974.6	NA	0.0000	-SN BR	3800	230	1250	0	0
2017/06/27 07:59:00	BASE	6.75	231	9.83	260	-2.6	92	-3.7	0	0	974.7	NA	0.0000	-SN BR	4300	330	0	0	0
2017/06/27 08:00:00	BASE	6.70	230	8.69	240	-2.6	93	-3.6	0	0	974.7	NA	0.0000	-SN BR	9999	1310	0	0	0
2017/06/27 08:01:00	BASE	6.61	229	7.97	228	-2.6	93	-3.6	0	0	974.7	NA	0.0000	-SN BR	9999	980	0	0	0
2017/06/27 08:02:00	BASE	6.43	227	7.97	228	-2.6	93	-3.5	0	0	974.7	NA	0.0000	-SN BR	9999	1310	0	0	0
2017/06/27 08:03:00	BASE	6.45	227	7.97	228	-2.6	94	-3.5	0	0	974.7	NA	0.0000	-SN BR	9999	1670	0	0	0
2017/06/27 08:04:00	BASE	6.63	229	7.82	232	-2.6	94	-3.5	0	0	974.8	NA	0.0000	-SN BR	9999	390	0	0	0
2017/06/27 08:05:00	BASE	6.37	232	7.82	232	-2.6	94	-3.4	0	0	974.8	NA	0.0000	-SN BR	9999	2000	0	0	0
2017/06/27 08:06:00	BASE	6.21	232	7.82	232	-2.6	94	-3.4	0	0	974.8	NA	0.0000	-SN BR	9999	1870	2760	0	0
2017/06/27 08:07:00	BASE	5.80	233	7.82	232	-2.6	94	-3.4	0	0	974.8	NA	0.0000	-SN BR	9999	1770	2690	0	0
2017/06/27 08:08:00	BASE	5.20	237	7.77	225	-2.6	94	-3.4	0	0	974.8	NA	0.0000	-SN	9999	2400	0	0	0
2017/06/27 08:09:00	BASE	5.23	242	7.77	225	-2.6	94	-3.4	0	0	974.8	NA	0.0000	-SN	9999	2130	0	0	0
2017/06/27 08:10:00	BASE	5.19	245	7.77	225	-2.6	94	-3.4	0	0	974.8	NA	0.0000	-SN	9999	1770	0	0	0
2017/06/27 08:11:00	BASE	4.91	242	7.61	224	-2.6	94	-3.4	0	0	974.8	NA	0.0000	-SN	9999	2300	0	0	0
2017/06/27 08:12:00	BASE	4.42	240	7.61	224	-2.6	94	-3.4	0	0	974.9	NA	0.0000	-SN	9999	1540	2890	0	0
2017/06/27 08:13:00	BASE	4.56	240	7.46	222	-2.6	94	-3.4	0	0	974.9	NA	0.0000	-SN	9999	620	0	0	0
2017/06/27 08:14:00	BASE	5.30	237	7.15	235	-2.5	94	-3.4	0	0	974.9	NA	0.0000	-SN	9999	430	2620	0	0
2017/06/27 08:15:00	BASE	5.22	232	7.15	235	-2.5	94	-3.3	0	0	975.0	NA	0.0000		9999	2330	0	0	0
2017/06/27 08:16:00	BASE	4.88	229	6.38	230	-2.5	94	-3.3	0	0	975.0	NA	0.0000		9999	1940	2530	0	0
2017/06/27 08:17:00	BASE	5.02	231	6.17	241	-2.5	94	-3.3	0	0	975.0	NA	0.0000		9999	1840	0	0	0
2017/06/27 08:18:00	BASE	4.91	233	6.17	241	-2.5	94	-3.3	0	0	975.0	NA	0.0000		9999	2230	0	0	0
2017/06/27 08:19:00	BASE	4.29	235	6.17	241	-2.5	94	-3.4	0	0	975.0	NA	0.0000		9999	1710	2330	0	0
2017/06/27 08:20:00	BASE	4.06	243	6.17	241	-2.5	94	-3.4	0	0	975.0	NA	0.0000		9999	2490	0	0	0
2017/06/27 08:21:00	BASE	4.25	251	6.17	241	-2.5	94	-3.3	0	0	974.9	NA	0.0000		9999	2430	0	0	0
2017/06/27 08:22:00	BASE	4.38	250	6.17	241	-2.5	94	-3.3	0	0	975.0	NA	0.0000		9999	2230	0	0	0
2017/06/27 08:23:00	BASE	4.64	250	6.17	241	-2.5	94	-3.3	0	0	974.9	NA	0.0000		9999	2130	2790	0	0
2017/06/27 08:24:00	BASE	4.94	254	6.12	268	-2.5	94	-3.3	0	0	974.9	NA	0.0000		9999	2620	0	0	0
2017/06/27 08:25:00	BASE	5.01	255	6.12	268	-2.5	94	-3.3	0	0	974.9	NA	0.0000		9999	2460	0	0	0
2017/06/27 08:26:00	BASE	4.79	248	6.12	268	-2.4	94	-3.2	0	0	974.9	NA	0.0000		9999	2560	0	0	0
2017/06/27 08:27:00	BASE	5.19	247	8.08	237	-2.4	94	-3.2	0	0	974.9	NA	0.0000		9999	2300	0	0	0
2017/06/27 08:28:00	BASE	6.14	245	8.08	237	-2.3	94	-3.2	0	0	974.9	NA	0.0000		9999	2360	0	0	0
2017/06/27 08:29:00	BASE	6.53	240	8.08	237	-2.3	94	-3.2	0	0	974.8	NA	0.0000		9999	2300	0	0	0
2017/06/27 08:30:00	BASE	6.30	239	8.08	237	-2.3	93	-3.3	0	0	974.9	NA	0.0000		9999	2660	0	0	0
2017/06/27 08:31:00	BASE	6.39	238	8.08	237	-2.3	93	-3.3	0	0	974.9	NA	0.0000		9999	2920	0	0	0
2017/06/27 08:32:00	BASE	6.28	239	8.08	237	-2.4	92	-3.4	0	0	974.9	NA	0.0000		9999	2400	0	0	0
2017/06/27 08:33:00	BASE	5.73	246	8.08	237	-2.4	92	-3.5	0	0	974.9	NA	0.0000		9999	2230	0	0	0
2017/06/27 08:34:00	BASE	6.06	254	8.08	237	-2.3	92	-3.5	0	0	974.9	NA	0.0000		9999	2990	0	0	0
2017/06/27 08:35:00	BASE	7.19	257	9.52	247	-2.3	91	-3.5	0	0	974.8	NA	0.0000		9999	2990	0	0	0
2017/06/27 08:36:00	BASE	7.93	257	9.52	247	-2.3	91	-3.6	0	0	974.8	NA	0.0000		9999	3020	0	0	0
2017/06/27 08:37:00	BASE	8.00	260	9.52	263	-2.2	90	-3.6	0	0	974.7	NA	0.0000		9999	3050	0	0	0
2017/06/27 08:38:00	BASE	8.49	260	9.57	249	-2.2	89	-3.7	0	0	974.7	NA	0.0000		9999	2070	0	0	0
2017/06/27 08:39:00	BASE	8.57	260	9.57	249	-2.1	88	-3.8	0	0	974.7	NA	0.0000		9999	2130	3020	0	0
2017/06/27 08:40:00	BASE	8.11	262	9.62	263	-2.1	88	-3.8	0	0	974.7	NA	0.0000		9999	3050	0	0	0
2017/06/27 08:41:00	BASE	8.53	263	9.72	268	-2.1	88	-3.9	0	0	974.6	NA	0.0000		9999	3050	0	0	0
2017/06/27 08:42:00	BASE	8.96	263	9.72	268	-2.0	87	-3.9	0	0	974.7	NA	0.0000		9999	1900	3180	0	0
2017/06/27 08:43:00	BASE	8.73	264	9.77	263	-2.0	87	-3.9	0	0	974.6	NA	0.0000		9999	1870	3250	0	0
2017/06/27 08:44:00	BASE	8.97	266	10.75	255	-2.0	87	-3.9	0	0	974.6	NA	0.0000		9999	1900	0	0	0
2017/06/27 08:45:00	BASE	9.40	267	10.75	255	-2.0	87	-3.9	0	0	974.5	NA	0.0000		9999	2430	3280	0	0
2017/06/27 08:46:00	BASE	9.74	265	11.27	268	-2.0	87	-3.9	0	0	974.5	NA	0.0000		9999	3250	0	0	0
2017/06/27 08:47:00	BASE	9.36	264	11.27	268	-2.0	87	-4.0	0	0	974.6	NA	0.0000		9999	3250	0	0	0
2017/06/27 08:48:00	BASE	8.61	263	11.27	268	-2.0	86	-4.0	0	0	974.6	NA	0.0000		9999	3310	0	0	0
2017/06/27 08:49:00	BASE	8.51	264	11.27	268	-2.0	86	-4.0	0	0	974.6	NA	0.0000		9999	3350	0	0	0
2017/06/27 08:50:00	BASE	8.78	267	11.27	268	-2.0	86	-4.0	0	0	974.5	NA	0.0000		9999	3450	0	0	0
2017/06/27 08:51:00	BASE	8.57	269	11.27	268	-2.0	86	-4.0	0	0	974.6	NA	0.0000		9999	3450	0	0	0
2017/06/27 08:52:00	BASE	9.15	270	11.27	268	-2.0	86	-3.9	0	0	974.5	NA	0.0000		9999	3510	0	0	0
2017/06/27 08:53:00	BASE	9.74	270	11.27	268	-2.0	86	-4.0	0	0	974.6	NA	0.0000		9999	3480	0	0	0
2017/06/27 08:54:00	BASE	8.51	270	11.27	268	-2.0	86	-4.0	0	0	974.7	NA	0.0000		9999	3610	0	0	0
2017/06/27 08:55:00	BASE	8.00	273	11.27	268	-2.0	86	-4.0	0	0	974.7	NA	0.0000		9999	3640	0	0	0
2017/06/27 08:56:00	BASE	8.91	273	10.75	270	-2.0	86	-4.0	0	0	974.6	NA	0.0000		9999	3610	0	0	0
2017/06/27 08:57:00	BASE	9.40	270	10.75	270	-1.9	86	-4.0	0	0	974.7	NA	0.0000		9999	4000	0	0	0
2017/06/27 08:58:00	BASE	8.83	271	10.75	270	-1.9	86	-4.0	0	0	974.8	NA	0.0000		9999	3810	0	0	0
2017/06/27 08:59:00	BASE	8.39	274	10.75	270	-1.9	85	-4.0	0	0	974.8	NA	0.0000		9999	1900	3970	0	0
2017/06/27 09:00:00	BASE	8.22	275	10.75	270	-1.9	85	-4.1	0	0	974.9	NA	0.0000		9999	1900	0	0	0
2017/06/27 09:01:00	BASE	8.70	275	10.75	270	-1.9	85	-4.1	0	0	974.9	NA	0.0000		9999	1840	4100	0	0
2017/06/27 09:02:00	BASE	9.51	273	10.60	269	-1.9	85	-4.1	0	0	974.9	NA	0.0000		9999	2030	4040	0	0
2017/06/27 09:03:00	BASE	9.18	273	10.60	269	-1.9	84	-4.2	0	0	975.1	NA	0.0000		9999	2000	4000	0	0
2017/06/27 09:04:00	BASE	8.36	273	10.60	269	-1.9	84	-4.2	0	0	975.1	NA	0.0000		9999	3940	0	0	0
2017/06/27 09:05:00	BASE	8.10	270	10.60	269	-1.9	84	-4.2	0	0	975.1	NA	0.0000		9999	4070	0	0	0
2017/06/27 09:06:00	BASE	7.81	269	10.60	269	-1.9	84	-4.2	0	0	975.2	NA	0.0000		9999	1800	3940	0	0
2017/06/27 09:07:00	BASE	7.93	270	10.60	269	-1.9	84	-4.2	0	0	975.1	NA	0.0000		9999	3940	0	0	0
2017/06/27 09:08:00	BASE	8.15	266	10.60	269	-1.9	84	-4.2	0	0	975.1	NA	0.0000		9999	1940	4000	0	0
2017/06/27 09:09:00	BASE	7.93	263	10.60	269	-1.8	84	-4.1	0	0	975.1	NA	0.0000		9999	4230	0	0	0
2017/06/27 09:10:00	BASE	7.61	266	10.60	269	-1.8	84	-4.1	0	0	975.1	NA	0.0000		9999	4300	0	0	0
2017/06/27 09:11:00	BASE	6.90	271	10.60	269	-1.8	84	-4.1	0	0	975.1	NA	0.0000		9999	4330	0	0	0
2017/06/27 09:12:00	BASE	6.99	267	9.57	273	-1.8	84	-4.1	0	0	975.1	NA	0.0000		9999	4360	0	0	0
2017/06/27 09:13:00	BASE	7.39	266	9.41	264	-1.8	84	-4.1	0	0	975.0	NA	0.0000		9999	4360	0	0	0
2017/06/27 09:14:00	BASE	7.82	271	9.41	264	-1.8	84	-4.2	0	0	974.9	NA	0.0000		9999	4430	0	0	0
2017/06/27 09:15:00	BASE	7.81	272	9.41	264	-1.8	84	-4.2	0	0	974.9	NA	0.0000		9999	4400	0	0	0
2017/06/27 09:16:01	BASE	7.33	270	9.41	264	-1.8	84	-4.2	0	0	974.9	NA	0.0000		9999	4360	0	0	0
2017/06/27 09:17:00	BASE	7.89	269	9.77	268	-1.8	83	-4.2	0	0	974.8	NA	0.0000		9999	4270	0	0	0
2017/06/27 09:18:00	BASE	8.37	271	9.77	268	-1.8	83	-4.2	0	0	974.8	NA	0.0000		9999	4360	0	0	0
2017/06/27 09:19:00	BASE	8.03	270	9.77	268	-1.8	83	-4.3	0	0	974.8	NA	0.0000		9999	4460	0	0	0
2017/06/27 09:20:00	BASE	7.91	271	9.77	268	-1.8	83	-4.3	0	0	974.7	NA	0.0000		9999	4490	0	0	0
2017/06/27 09:21:00	BASE	8.25	275	9.77	268	-1.8	82	-4.4	0	0	974.7	NA	0.0000		9999	4360	0	0	0
2017/06/27 09:22:00	BASE	8.03	275	9.77	268	-1.7	82	-4.4	0	0	974.8	NA	0.0000		9999	4330	0	0	0
2017/06/27 09:23:00	BASE	7.35	273	9.77	268	-1.7	81	-4.5	0	0	974.8	NA	0.0000		9999	4490	0	0	0
2017/06/27 09:24:00	BASE	6.96	272	9.77	268	-1.7	81	-4.5	0	0	974.8	NA	0.0000		9999	4430	0	0	0
2017/06/27 09:25:00	BASE	7.00	273	9.77	268	-1.7	81	-4.5	0	0	974.8	NA	0.0000		9999	4130	4690	0	0
2017/06/27 09:26:00	BASE	7.26	275	9.77	268	-1.7	81	-4.6	0	0	974.8	NA	0.0000		9999	4130	0	0	0
2017/06/27 09:27:00	BASE	7.47	273	9.62	271	-1.7	80	-4.6	0	0	974.8	NA	0.0000		9999	4200	0	0	0
2017/06/27 09:28:00	BASE	7.48	267	9.52	268	-1.7	80	-4.6	0	0	974.8	NA	0.0000		9999	4530	0	0	0
2017/06/27 09:29:00	BASE	7.38	264	9.52	268	-1.7	80	-4.7	0	0	974.8	NA	0.0000		9999	4360	0	0	0
2017/06/27 09:30:00	BASE	7.56	267	9.52	268	-1.6	80	-4.7	0	0	974.8	NA	0.0000		9999	4400	0	0	0
2017/06/27 09:31:00	BASE	7.05	267	9.11	265	-1.6	79	-4.7	0	0	974.7	NA	0.0000		9999	4230	0	0	0
2017/06/27 09:32:00	BASE	7.10	270	9.11	265	-1.6	79	-4.7	0	0	974.7	NA	0.0000		9999	4070	0	0	0
2017/06/27 09:33:00	BASE	8.09	271	9.31	266	-1.6	79	-4.7	0	0	974.6	NA	0.0000		9999	4200	0	0	0
2017/06/27 09:34:00	BASE	7.76	269	9.62	270	-1.6	79	-4.7	0	0	974.6	NA	0.0000		9999	4230	0	0	0
2017/06/27 09:35:00	BASE	8.12	270	9.83	270	-1.6	79	-4.7	0	0	974.5	NA	0.0000		9999	4070	0	0	0
2017/06/27 09:36:00	BASE	8.62	272	9.83	270	-1.6	79	-4.7	0	0	974.6	NA	0.0000		9999	3940	0	0	0
2017/06/27 09:37:00	BASE	7.82	274	9.83	270	-1.6	79	-4.7	0	0	974.6	NA	0.0000		9999	3940	0	0	0
2017/06/27 09:38:00	BASE	7.54	274	9.83	270	-1.6	79	-4.7	0	0	974.6	NA	0.0000		9999	3670	0	0	0
2017/06/27 09:39:00	BASE	8.37	272	9.83	270	-1.6	79	-4.8	0	0	974.5	NA	0.0000		9999	3810	0	0	0
2017/06/27 09:40:00	BASE	8.81	271	9.83	270	-1.6	79	-4.8	0	0	974.6	NA	0.0000		9999	3840	0	0	0
2017/06/27 09:41:00	BASE	7.85	269	9.83	270	-1.6	79	-4.8	0	0	974.6	NA	0.0000		9999	3740	0	0	0
2017/06/27 09:42:00	BASE	7.80	271	9.83	270	-1.6	79	-4.7	0	0	974.6	NA	0.0000		9999	3770	0	0	0
2017/06/27 09:43:00	BASE	8.66	272	9.83	269	-1.6	79	-4.7	0	0	974.5	NA	0.0000		9999	3580	0	0	0
2017/06/27 09:44:00	BASE	8.57	270	9.83	269	-1.6	79	-4.7	0	0	974.5	NA	0.0000		9999	3770	0	0	0
2017/06/27 09:45:00	BASE	8.51	270	9.83	269	-1.6	79	-4.7	0	0	974.5	NA	0.0000		9999	3770	0	0	0
2017/06/27 09:46:00	BASE	8.71	271	9.83	269	-1.6	79	-4.8	0	0	974.6	NA	0.0000		9999	3640	0	0	0
2017/06/27 09:47:00	BASE	8.33	273	9.83	269	-1.6	79	-4.8	0	0	974.6	NA	0.0000		9999	3580	0	0	0
2017/06/27 09:48:00	BASE	8.31	273	9.83	269	-1.6	78	-4.9	0	0	974.6	NA	0.0000		9999	3540	0	0	0
2017/06/27 09:49:00	BASE	8.63	270	9.83	269	-1.6	78	-4.9	0	0	974.6	NA	0.0000		9999	3580	0	0	0
2017/06/27 09:50:00	BASE	8.82	269	10.08	271	-1.6	78	-4.9	0	0	974.6	NA	0.0000		9999	3540	0	0	0
2017/06/27 09:51:00	BASE	8.69	267	10.08	271	-1.6	78	-5.0	0	0	974.6	NA	0.0000		9999	3580	0	0	0
2017/06/27 09:52:00	BASE	7.88	266	10.08	271	-1.6	78	-5.0	0	0	974.7	NA	0.0000		9999	3580	0	0	0
2017/06/27 09:53:00	BASE	7.82	267	10.08	271	-1.6	78	-5.0	0	0	974.7	NA	0.0000		9999	3540	0	0	0
2017/06/27 09:54:00	BASE	8.36	266	10.08	271	-1.6	78	-5.0	0	0	974.8	NA	0.0000		9999	3450	0	0	0
2017/06/27 09:55:00	BASE	7.97	266	10.08	271	-1.6	77	-5.0	0	0	974.8	NA	0.0000		9999	3510	0	0	0
2017/06/27 09:56:00	BASE	7.77	268	10.08	271	-1.6	77	-5.0	0	0	974.7	NA	0.0000		9999	3640	0	0	0
2017/06/27 09:57:00	BASE	7.97	266	10.08	271	-1.6	77	-5.1	0	0	974.7	NA	0.0000		9999	3640	0	0	0
2017/06/27 09:58:00	BASE	7.30	267	10.08	271	-1.6	77	-5.1	0	0	974.8	NA	0.0000		9999	3710	0	0	0
2017/06/27 09:59:00	BASE	6.91	269	10.08	271	-1.6	77	-5.0	0	0	974.7	NA	0.0000		9999	3740	0	0	0
2017/06/27 10:00:00	BASE	7.19	267	9.77	262	-1.6	77	-5.0	0	0	974.7	NA	0.0000		9999	3640	0	0	0
2017/06/27 10:01:00	BASE	7.33	268	9.77	262	-1.5	78	-5.0	0	0	974.7	NA	0.0000		9999	3740	0	0	0
2017/06/27 10:02:00	BASE	7.09	272	9.77	262	-1.5	78	-4.9	0	0	974.7	NA	0.0000		9999	3710	0	0	0
2017/06/27 10:03:00	BASE	7.63	273	9.77	262	-1.5	78	-4.8	0	0	974.6	NA	0.0000		9999	3770	0	0	0
2017/06/27 10:04:00	BASE	8.21	271	9.11	273	-1.6	78	-4.9	0	0	974.7	NA	0.0000		9999	3770	0	0	0
2017/06/27 10:05:00	BASE	7.90	271	9.11	273	-1.5	78	-4.9	0	0	974.7	NA	0.0000		9999	3840	0	0	0
2017/06/27 10:06:00	BASE	7.20	274	9.11	273	-1.5	78	-4.8	0	0	974.7	NA	0.0000		9999	3810	0	0	0
2017/06/27 10:07:00	BASE	6.86	276	9.11	273	-1.6	78	-4.8	0	0	974.7	NA	0.0000		9999	3940	0	0	0
2017/06/27 10:08:00	BASE	7.13	275	9.11	273	-1.6	79	-4.8	0	0	974.7	NA	0.0000		9999	4040	0	0	0
2017/06/27 10:09:00	BASE	7.37	276	9.11	273	-1.6	79	-4.8	0	0	974.8	NA	0.0000		9999	3870	0	0	0
2017/06/27 10:10:00	BASE	8.21	277	10.13	273	-1.6	79	-4.8	0	0	974.7	NA	0.0000		9999	3870	0	0	0
2017/06/27 10:11:00	BASE	8.65	276	10.13	273	-1.6	79	-4.8	0	0	974.8	NA	0.0000		9999	3840	0	0	0
2017/06/27 10:12:00	BASE	8.32	274	10.13	273	-1.6	78	-4.9	0	0	974.8	NA	0.0000		9999	3940	0	0	0
2017/06/27 10:13:00	BASE	7.81	276	10.13	273	-1.6	78	-4.9	0	0	974.8	NA	0.0000		9999	3970	0	0	0
2017/06/27 10:14:00	BASE	7.63	277	10.13	273	-1.6	78	-5.0	0	0	974.8	NA	0.0000		9999	4000	0	0	0
2017/06/27 10:15:00	BASE	7.58	274	10.13	273	-1.6	77	-5.0	0	0	974.8	NA	0.0000		9999	3840	0	0	0
2017/06/27 10:16:00	BASE	7.19	276	10.13	273	-1.6	77	-5.1	0	0	974.8	NA	0.0000		9999	2300	3740	0	0
2017/06/27 10:17:00	BASE	6.83	277	10.13	273	-1.6	77	-5.0	0	0	974.9	NA	0.0000		9999	2000	2530	0	0
2017/06/27 10:18:00	BASE	7.76	275	10.34	274	-1.6	77	-5.0	0	0	974.7	NA	0.0000		9999	1740	3770	0	0
2017/06/27 10:19:00	BASE	8.99	275	10.34	274	-1.6	78	-4.9	0	0	974.6	NA	0.0000		9999	1710	2260	0	0
2017/06/27 10:20:00	BASE	8.41	276	10.34	274	-1.6	79	-4.8	0	0	974.7	NA	0.0000		9999	2100	3670	0	0
2017/06/27 10:21:00	BASE	7.61	276	10.34	274	-1.6	79	-4.7	0	0	974.8	NA	0.0000		9999	3670	0	0	0
2017/06/27 10:22:00	BASE	7.92	276	10.34	274	-1.6	80	-4.6	0	0	974.8	NA	0.0000		9999	2460	3670	0	0
2017/06/27 10:23:00	BASE	8.62	278	10.34	274	-1.6	81	-4.5	0	0	974.7	NA	0.0000		9999	3710	0	0	0
2017/06/27 10:24:00	BASE	8.85	277	10.34	274	-1.7	81	-4.4	0	0	974.7	NA	0.0000		9999	2400	3710	0	0
2017/06/27 10:25:00	BASE	8.47	276	10.34	274	-1.7	82	-4.4	0	0	974.8	NA	0.0000		9999	3640	0	0	0
2017/06/27 10:26:00	BASE	8.21	276	10.34	274	-1.7	82	-4.4	0	0	974.7	NA	0.0000		9999	2300	3710	0	0
2017/06/27 10:27:00	BASE	8.09	276	10.34	274	-1.7	82	-4.4	0	0	974.7	NA	0.0000		9999	3840	0	0	0
2017/06/27 10:28:00	BASE	8.42	277	9.93	273	-1.7	82	-4.4	0	0	974.7	NA	0.0000		9999	2690	4070	0	0
2017/06/27 10:29:00	BASE	8.56	276	9.83	276	-1.7	82	-4.4	0	0	974.7	NA	0.0000		9999	2720	3940	0	0
2017/06/27 10:30:00	BASE	7.81	278	9.83	276	-1.7	82	-4.4	0	0	974.8	NA	0.0000		9999	2820	4000	0	0
2017/06/27 10:31:00	BASE	7.54	282	9.83	276	-1.7	82	-4.4	0	0	974.7	NA	0.0000		9999	4040	0	0	0
2017/06/27 10:32:00	BASE	8.17	279	10.24	270	-1.7	82	-4.4	0	0	974.7	NA	0.0000		9999	4270	0	0	0
2017/06/27 10:33:00	BASE	8.93	276	10.24	270	-1.7	82	-4.4	0	0	974.6	NA	0.0000		9999	1510	0	0	0
2017/06/27 10:34:00	BASE	9.31	277	10.24	270	-1.7	82	-4.4	0	0	974.6	NA	0.0000		9999	1570	4040	0	0
2017/06/27 10:35:00	BASE	8.93	277	10.24	270	-1.7	82	-4.4	0	0	974.6	NA	0.0000		9999	1970	2660	0	0
2017/06/27 10:36:00	BASE	8.41	276	10.24	270	-1.8	82	-4.4	0	0	974.6	NA	0.0000		9999	1510	2300	0	0
2017/06/27 10:37:00	BASE	8.71	274	10.24	270	-1.8	82	-4.4	0	0	974.6	NA	0.0000		9999	1770	3180	0	0
2017/06/27 10:38:00	BASE	9.17	272	10.34	270	-1.8	82	-4.5	0	0	974.6	NA	0.0000		9999	4070	0	0	0
2017/06/27 10:39:00	BASE	8.51	275	10.34	270	-1.8	82	-4.4	0	0	974.7	NA	0.0000		9999	3670	0	0	0
2017/06/27 10:40:00	BASE	8.06	277	10.34	270	-1.8	82	-4.4	0	0	974.7	NA	0.0000		9999	3710	0	0	0
2017/06/27 10:41:00	BASE	8.66	273	10.34	270	-1.8	83	-4.4	0	0	974.7	NA	0.0000		9999	1310	3870	0	0
2017/06/27 10:42:00	BASE	8.25	272	10.34	270	-1.8	83	-4.3	0	0	974.7	NA	0.0000		9999	1250	3710	0	0
2017/06/27 10:43:00	BASE	8.17	271	10.34	270	-1.8	83	-4.3	0	0	974.6	NA	0.0000		9999	1250	0	0	0
2017/06/27 10:44:00	BASE	8.84	270	10.34	270	-1.8	84	-4.2	0	0	974.7	NA	0.0000		9999	3350	0	0	0
2017/06/27 10:45:00	BASE	8.63	270	10.34	270	-1.8	84	-4.2	0	0	974.7	NA	0.0000		9999	3150	0	0	0
2017/06/27 10:46:00	BASE	7.79	267	10.34	270	-1.9	84	-4.2	0	0	974.7	NA	0.0000		9999	3310	0	0	0
2017/06/27 10:47:00	BASE	7.45	265	10.34	270	-1.9	84	-4.3	0	0	974.8	NA	0.0000		9999	3280	0	0	0
2017/06/27 10:48:00	BASE	8.03	266	9.88	268	-1.9	84	-4.3	0	0	974.7	NA	0.0000		9999	3350	0	0	0
2017/06/27 10:49:00	BASE	7.35	265	9.88	268	-2.0	84	-4.2	0	0	974.8	NA	0.0000		9999	3280	0	0	0
2017/06/27 10:50:00	BASE	6.93	267	9.88	268	-2.0	85	-4.2	0	0	974.7	NA	0.0000		9999	2690	0	0	0
2017/06/27 10:51:00	BASE	7.67	268	9.88	268	-2.0	85	-4.2	0	0	974.7	NA	0.0000		9000	2530	0	0	0
2017/06/27 10:52:00	BASE	7.64	270	9.88	268	-2.0	85	-4.2	0	0	974.7	NA	0.0000		9999	2430	0	0	0
2017/06/27 10:53:00	BASE	7.58	273	9.83	274	-2.0	85	-4.2	0	0	974.7	NA	0.0000		9999	1350	0	0	0
2017/06/27 10:54:00	BASE	7.24	276	9.83	274	-2.0	85	-4.2	0	0	974.8	NA	0.0000		9999	2590	0	0	0
2017/06/27 10:55:00	BASE	6.99	280	9.41	261	-2.0	85	-4.3	0	0	974.8	NA	0.0000		9999	2590	0	0	0
2017/06/27 10:56:00	BASE	7.19	279	9.41	261	-2.0	85	-4.3	0	0	974.8	NA	0.0000		9999	2760	0	0	0
2017/06/27 10:57:00	BASE	6.95	278	9.41	261	-2.0	84	-4.3	0	0	974.9	NA	0.0000		9999	2000	0	0	0
2017/06/27 10:58:00	BASE	7.03	279	8.75	272	-2.0	84	-4.4	0	0	974.8	NA	0.0000		9999	2850	0	0	0
2017/06/27 10:59:00	BASE	7.30	278	8.75	272	-2.0	83	-4.4	0	0	974.9	NA	0.0000		9999	1640	2920	0	0
2017/06/27 11:00:00	BASE	6.87	276	8.64	273	-2.0	83	-4.4	0	0	974.9	NA	0.0000		9999	2260	2920	0	0
2017/06/27 11:01:00	BASE	6.56	279	8.64	273	-1.9	83	-4.4	0	0	974.9	NA	0.0000		9999	1640	0	0	0
2017/06/27 11:02:00	BASE	6.54	280	8.64	273	-1.9	83	-4.4	0	0	974.9	NA	0.0000		9999	1440	2430	0	0
2017/06/27 11:03:00	BASE	6.58	279	8.33	278	-1.9	83	-4.3	0	0	974.9	NA	0.0000		9999	1380	0	0	0
2017/06/27 11:04:00	BASE	6.98	282	8.33	278	-1.8	83	-4.3	0	0	974.9	NA	0.0000		9999	1410	0	0	0
2017/06/27 11:05:00	BASE	7.35	282	8.33	278	-1.9	84	-4.3	0	0	974.9	NA	0.0000		9999	1770	0	0	0
2017/06/27 11:06:00	BASE	7.19	284	8.33	278	-1.9	84	-4.3	0	0	974.9	NA	0.0000		9999	1570	2130	0	0
2017/06/27 11:07:00	BASE	7.22	286	8.54	287	-1.9	84	-4.3	0	0	974.9	NA	0.0000		9999	1250	0	0	0
2017/06/27 11:08:00	BASE	8.00	286	8.95	285	-2.0	84	-4.3	0	0	974.8	NA	0.0000		9999	2360	0	0	0
2017/06/27 11:09:00	BASE	8.36	286	8.95	285	-2.0	84	-4.3	0	0	974.9	NA	0.0000		9999	2530	0	0	0
2017/06/27 11:10:00	BASE	7.74	284	8.95	285	-2.0	85	-4.3	0	0	974.9	NA	0.0000		9999	2100	0	0	0
2017/06/27 11:11:00	BASE	7.25	283	8.95	285	-2.0	85	-4.2	0	0	974.9	NA	0.0000		9999	2430	0	0	0
2017/06/27 11:12:00	BASE	6.85	282	8.95	285	-2.1	85	-4.2	0	0	974.9	NA	0.0000		9999	2330	0	0	0
2017/06/27 11:13:00	BASE	6.16	284	8.95	285	-2.1	85	-4.2	0	0	974.9	NA	0.0000		9999	2170	0	0	0
2017/06/27 11:14:00	BASE	5.75	284	8.95	285	-2.0	85	-4.2	0	0	974.9	NA	0.0000		9999	2200	2920	0	0
2017/06/27 11:15:00	BASE	6.14	282	8.95	285	-2.0	86	-4.1	0	0	974.8	NA	0.0000		9999	1480	2690	0	0
2017/06/27 11:16:00	BASE	6.10	282	8.95	285	-2.0	86	-4.1	0	0	974.8	NA	0.0000		9999	1350	1870	0	0
2017/06/27 11:17:00	BASE	5.25	282	8.95	285	-2.0	86	-4.0	0	0	974.8	NA	0.0000		9999	1740	2400	0	0
2017/06/27 11:18:00	BASE	5.53	281	8.75	286	-2.0	86	-4.0	0	0	974.8	NA	0.0000		9999	1940	2460	0	0
2017/06/27 11:19:00	BASE	5.78	282	7.87	284	-2.0	85	-4.1	0	0	974.8	NA	0.0000		9999	1740	2400	0	0
2017/06/27 11:20:00	BASE	5.98	281	7.87	284	-1.9	85	-4.1	0	0	974.8	NA	0.0000		9999	1020	0	0	0
2017/06/27 11:21:00	BASE	6.72	276	7.97	269	-1.9	85	-4.1	0	0	974.8	NA	0.0000		9999	3120	0	0	0
2017/06/27 11:22:00	BASE	7.24	273	8.08	274	-2.0	85	-4.2	0	0	974.7	NA	0.0000		9999	3150	0	0	0
2017/06/27 11:23:00	BASE	7.81	275	8.49	279	-2.0	84	-4.3	0	0	974.7	NA	0.0000		9999	3180	0	0	0
2017/06/27 11:24:00	BASE	7.78	277	8.49	279	-2.0	84	-4.4	0	0	974.7	NA	0.0000		9999	2760	3480	0	0
2017/06/27 11:25:00	BASE	7.07	279	8.49	279	-2.0	83	-4.4	0	0	974.8	NA	0.0000		9999	3220	0	0	0
2017/06/27 11:26:00	BASE	7.02	280	8.49	279	-2.0	83	-4.5	0	0	974.8	NA	0.0000		9999	2850	0	0	0
2017/06/27 11:27:00	BASE	7.32	279	8.49	279	-2.0	82	-4.6	0	0	974.8	NA	0.0000		9999	3050	0	0	0
2017/06/27 11:28:00	BASE	6.69	279	8.49	279	-1.9	82	-4.6	0	0	974.8	NA	0.0000		9999	2950	0	0	0
2017/06/27 11:29:00	BASE	6.17	277	8.49	279	-1.9	82	-4.6	0	0	974.8	NA	0.0000		9999	2760	0	0	0
2017/06/27 11:30:00	BASE	6.08	277	8.49	279	-1.9	82	-4.6	0	0	974.9	NA	0.0000		9999	2990	0	0	0
2017/06/27 11:31:00	BASE	6.06	278	8.49	279	-1.9	82	-4.6	0	0	974.9	NA	0.0000		9999	3250	0	0	0
2017/06/27 11:32:00	BASE	5.81	276	8.49	279	-1.9	82	-4.6	0	0	974.9	NA	0.0000		9999	3350	0	0	0
2017/06/27 11:33:00	BASE	5.88	274	8.13	279	-1.9	82	-4.6	0	0	974.9	NA	0.0000		9999	3220	0	0	0
2017/06/27 11:34:00	BASE	6.69	273	8.08	278	-1.9	82	-4.6	0	0	974.8	NA	0.0000		9999	2990	0	0	0
2017/06/27 11:35:00	BASE	6.61	272	8.08	278	-1.9	82	-4.7	0	0	974.9	NA	0.0000		9999	2950	0	0	0
2017/06/27 11:36:00	BASE	5.92	274	7.77	280	-1.9	81	-4.7	0	0	974.9	NA	0.0000		9999	2990	0	0	0
2017/06/27 11:37:00	BASE	5.91	276	7.61	278	-1.9	81	-4.7	0	0	974.8	NA	0.0000		9999	3120	0	0	0
2017/06/27 11:38:00	BASE	5.97	276	7.61	278	-2.0	81	-4.8	0	0	974.8	NA	0.0000		9999	3220	0	0	0
2017/06/27 11:39:00	BASE	5.75	278	7.61	278	-1.9	80	-4.9	0	0	974.8	NA	0.0000		9999	3150	0	0	0
2017/06/27 11:40:00	BASE	5.78	277	7.61	278	-1.9	80	-4.9	0	0	974.8	NA	0.0000		9999	3220	0	0	0
2017/06/27 11:41:00	BASE	5.75	276	7.61	278	-1.9	79	-5.0	0	0	974.8	NA	0.0000		9999	3580	0	0	0
2017/06/27 11:42:00	BASE	5.72	277	7.61	278	-1.9	79	-5.1	0	0	974.8	NA	0.0000		9999	3480	0	0	0
2017/06/27 11:43:00	BASE	5.49	278	7.61	278	-1.9	78	-5.2	0	0	974.9	NA	0.0000		9999	3580	0	0	0
2017/06/27 11:44:00	BASE	5.19	280	7.05	272	-1.9	78	-5.2	0	0	974.8	NA	0.0000		9999	3770	0	0	0
2017/06/27 11:45:00	BASE	5.20	281	7.05	272	-1.9	78	-5.2	0	0	974.8	NA	0.0000		9999	3580	0	0	0
2017/06/27 11:46:00	BASE	5.26	281	7.05	272	-1.9	78	-5.2	0	0	974.8	NA	0.0000		9999	3510	0	0	0
2017/06/27 11:47:00	BASE	5.47	281	7.05	272	-1.9	78	-5.2	0	0	974.8	NA	0.0000		9999	3580	0	0	0
2017/06/27 11:48:00	BASE	5.57	281	7.05	272	-1.9	78	-5.2	0	0	974.8	NA	0.0000		9999	3610	0	0	0
2017/06/27 11:49:00	BASE	5.51	280	7.05	272	-1.9	78	-5.2	0	0	974.8	NA	0.0000		9999	3810	0	0	0
2017/06/27 11:50:00	BASE	5.28	281	6.38	280	-1.8	78	-5.2	0	0	974.8	NA	0.0000		9999	3740	0	0	0
2017/06/27 11:51:00	BASE	5.16	280	6.22	282	-1.8	78	-5.2	0	0	974.8	NA	0.0000		9999	3580	0	0	0
2017/06/27 11:52:00	BASE	5.22	282	6.22	282	-1.8	78	-5.2	0	0	974.9	NA	0.0000		9999	2400	3540	0	0
2017/06/27 11:53:00	BASE	5.43	286	6.22	282	-1.8	78	-5.2	0	0	974.8	NA	0.0000		9999	2070	3480	0	0
2017/06/27 11:54:00	BASE	5.70	285	6.22	282	-1.8	78	-5.2	0	0	974.9	NA	0.0000		9999	2100	0	0	0
2017/06/27 11:55:00	BASE	5.75	284	6.28	281	-1.8	78	-5.1	0	0	974.9	NA	0.0000		9999	1900	0	0	0
2017/06/27 11:56:00	BASE	5.85	284	6.28	279	-1.8	78	-5.0	0	0	974.9	NA	0.0000		9999	1900	0	0	0
2017/06/27 11:57:00	BASE	6.06	289	6.69	293	-1.7	79	-5.0	0	0	975.0	NA	0.0000		9999	2400	0	0	0
2017/06/27 11:58:00	BASE	6.69	294	8.33	294	-1.7	79	-4.9	0	0	975.0	NA	0.0000		9999	2000	0	0	0
2017/06/27 11:59:00	BASE	7.62	296	8.39	292	-1.7	79	-4.8	0	0	974.9	NA	0.0000		9999	1970	0	0	0
2017/06/27 12:00:00	BASE	8.43	296	9.36	298	-1.7	79	-4.8	0	0	974.8	NA	0.0000		9999	2000	0	0	0
2017/06/27 12:01:00	BASE	8.84	295	9.67	294	-1.7	79	-4.9	0	0	974.8	NA	0.0000		9999	2460	0	0	0
2017/06/27 12:02:00	BASE	8.99	297	9.67	294	-1.7	78	-5.0	0	0	974.8	NA	0.0000		9999	2790	0	0	0
2017/06/27 12:03:00	BASE	9.18	298	9.93	296	-1.7	78	-5.1	0	0	974.7	NA	0.0000		9999	2990	0	0	0
2017/06/27 12:04:00	BASE	9.16	296	9.93	296	-1.7	77	-5.2	0	0	974.8	NA	0.0000		9999	3080	0	0	0
2017/06/27 12:05:00	BASE	9.14	294	10.03	295	-1.7	77	-5.2	0	0	974.8	NA	0.0000		9999	3250	0	0	0
2017/06/27 12:06:00	BASE	9.43	295	10.08	292	-1.7	77	-5.2	0	0	974.7	NA	0.0000		9999	2130	0	0	0
2017/06/27 12:07:00	BASE	9.49	295	10.08	292	-1.7	77	-5.2	0	0	974.8	NA	0.0000		9999	2230	3080	3740	0
2017/06/27 12:08:00	BASE	9.15	294	10.08	292	-1.7	77	-5.2	0	0	974.8	NA	0.0000		9999	3020	3740	0	0
2017/06/27 12:09:00	BASE	8.56	295	10.08	292	-1.7	77	-5.2	0	0	974.8	NA	0.0000		9999	3740	0	0	0
2017/06/27 12:10:00	BASE	8.30	296	10.08	292	-1.7	77	-5.2	0	0	974.8	NA	0.0000		9999	3710	0	0	0
2017/06/27 12:11:00	BASE	8.45	297	10.08	292	-1.7	77	-5.2	0	0	974.8	NA	0.0000		9999	3940	0	0	0
2017/06/27 12:12:00	BASE	8.43	296	10.08	292	-1.7	77	-5.2	0	0	974.8	NA	0.0000		9999	3770	0	0	0
2017/06/27 12:13:00	BASE	8.11	291	10.08	292	-1.7	77	-5.2	0	0	974.9	NA	0.0000		9999	3540	0	0	0
2017/06/27 12:14:00	BASE	7.91	288	10.08	292	-1.7	77	-5.2	0	0	974.9	NA	0.0000		9999	3540	0	0	0
2017/06/27 12:15:00	BASE	7.94	290	10.08	292	-1.7	77	-5.2	0	0	974.9	NA	0.0000		9999	3280	0	0	0
2017/06/27 12:16:00	BASE	7.77	292	9.93	295	-1.7	77	-5.2	0	0	974.9	NA	0.0000		9999	3380	0	0	0
2017/06/27 12:17:00	BASE	7.35	294	9.36	294	-1.7	77	-5.2	0	0	974.9	NA	0.0000		9999	3380	0	0	0
2017/06/27 12:18:00	BASE	7.13	295	9.36	294	-1.7	77	-5.2	0	0	974.9	NA	0.0000		9999	3610	0	0	0
2017/06/27 12:19:00	BASE	6.73	295	9.36	294	-1.7	77	-5.2	0	0	975.0	NA	0.0000		9999	3670	0	0	0
2017/06/27 12:20:00	BASE	6.43	294	9.21	299	-1.7	78	-5.1	0	0	975.0	NA	0.0000		9999	4040	0	0	0
2017/06/27 12:21:00	BASE	7.05	294	8.69	292	-1.7	78	-5.1	0	0	974.9	NA	0.0000		9999	4070	4660	0	0
2017/06/27 12:22:00	BASE	7.58	297	8.64	293	-1.7	78	-5.1	0	0	974.9	NA	0.0000		9999	4490	0	0	0
2017/06/27 12:23:00	BASE	7.59	299	8.64	293	-1.8	78	-5.1	0	0	974.9	NA	0.0000		9999	4360	0	0	0
2017/06/27 12:24:00	BASE	7.24	298	8.64	293	-1.8	78	-5.2	0	0	974.9	NA	0.0000		9999	4200	0	0	0
2017/06/27 12:25:00	BASE	6.85	298	8.23	294	-1.8	77	-5.2	0	0	974.9	NA	0.0000		9999	4100	0	0	0
2017/06/27 12:26:00	BASE	6.49	298	8.13	299	-1.8	77	-5.2	0	0	974.9	NA	0.0000		9999	4000	0	0	0
2017/06/27 12:27:00	BASE	6.11	297	8.13	299	-1.8	78	-5.2	0	0	974.9	NA	0.0000		9999	4000	0	0	0
2017/06/27 12:28:00	BASE	6.04	298	8.13	299	-1.8	78	-5.1	0	0	974.8	NA	0.0000		9999	3970	0	0	0
2017/06/27 12:29:00	BASE	5.91	303	8.13	299	-1.8	78	-5.0	0	0	974.9	NA	0.0000		9999	3940	0	0	0
2017/06/27 12:30:00	BASE	6.03	308	8.13	299	-1.8	79	-5.0	0	0	974.9	NA	0.0000		9999	1870	3900	0	0
2017/06/27 12:31:00	BASE	6.58	310	8.13	299	-1.8	79	-5.0	0	0	974.9	NA	0.0000		9999	3870	0	0	0
2017/06/27 12:32:00	BASE	6.73	310	7.97	294	-1.8	79	-5.0	0	0	974.9	NA	0.0000		9999	1800	3870	0	0
2017/06/27 12:33:00	BASE	6.66	311	7.97	294	-1.9	79	-5.0	0	0	974.9	NA	0.0000		9999	3900	0	0	0
2017/06/27 12:34:00	BASE	6.70	311	7.97	294	-1.9	79	-5.0	0	0	974.9	NA	0.0000		9999	3840	0	0	0
2017/06/27 12:35:00	BASE	6.74	310	7.51	305	-1.9	79	-5.0	0	0	974.9	NA	0.0000		9999	3740	0	0	0
2017/06/27 12:36:00	BASE	6.70	310	7.61	307	-1.9	79	-5.0	0	0	974.9	NA	0.0000		9999	3770	0	0	0
2017/06/27 12:37:00	BASE	6.36	311	7.61	307	-1.9	79	-5.0	0	0	974.9	NA	0.0000		9999	3670	0	0	0
2017/06/27 12:38:00	BASE	6.32	314	7.61	307	-1.9	79	-5.0	0	0	974.9	NA	0.0000		9999	3580	0	0	0
2017/06/27 12:39:00	BASE	6.52	316	7.61	307	-1.9	79	-5.1	0	0	974.9	NA	0.0000		9999	3580	0	0	0
2017/06/27 12:40:00	BASE	6.44	316	7.61	307	-1.9	79	-5.0	0	0	974.9	NA	0.0000		9999	3670	0	0	0
2017/06/27 12:41:00	BASE	6.19	316	7.61	307	-1.9	79	-5.0	0	0	974.9	NA	0.0000		9999	3580	0	0	0
2017/06/27 12:42:00	BASE	5.78	317	7.61	307	-1.9	79	-5.0	0	0	974.9	NA	0.0000		9999	3540	0	0	0
2017/06/27 12:43:00	BASE	6.10	316	7.61	307	-1.9	79	-5.0	0	0	974.9	NA	0.0000		9999	3540	0	0	0
2017/06/27 12:44:00	BASE	6.65	315	7.61	307	-1.9	79	-5.0	0	0	974.8	NA	0.0000		9999	3450	0	0	0
2017/06/27 12:45:00	BASE	6.64	316	7.61	307	-1.9	79	-5.0	0	0	974.8	NA	0.0000		9999	3410	0	0	0
2017/06/27 12:46:00	BASE	6.65	315	7.20	315	-1.9	79	-5.0	0	0	974.8	NA	0.0000		9999	3410	0	0	0
2017/06/27 12:47:00	BASE	6.71	315	7.20	315	-1.9	79	-5.1	0	0	974.8	NA	0.0000		9999	1970	3380	0	0
2017/06/27 12:48:00	BASE	6.58	315	7.20	315	-1.9	79	-5.1	0	0	974.8	NA	0.0000		9999	3410	0	0	0
2017/06/27 12:49:00	BASE	6.15	317	7.20	315	-1.9	78	-5.2	0	0	974.9	NA	0.0000		9999	3410	0	0	0
2017/06/27 12:50:00	BASE	5.73	317	7.20	315	-1.9	78	-5.2	0	0	974.9	NA	0.0000		9999	3480	0	0	0
2017/06/27 12:51:00	BASE	5.39	319	7.20	315	-1.9	78	-5.2	0	0	974.9	NA	0.0000		9999	3810	0	0	0
2017/06/27 12:52:00	BASE	5.49	319	7.20	315	-1.9	79	-5.1	0	0	974.9	NA	0.0000		9999	3710	0	0	0
2017/06/27 12:53:00	BASE	5.61	318	7.20	315	-1.9	79	-5.1	0	0	974.9	NA	0.0000		9999	3310	0	0	0
2017/06/27 12:54:00	BASE	5.33	320	7.20	315	-1.9	79	-5.0	0	0	974.8	NA	0.0000		9999	3220	0	0	0
2017/06/27 12:55:00	BASE	5.47	318	7.15	315	-1.9	79	-5.0	0	0	974.8	NA	0.0000		9999	3510	0	0	0
2017/06/27 12:56:00	BASE	5.68	316	7.15	315	-1.9	79	-5.0	0	0	974.8	NA	0.0000		9999	3450	0	0	0
2017/06/27 12:57:00	BASE	5.81	315	6.84	321	-1.9	79	-5.0	0	0	974.8	NA	0.0000		9999	3410	0	0	0
2017/06/27 12:58:00	BASE	5.67	316	6.84	321	-1.9	79	-5.0	0	0	974.8	NA	0.0000		9999	3280	0	0	0
2017/06/27 12:59:00	BASE	5.36	320	6.84	321	-1.9	79	-5.0	0	0	974.8	NA	0.0000		9999	3120	0	0	0
2017/06/27 13:00:00	BASE	5.32	325	6.84	321	-1.9	79	-5.0	0	0	974.8	NA	0.0000		9999	3480	0	0	0
2017/06/27 13:01:00	BASE	5.41	328	6.84	321	-1.9	80	-5.0	0	0	974.9	NA	0.0000		9999	3180	0	0	0
2017/06/27 13:02:00	BASE	5.50	329	6.38	311	-1.9	80	-5.0	0	0	974.9	NA	0.0000		9999	3050	0	0	0
2017/06/27 13:03:00	BASE	5.30	329	6.38	311	-2.0	80	-5.0	0	0	974.8	NA	0.0000		9999	2990	0	0	0
2017/06/27 13:04:00	BASE	5.33	331	6.38	311	-2.0	80	-4.9	0	0	974.8	NA	0.0000		9999	2990	0	0	0
2017/06/27 13:05:00	BASE	5.38	331	6.17	310	-2.0	80	-4.9	0	0	974.8	NA	0.0000		9999	2920	0	0	0
2017/06/27 13:06:00	BASE	5.12	332	6.17	310	-2.0	81	-4.9	0	0	974.8	NA	0.0000		9999	2890	0	0	0
2017/06/27 13:07:00	BASE	4.82	333	6.12	332	-2.0	81	-4.9	0	0	974.8	NA	0.0000		9999	2850	0	0	0
2017/06/27 13:08:00	BASE	4.89	333	6.12	332	-2.0	81	-4.9	0	0	974.8	NA	0.0000		9999	2920	0	0	0
2017/06/27 13:09:00	BASE	4.84	336	6.12	332	-2.1	81	-4.9	0	0	974.8	NA	0.0000		9999	2890	0	0	0
2017/06/27 13:10:00	BASE	4.51	337	6.12	332	-2.1	81	-5.0	0	0	974.8	NA	0.0000		9999	2890	0	0	0
2017/06/27 13:11:00	BASE	4.49	338	6.12	332	-2.1	80	-5.0	0	0	974.8	NA	0.0000		9999	2890	0	0	0
2017/06/27 13:12:00	BASE	4.67	340	6.12	332	-2.1	80	-5.1	0	0	974.8	NA	0.0000		9999	2850	0	0	0
2017/06/27 13:13:00	BASE	4.85	342	6.12	332	-2.1	80	-5.1	0	0	974.8	NA	0.0000		9999	2850	0	0	0
2017/06/27 13:14:00	BASE	4.71	346	5.92	331	-2.1	80	-5.1	0	0	974.8	NA	0.0000		9999	2820	0	0	0
2017/06/27 13:15:00	BASE	4.93	348	5.92	331	-2.2	80	-5.2	0	0	974.8	NA	0.0000		9999	2820	0	0	0
2017/06/27 13:16:00	BASE	4.92	345	5.92	331	-2.2	80	-5.2	0	0	974.8	NA	0.0000		9999	2820	0	0	0
2017/06/27 13:17:00	BASE	4.82	344	5.92	331	-2.2	80	-5.2	0	0	974.8	NA	0.0000		9999	2820	0	0	0
2017/06/27 13:18:00	BASE	5.14	345	5.71	346	-2.3	80	-5.2	0	0	974.8	NA	0.0000		9999	2820	0	0	0
2017/06/27 13:19:00	BASE	5.07	346	5.71	346	-2.3	80	-5.3	0	0	974.8	NA	0.0000		9999	2820	0	0	0
2017/06/27 13:20:00	BASE	4.73	345	5.71	346	-2.3	80	-5.2	0	0	974.8	NA	0.0000		9999	2820	0	0	0
2017/06/27 13:21:00	BASE	4.65	345	5.71	346	-2.3	80	-5.3	0	0	974.8	NA	0.0000		9999	2820	0	0	0
2017/06/27 13:22:00	BASE	4.94	347	5.71	346	-2.3	80	-5.3	0	0	974.7	NA	0.0000		9999	2790	0	0	0
2017/06/27 13:23:00	BASE	5.38	349	6.07	351	-2.3	80	-5.3	0	0	974.8	NA	0.0000		9999	2790	0	0	0
2017/06/27 13:24:00	BASE	5.49	349	6.07	351	-2.3	80	-5.2	0	0	974.8	NA	0.0000		9999	2760	0	0	0
2017/06/27 13:25:00	BASE	5.39	348	6.07	351	-2.3	80	-5.3	0	0	974.8	NA	0.0000		9999	2720	0	0	0
2017/06/27 13:26:00	BASE	5.34	345	6.07	351	-2.3	80	-5.3	0	0	974.8	NA	0.0000		9999	2720	0	0	0
2017/06/27 13:27:00	BASE	5.20	346	6.07	351	-2.3	80	-5.3	0	0	974.8	NA	0.0000		9999	2720	0	0	0
2017/06/27 13:28:00	BASE	5.11	345	6.07	351	-2.3	80	-5.3	0	0	974.8	NA	0.0000		9999	2620	0	0	0
2017/06/27 13:29:00	BASE	5.09	344	6.07	351	-2.3	80	-5.3	0	0	974.8	NA	0.0000		9999	2460	0	0	0
2017/06/27 13:30:00	BASE	5.17	343	6.07	345	-2.3	80	-5.2	0	0	974.8	NA	0.0000		9999	2300	0	0	0
2017/06/27 13:31:00	BASE	5.44	342	6.07	349	-2.3	81	-5.2	0	0	974.8	NA	0.0000		9999	2170	0	0	0
2017/06/27 13:32:00	BASE	5.49	344	6.07	349	-2.3	81	-5.1	1	0	974.8	NA	0.0000		9999	2070	0	0	0
2017/06/27 13:33:00	BASE	5.87	351	6.94	353	-2.2	81	-5.1	1	0	974.8	NA	0.0000		9999	1840	0	0	0
2017/06/27 13:34:00	BASE	6.43	353	6.94	350	-2.2	81	-5.0	1	0	974.7	NA	0.0000		9999	1640	0	0	0
2017/06/27 13:35:00	BASE	6.59	350	7.51	354	-2.2	81	-5.0	1	0	974.7	NA	0.0000		9999	1310	0	0	0
2017/06/27 13:36:00	BASE	6.89	353	7.51	354	-2.2	81	-5.0	1	0	974.7	NA	0.0000		9999	1180	0	0	0
2017/06/27 13:37:00	BASE	7.29	354	7.61	354	-2.2	81	-5.0	1	0	974.7	NA	0.0000		9999	1410	0	0	0
2017/06/27 13:38:00	BASE	7.40	354	7.97	40	-2.2	81	-5.0	1	0	974.6	NA	0.0000		9999	1150	0	0	0
2017/06/27 13:39:00	BASE	7.55	351	8.28	360	-2.2	81	-4.9	1	0	974.6	NA	0.0000		9999	980	0	0	0
2017/06/27 13:40:00	BASE	7.76	352	8.28	360	-2.2	82	-4.9	1	0	974.6	NA	0.0000		9999	620	0	0	0
2017/06/27 13:41:00	BASE	7.68	358	8.28	360	-2.2	82	-4.8	1	0	974.5	NA	0.0000		9999	460	0	0	0
2017/06/27 13:42:00	BASE	7.72	355	8.44	360	-2.3	83	-4.7	1	0	974.5	NA	0.0000		9999	460	0	0	0
2017/06/27 13:43:00	BASE	7.99	355	8.69	360	-2.3	85	-4.6	1	0	974.4	NA	0.0000		9999	430	0	0	0
2017/06/27 13:44:00	BASE	8.05	356	8.69	360	-2.4	86	-4.4	1	0	974.4	NA	0.0000		9999	390	0	0	0
2017/06/27 13:45:00	BASE	7.74	349	8.69	360	-2.5	88	-4.2	1	0	974.5	NA	0.0000		9999	390	0	0	0
2017/06/27 13:46:00	BASE	7.24	347	8.69	360	-2.5	89	-4.0	1	0	974.6	NA	0.0000		9999	390	0	0	0
2017/06/27 13:47:00	BASE	7.04	347	8.69	360	-2.5	91	-3.9	1	0	974.6	NA	0.0000		9999	390	0	0	0
2017/06/27 13:48:00	BASE	7.16	351	8.69	360	-2.5	91	-3.8	1	0	974.6	NA	0.0000		9999	360	0	0	0
2017/06/27 13:49:00	BASE	7.01	357	8.69	360	-2.5	92	-3.7	1	0	974.6	NA	0.0000		9999	360	0	0	0
2017/06/27 13:50:00	BASE	6.62	353	8.69	360	-2.6	92	-3.7	1	0	974.6	NA	0.0000		9999	360	0	0	0
2017/06/27 13:51:00	BASE	6.41	352	8.69	360	-2.6	92	-3.7	1	0	974.6	NA	0.0000		9999	390	0	0	0
2017/06/27 13:52:00	BASE	6.48	355	8.69	360	-2.6	92	-3.7	1	0	974.6	NA	0.0000		9999	390	0	0	0
2017/06/27 13:53:00	BASE	6.42	359	8.64	354	-2.6	92	-3.7	1	0	974.6	NA	0.0000		9999	390	0	0	0
2017/06/27 13:54:00	BASE	6.38	3	8.13	353	-2.6	92	-3.7	2	0	974.6	NA	0.0000		9999	430	2170	0	0
2017/06/27 13:55:00	BASE	6.46	4	7.82	353	-2.7	93	-3.7	2	0	974.7	NA	0.0000		9999	430	0	0	0
2017/06/27 13:56:00	BASE	6.47	4	7.82	353	-2.7	93	-3.7	2	0	974.6	NA	0.0000		9999	460	0	0	0
2017/06/27 13:57:00	BASE	6.25	5	7.82	353	-2.7	93	-3.7	2	0	974.6	NA	0.0000		9999	490	0	0	0
2017/06/27 13:58:00	BASE	6.02	5	7.56	2	-2.7	93	-3.7	2	0	974.6	NA	0.0000		9999	590	0	0	0
2017/06/27 13:59:00	BASE	5.71	5	7.56	2	-2.8	93	-3.7	2	0	974.6	NA	0.0000		9999	520	0	0	0
2017/06/27 14:00:00	BASE	5.66	7	7.56	2	-2.8	93	-3.8	2	0	974.6	NA	0.0000		9999	690	0	0	0
2017/06/27 14:01:00	BASE	6.18	8	7.56	2	-2.8	93	-3.8	2	0	974.5	NA	0.0000		9999	820	0	0	0
2017/06/27 14:02:00	BASE	6.40	4	7.56	2	-2.8	93	-3.8	2	0	974.6	NA	0.0000		9999	750	0	0	0
2017/06/27 14:03:00	BASE	6.30	1	7.56	2	-2.8	93	-3.8	2	0	974.6	NA	0.0000		9999	1510	0	0	0
2017/06/27 14:04:00	BASE	6.31	1	7.56	2	-2.8	93	-3.7	2	0	974.6	NA	0.0000		9999	0	0	0	2790
2017/06/27 14:05:00	BASE	6.57	2	7.46	2	-2.7	93	-3.7	2	0	974.6	NA	0.0000		9999	2170	0	0	0
2017/06/27 14:06:00	BASE	6.77	4	7.56	2	-2.7	93	-3.7	2	0	974.6	NA	0.0000		9999	690	2400	0	0
2017/06/27 14:07:00	BASE	6.79	3	7.56	2	-2.7	93	-3.7	2	0	974.6	NA	0.0000		9999	1670	0	0	0
2017/06/27 14:08:00	BASE	6.95	2	7.97	5	-2.7	93	-3.7	2	1	974.6	NA	0.0000		9999	1050	0	0	0
2017/06/27 14:09:00	BASE	6.90	4	7.97	5	-2.7	93	-3.7	2	1	974.6	NA	0.0000		9999	980	0	0	0
2017/06/27 14:10:00	BASE	7.00	4	7.97	5	-2.7	93	-3.6	2	0	974.5	NA	0.0000		9999	890	0	0	0
2017/06/27 14:11:00	BASE	7.00	3	7.97	5	-2.6	93	-3.6	2	1	974.6	NA	0.0000		9999	890	0	0	0
2017/06/27 14:12:00	BASE	7.13	3	8.08	1	-2.6	93	-3.6	2	0	974.5	NA	0.0000		9999	850	0	0	0
2017/06/27 14:13:00	BASE	7.49	3	8.08	1	-2.6	93	-3.6	2	1	974.6	NA	0.0000		9999	1080	0	0	0
2017/06/27 14:14:00	BASE	7.51	1	8.18	5	-2.6	93	-3.5	2	1	974.5	NA	0.0000		9999	1150	0	0	0
2017/06/27 14:15:00	BASE	7.31	359	8.18	5	-2.5	93	-3.5	2	1	974.5	NA	0.0000		9999	950	0	0	0
2017/06/27 14:16:00	BASE	6.91	0	8.18	5	-2.5	93	-3.5	2	1	974.5	NA	0.0000		9999	690	0	0	0
2017/06/27 14:17:00	BASE	6.94	2	8.18	5	-2.5	93	-3.5	2	1	974.4	NA	0.0000		9999	1120	0	0	0
2017/06/27 14:18:00	BASE	7.16	3	8.18	5	-2.5	93	-3.5	2	1	974.3	NA	0.0000		9999	0	0	0	2590
2017/06/27 14:19:00	BASE	7.17	2	8.18	5	-2.5	93	-3.5	2	2	974.2	NA	0.0000		9999	1540	0	0	0
2017/06/27 14:20:00	BASE	7.27	3	8.18	5	-2.5	93	-3.5	2	2	974.2	NA	0.0000		9999	920	0	0	0
2017/06/27 14:21:00	BASE	7.26	7	8.18	5	-2.5	93	-3.5	2	2	974.2	NA	0.0000		9999	690	0	0	0
2017/06/27 14:22:00	BASE	7.16	7	8.18	5	-2.5	93	-3.5	2	2	974.2	NA	0.0000		9999	590	0	0	0
2017/06/27 14:23:00	BASE	7.22	8	8.54	6	-2.5	92	-3.6	2	2	974.2	NA	0.0000		9999	690	0	0	0
2017/06/27 14:24:00	BASE	7.25	9	8.85	10	-2.5	92	-3.6	2	2	974.2	NA	0.0000		9999	1210	0	0	0
2017/06/27 14:25:00	BASE	8.08	10	9.52	3	-2.5	92	-3.6	2	2	974.1	NA	0.0000		9999	1250	0	0	0
2017/06/27 14:26:00	BASE	8.16	9	9.52	3	-2.5	92	-3.6	2	2	974.1	NA	0.0000		9999	1250	0	0	0
2017/06/27 14:27:00	BASE	7.52	8	9.52	3	-2.5	92	-3.6	2	2	974.1	NA	0.0000		9999	980	0	0	0
2017/06/27 14:28:00	BASE	7.65	10	9.52	3	-2.5	92	-3.6	2	3	974.1	NA	0.0000		9999	790	0	0	0
2017/06/27 14:29:00	BASE	7.35	10	9.52	3	-2.5	92	-3.6	2	3	974.1	NA	0.0000		9999	1210	0	0	0
2017/06/27 14:30:00	BASE	7.21	8	9.52	3	-2.5	92	-3.6	2	2	974.1	NA	0.0000		9999	720	0	0	0
2017/06/27 14:31:00	BASE	7.56	7	9.52	3	-2.5	92	-3.6	2	2	974.1	NA	0.0000		9999	1150	0	0	0
2017/06/27 14:32:00	BASE	7.56	7	9.52	3	-2.5	92	-3.6	2	3	974.1	NA	0.0000		9999	750	0	0	0
2017/06/27 14:33:00	BASE	7.33	8	9.52	3	-2.5	92	-3.6	3	3	974.1	NA	0.0000		9999	720	0	0	0
2017/06/27 14:34:00	BASE	7.60	7	9.52	3	-2.5	92	-3.6	3	3	974.1	NA	0.0000		9999	560	0	0	0
2017/06/27 14:35:00	BASE	7.46	5	9.05	6	-2.5	92	-3.6	3	3	974.1	NA	0.0000		9999	1020	0	0	0
2017/06/27 14:36:00	BASE	7.43	5	8.75	6	-2.4	91	-3.6	3	3	974.1	NA	0.0000		9999	1870	0	0	0
2017/06/27 14:37:00	BASE	8.12	5	8.95	10	-2.4	91	-3.6	3	3	974.1	NA	0.0000		9999	560	0	0	0
2017/06/27 14:38:00	BASE	7.85	5	8.95	10	-2.4	91	-3.7	3	3	974.1	NA	0.0000		9999	560	0	0	0
2017/06/27 14:39:00	BASE	7.44	6	8.95	10	-2.4	91	-3.6	3	4	974.0	NA	0.0000		9999	950	0	0	0
2017/06/27 14:40:00	BASE	7.52	5	8.95	10	-2.4	91	-3.6	3	4	974.1	NA	0.0000		9999	920	0	0	0
2017/06/27 14:41:00	BASE	7.68	5	8.95	10	-2.4	91	-3.6	3	4	974.1	NA	0.0000	UP	9999	430	0	0	0
2017/06/27 14:42:00	BASE	7.63	5	8.95	10	-2.4	91	-3.6	3	4	974.0	NA	0.0000	UP	9999	520	0	0	0
2017/06/27 14:43:00	BASE	7.48	5	8.95	10	-2.4	92	-3.6	3	4	974.1	NA	0.0000	UP	9999	750	0	0	0
2017/06/27 14:44:00	BASE	7.61	6	8.95	10	-2.4	92	-3.6	3	5	974.0	NA	0.0000	UP	9999	1770	0	0	0
2017/06/27 14:45:00	BASE	8.09	9	9.21	10	-2.4	92	-3.6	3	5	973.9	NA	0.0000	UP	9999	430	0	0	0
2017/06/27 14:46:00	BASE	8.18	10	9.21	10	-2.4	92	-3.5	4	6	973.9	NA	0.0000	UP	9999	390	0	0	0
2017/06/27 14:47:00	BASE	7.29	9	9.21	10	-2.4	92	-3.5	4	6	973.9	NA	0.0000	UP	9999	430	0	0	0
2017/06/27 14:48:00	BASE	6.99	11	9.21	10	-2.4	92	-3.5	4	6	973.9	NA	0.0000	UP	9999	430	0	0	0
2017/06/27 14:49:00	BASE	7.19	14	9.21	10	-2.4	92	-3.5	4	7	973.9	NA	0.0000	UP	9999	390	0	0	0
2017/06/27 14:50:00	BASE	7.02	13	9.21	10	-2.4	92	-3.5	4	7	973.9	NA	0.0000	UP	9999	430	0	0	0
2017/06/27 14:51:00	BASE	6.39	12	9.21	10	-2.4	92	-3.5	4	7	973.9	NA	0.0000	UP	9999	430	0	0	0
2017/06/27 14:52:00	BASE	6.23	8	9.21	10	-2.4	92	-3.5	4	7	973.8	NA	0.0000	UP	9999	460	0	0	0
2017/06/27 14:53:00	BASE	6.56	8	9.21	10	-2.4	92	-3.5	4	7	973.8	NA	0.0000	UP	9999	430	0	0	0
2017/06/27 14:54:00	BASE	6.39	7	9.21	10	-2.4	92	-3.5	4	7	973.8	NA	0.0000	UP	9999	390	0	0	0
2017/06/27 14:55:00	BASE	6.22	6	8.69	5	-2.4	92	-3.5	4	6	973.8	NA	0.0000	UP	9999	430	0	0	0
2017/06/27 14:56:00	BASE	6.33	8	8.69	5	-2.4	92	-3.5	4	7	973.7	NA	0.0000	UP	9999	430	0	0	0
2017/06/27 14:57:00	BASE	6.63	8	8.69	5	-2.4	92	-3.5	4	7	973.7	NA	0.0000	UP	9999	720	0	0	0
2017/06/27 14:58:00	BASE	7.08	7	8.69	5	-2.3	91	-3.6	4	7	973.7	NA	0.0000	UP	9999	720	0	0	0
2017/06/27 14:59:00	BASE	8.05	6	10.08	6	-2.3	91	-3.6	4	8	973.6	NA	0.0000	UP	9999	660	0	0	0
2017/06/27 15:00:00	BASE	9.09	8	10.70	11	-2.3	90	-3.6	4	8	973.5	NA	0.0000	UP	9999	460	0	0	0
2017/06/27 15:01:00	BASE	9.16	11	10.70	11	-2.2	90	-3.7	4	8	973.5	NA	0.0000	UP	9999	390	0	0	0
2017/06/27 15:02:00	BASE	8.94	8	10.70	11	-2.2	90	-3.7	4	8	973.5	NA	0.0000	UP	9999	0	0	0	2760
2017/06/27 15:03:00	BASE	9.06	5	10.70	11	-2.2	90	-3.7	4	7	973.5	NA	0.0000	UP	9999	0	0	0	2590
2017/06/27 15:04:00	BASE	9.19	5	11.32	8	-2.2	89	-3.7	5	8	973.5	NA	0.0000	UP	9999	390	0	0	0
2017/06/27 15:05:00	BASE	9.29	5	11.32	8	-2.1	89	-3.7	5	9	973.4	NA	0.0000	UP	9999	360	0	0	0
2017/06/27 15:06:00	BASE	9.14	6	11.32	8	-2.1	89	-3.6	5	9	973.4	NA	0.0000	UP	9999	390	0	0	0
2017/06/27 15:07:00	BASE	8.68	6	11.32	8	-2.1	89	-3.6	5	11	973.4	NA	0.0000	UP	9999	2200	0	0	0
2017/06/27 15:08:00	BASE	9.22	8	11.42	4	-2.0	89	-3.6	5	11	973.3	NA	0.0000	UP	9999	0	0	0	2720
2017/06/27 15:09:00	BASE	9.68	8	11.42	4	-2.0	89	-3.6	6	11	973.3	NA	0.0000	UP	9999	390	0	0	0
2017/06/27 15:10:00	BASE	10.09	7	11.63	9	-2.0	89	-3.6	6	12	973.2	NA	0.0000	UP	9999	0	0	0	2950
2017/06/27 15:11:00	BASE	10.48	9	11.94	8	-2.0	89	-3.6	6	12	973.2	NA	0.0000	UP	9999	0	0	0	3020
2017/06/27 15:12:00	BASE	10.14	8	11.94	8	-1.9	89	-3.5	6	11	973.2	NA	0.0000	UP	9999	0	0	0	3080
2017/06/27 15:13:00	BASE	10.25	6	11.94	8	-1.9	89	-3.5	6	13	973.2	NA	0.0000	UP	7000	0	0	0	2920
2017/06/27 15:14:00	BASE	10.75	6	12.19	3	-1.9	90	-3.4	6	13	973.1	NA	0.0000	UP BR	4200	0	0	0	2890
2017/06/27 15:15:00	BASE	11.15	5	12.19	3	-1.9	90	-3.4	6	13	973.1	NA	0.0000	-SN BR	3400	0	0	0	2790
2017/06/27 15:16:00	BASE	10.96	6	12.19	3	-1.9	90	-3.3	6	13	973.1	NA	0.0000	-SN BR	3300	0	0	0	2620
2017/06/27 15:17:00	BASE	10.74	8	12.19	3	-1.9	90	-3.3	6	13	973.2	NA	0.0000	-SN BR	2900	0	0	0	2620
2017/06/27 15:18:00	BASE	10.79	9	12.19	3	-1.9	90	-3.4	6	13	973.1	NA	0.0000	-SN BR	2700	0	0	0	2560
2017/06/27 15:19:00	BASE	11.08	8	12.30	8	-1.9	89	-3.5	6	13	973.1	NA	0.0000	-SN BR	3000	0	0	0	2690
2017/06/27 15:20:00	BASE	10.98	8	12.30	8	-1.9	88	-3.5	6	13	973.1	NA	0.0000	-SN BR	3400	0	0	0	2690
2017/06/27 15:21:00	BASE	10.76	10	12.30	8	-1.9	88	-3.6	6	13	973.2	NA	0.0000	-SN BR	5000	0	0	0	2920
2017/06/27 15:22:00	BASE	10.72	9	12.30	8	-1.9	87	-3.7	6	13	973.2	NA	0.0000	-SN BR	4000	0	0	0	3050
2017/06/27 15:23:00	BASE	10.65	9	12.30	8	-1.9	87	-3.7	6	13	973.2	NA	0.0000	-SN BR	4900	0	0	0	3180
2017/06/27 15:24:00	BASE	10.42	10	12.30	8	-1.9	87	-3.8	6	13	973.2	NA	0.0000	-SN BR	9999	0	0	0	3310
2017/06/27 15:25:00	BASE	10.75	10	12.30	7	-1.9	86	-3.8	6	12	973.1	NA	0.0000	-SN BR	9999	0	0	0	3220
2017/06/27 15:26:00	BASE	11.07	10	12.30	7	-1.9	86	-3.9	5	12	973.1	NA	0.0000	-SN BR	9999	0	0	0	3250
2017/06/27 15:27:00	BASE	10.89	9	12.30	7	-1.8	85	-4.0	5	12	973.1	NA	0.0000	-SN BR	9999	0	0	0	3220
2017/06/27 15:28:00	BASE	11.25	11	12.30	7	-1.8	85	-4.0	5	10	973.1	NA	0.0000	-SN BR	9999	0	0	0	3120
2017/06/27 15:29:00	BASE	11.21	13	12.30	7	-1.8	85	-4.0	5	10	973.1	NA	0.0000	-SN BR	9999	0	0	0	3020
2017/06/27 15:30:00	BASE	10.77	12	12.30	7	-1.8	85	-4.1	5	10	973.1	NA	0.0000	-SN	9999	0	0	0	3080
2017/06/27 15:31:00	BASE	10.61	10	12.30	7	-1.8	85	-4.0	5	11	973.0	NA	0.0000	-SN BR	9999	0	0	0	3310
2017/06/27 15:32:00	BASE	10.78	11	12.71	18	-1.8	85	-4.0	5	11	973.0	NA	0.0000	-SN	9999	0	0	0	3450
2017/06/27 15:33:00	BASE	11.29	12	12.81	1	-1.8	85	-4.0	5	10	973.0	NA	0.0000	-SN	9999	0	0	0	3310
2017/06/27 15:34:00	BASE	11.33	10	12.81	1	-1.8	85	-3.9	5	11	973.0	NA	0.0000	-SN	9999	0	0	0	3710
2017/06/27 15:35:00	BASE	10.99	11	12.81	1	-1.8	85	-4.0	5	11	973.0	NA	0.0000	-SN	9999	0	0	0	4040
2017/06/27 15:36:00	BASE	10.56	13	12.81	1	-1.8	85	-4.0	5	11	973.0	NA	0.0000	-SN	9999	0	0	0	4360
2017/06/27 15:37:00	BASE	10.50	13	12.81	1	-1.7	84	-4.0	5	11	973.0	NA	0.0000	-SN	9999	0	0	0	4630
2017/06/27 15:38:00	BASE	10.91	10	12.81	1	-1.7	84	-4.1	5	11	972.9	NA	0.0000	-SN	9999	0	0	0	4760
2017/06/27 15:39:00	BASE	11.39	9	12.91	9	-1.7	83	-4.2	5	12	972.9	NA	0.0000	-SN	9999	0	0	0	4950
2017/06/27 15:40:00	BASE	10.93	10	12.91	9	-1.7	83	-4.2	5	12	972.9	NA	0.0000	-SN	9999	0	0	0	5050
2017/06/27 15:41:00	BASE	10.62	11	12.91	9	-1.7	82	-4.3	5	12	972.7	NA	0.0000	-SN	9999	0	0	0	4790
2017/06/27 15:42:00	BASE	11.08	11	12.91	9	-1.7	82	-4.3	5	12	972.7	NA	0.0000	-SN	9000	0	0	0	4820
2017/06/27 15:43:00	BASE	11.26	11	12.91	9	-1.7	82	-4.3	5	12	972.7	NA	0.0000	-SN	6000	0	0	0	4720
2017/06/27 15:44:00	BASE	11.41	12	12.91	9	-1.6	82	-4.3	5	12	972.7	NA	0.0000	-SN	4700	0	0	0	4490
2017/06/27 15:45:00	BASE	10.67	10	12.91	9	-1.6	82	-4.3	5	12	972.8	NA	0.0000	-SN	6000	0	0	0	4330
2017/06/27 15:46:00	BASE	10.80	9	12.91	9	-1.6	82	-4.2	5	12	972.7	NA	0.0000	-SN	7000	0	0	0	4130
2017/06/27 15:47:00	BASE	11.44	8	12.91	9	-1.6	82	-4.2	5	12	972.7	NA	0.0000	-SN	4600	0	0	0	3740
2017/06/27 15:48:00	BASE	11.02	10	12.91	9	-1.6	83	-4.1	5	12	972.8	NA	0.0000	-SN	2600	0	0	0	3640
2017/06/27 15:49:00	BASE	10.84	10	12.60	12	-1.6	83	-4.0	5	12	972.8	NA	0.0000	-SN	2700	0	0	0	3350
2017/06/27 15:50:00	BASE	10.24	8	12.60	12	-1.6	84	-3.9	5	12	972.8	NA	0.0000	-SN	2300	0	0	0	3050
2017/06/27 15:51:00	BASE	10.27	8	12.60	12	-1.6	85	-3.8	5	12	972.7	NA	0.0000	-SN	2000	0	0	0	2690
2017/06/27 15:52:00	BASE	11.46	9	12.91	10	-1.6	85	-3.8	5	12	972.7	NA	0.0000	-SN BR	2300	0	0	0	2490
2017/06/27 15:53:00	BASE	11.35	11	12.91	10	-1.6	85	-3.8	5	13	972.6	NA	0.0000	-SN BR	2200	0	0	0	2360
2017/06/27 15:54:00	BASE	11.10	10	12.91	10	-1.6	85	-3.8	5	13	972.7	NA	0.0000	-SN BR	2200	0	0	0	2230
2017/06/27 15:55:00	BASE	11.47	9	12.91	10	-1.6	85	-3.8	6	13	972.7	NA	0.0000	-SN	2000	0	0	0	2260
2017/06/27 15:56:00	BASE	11.56	8	12.91	11	-1.6	84	-3.8	6	13	972.6	NA	0.0000	-SN	2200	0	0	0	2170
2017/06/27 15:57:00	BASE	11.47	9	12.91	11	-1.6	85	-3.8	6	13	972.7	NA	0.0000	-SN BR	2000	0	0	0	2200
2017/06/27 15:58:00	BASE	11.26	9	12.91	1	-1.6	86	-3.7	6	13	972.7	NA	0.0000	-SN BR	1900	0	0	0	2230
2017/06/27 15:59:00	BASE	10.97	7	12.91	7	-1.6	86	-3.6	6	14	972.6	NA	0.0000	-SN BR	1900	0	0	0	2230
2017/06/27 16:00:00	BASE	11.42	9	12.91	7	-1.6	87	-3.5	6	14	972.6	NA	0.0000	-SN BR	2000	0	0	0	2200
2017/06/27 16:01:00	BASE	11.78	10	12.91	7	-1.6	87	-3.5	6	14	972.6	NA	0.0000	-SN BR	1800	0	0	0	2130
2017/06/27 16:02:00	BASE	11.28	9	12.91	7	-1.6	87	-3.4	6	14	972.6	NA	0.0000	-SN BR	1700	0	0	0	2170
2017/06/27 16:03:00	BASE	10.95	9	12.91	7	-1.6	87	-3.4	6	14	972.6	NA	0.0000	-SN BR	1800	0	0	0	2260
2017/06/27 16:04:00	BASE	11.31	10	13.17	5	-1.5	87	-3.4	6	15	972.6	NA	0.0000	-SN BR	1900	0	0	0	2230
2017/06/27 16:05:00	BASE	11.23	9	13.17	5	-1.5	87	-3.4	6	15	972.6	NA	0.0000	-SN BR	2300	0	0	0	2000
2017/06/27 16:06:00	BASE	10.95	8	13.17	5	-1.5	87	-3.3	6	15	972.5	NA	0.0000	-SN BR	2700	0	0	0	2030
2017/06/27 16:07:00	BASE	11.29	9	13.17	5	-1.5	87	-3.4	6	15	972.6	NA	0.0000	-SN BR	2300	0	0	0	2070
2017/06/27 16:08:00	BASE	11.12	10	13.17	5	-1.5	87	-3.3	6	15	972.5	NA	0.0000	-SN BR	1300	0	0	0	2330
2017/06/27 16:09:00	BASE	10.42	8	13.17	5	-1.5	88	-3.3	6	15	972.5	NA	0.0000	-SN BR	1600	0	0	0	2620
2017/06/27 16:10:00	BASE	10.77	9	13.17	5	-1.5	88	-3.2	7	16	972.4	NA	0.0000	-SN BR	2400	0	0	0	2620
2017/06/27 16:11:00	BASE	11.51	11	13.32	20	-1.5	89	-3.2	7	16	972.4	NA	0.0000	-SN BR	2200	0	0	0	2760
2017/06/27 16:12:00	BASE	11.34	11	13.32	20	-1.5	89	-3.2	7	16	972.3	NA	0.0000	-SN BR	2000	0	0	0	2790
2017/06/27 16:13:00	BASE	11.78	12	13.99	9	-1.5	88	-3.2	7	17	972.3	NA	0.0000	-SN BR	3200	0	0	0	2660
2017/06/27 16:14:00	BASE	12.42	10	14.35	8	-1.5	87	-3.4	7	17	972.2	NA	0.0000	-SN BR	2700	0	0	0	2890
2017/06/27 16:15:00	BASE	12.06	7	14.35	8	-1.4	86	-3.4	7	17	972.2	NA	0.0000	-SN BR	2800	0	0	0	2890
2017/06/27 16:16:00	BASE	11.92	9	14.35	8	-1.4	86	-3.5	7	17	972.2	NA	0.0000	-SN BR	4300	0	0	0	2890
2017/06/27 16:17:00	BASE	12.16	12	14.35	8	-1.4	85	-3.5	8	18	972.1	NA	0.0000	-SN BR	3500	0	0	0	2920
2017/06/27 16:18:00	BASE	11.85	13	14.35	8	-1.4	86	-3.5	8	18	972.1	NA	0.0000	-SN BR	2400	0	0	0	3050
2017/06/27 16:19:00	BASE	12.04	13	14.35	8	-1.4	87	-3.4	8	18	972.0	NA	0.0000	-SN BR	2200	0	0	0	3220
2017/06/27 16:20:00	BASE	12.59	12	14.35	8	-1.4	87	-3.3	8	18	971.9	NA	0.0000	-SN BR	3100	0	0	0	3310
2017/06/27 16:21:00	BASE	12.68	13	14.35	8	-1.4	87	-3.3	8	19	972.0	NA	0.0000	-SN BR	3900	0	0	0	3580
2017/06/27 16:22:00	BASE	11.95	12	14.35	8	-1.4	87	-3.3	8	19	971.9	NA	0.0000	-SN BR	2600	0	0	0	3610
2017/06/27 16:23:00	BASE	11.61	11	14.35	8	-1.4	86	-3.4	9	19	971.9	NA	0.0000	-SN BR	2700	0	0	0	3640
2017/06/27 16:24:00	BASE	12.07	12	14.61	10	-1.3	85	-3.5	9	20	971.9	NA	0.0000	-SN BR	4400	0	0	0	3670
2017/06/27 16:25:00	BASE	12.40	14	14.61	10	-1.3	85	-3.5	9	20	971.9	NA	0.0000	-SN	3200	0	0	0	3740
2017/06/27 16:26:00	BASE	12.26	13	14.61	10	-1.3	84	-3.6	9	21	971.9	NA	0.0000	-SN	4500	0	0	0	3770
2017/06/27 16:27:00	BASE	12.25	11	14.61	10	-1.2	84	-3.6	9	21	972.0	NA	0.0000	-SN	4400	0	0	0	3770
2017/06/27 16:28:00	BASE	12.56	11	14.61	10	-1.2	83	-3.7	9	21	972.0	NA	0.0000	-SN	3600	0	0	0	3740
2017/06/27 16:29:00	BASE	12.52	12	14.61	10	-1.2	83	-3.8	9	21	972.0	NA	0.0000	-SN	2800	0	0	0	3770
2017/06/27 16:30:00	BASE	12.35	13	14.61	10	-1.1	82	-3.8	9	22	972.0	NA	0.0000	-SN	2300	0	0	0	3640
2017/06/27 16:31:00	BASE	11.87	12	14.61	10	-1.1	82	-3.9	9	22	972.0	NA	0.0000	-SN	2800	0	0	0	3540
2017/06/27 16:32:00	BASE	11.28	12	14.61	10	-1.1	81	-3.9	9	22	972.0	NA	0.0000	-SN	3200	0	0	0	3670
2017/06/27 16:33:00	BASE	10.78	11	14.61	10	-1.1	81	-3.9	10	21	972.0	NA	0.0000	-SN	4400	0	0	0	3670
2017/06/27 16:34:00	BASE	10.88	11	14.51	13	-1.1	81	-4.0	9	21	972.0	NA	0.0000	-SN	3500	0	0	0	3610
2017/06/27 16:35:00	BASE	10.78	10	14.51	13	-1.1	81	-4.0	10	22	972.0	NA	0.0000	-SN	5000	0	0	0	3540
2017/06/27 16:36:00	BASE	11.15	9	14.51	13	-1.1	80	-4.0	10	22	971.9	NA	0.0000	-SN	4000	0	0	0	3740
2017/06/27 16:37:00	BASE	11.51	11	14.51	13	-1.0	80	-4.0	10	23	971.9	NA	0.0000	-SN	2700	0	0	0	4170
2017/06/27 16:38:00	BASE	11.02	15	14.51	13	-1.0	80	-4.0	10	24	971.9	NA	0.0000	-SN	2900	0	0	0	4330
2017/06/27 16:39:00	BASE	10.77	14	13.68	12	-1.0	80	-4.0	11	24	971.8	NA	0.0000	-SN	2500	0	0	0	4300
2017/06/27 16:40:00	BASE	10.63	11	13.53	6	-1.0	81	-3.9	11	24	971.8	NA	0.0000	-SN	4500	0	0	0	4790
2017/06/27 16:41:00	BASE	10.44	11	13.02	6	-1.0	81	-3.9	11	24	971.8	NA	0.0000	-SN	8000	0	0	0	4950
2017/06/27 16:42:00	BASE	10.38	11	13.02	6	-1.0	80	-4.0	11	24	971.8	NA	0.0000	-SN	6000	0	0	0	4690
2017/06/27 16:43:00	BASE	10.91	10	13.02	6	-1.0	80	-4.0	11	25	971.7	NA	0.0000	-SN	4200	0	0	0	4590
2017/06/27 16:44:00	BASE	11.35	10	13.02	6	-0.9	80	-4.0	11	25	971.6	NA	0.0000	-SN	4600	0	0	0	4590
2017/06/27 16:45:00	BASE	11.38	10	13.02	6	-0.9	79	-4.0	12	26	971.6	NA	0.0000	-SN	4500	0	0	0	4460
2017/06/27 16:46:00	BASE	11.30	10	13.02	6	-0.8	79	-4.0	12	27	971.5	NA	0.0000	-SN	6000	0	0	0	4560
2017/06/27 16:47:00	BASE	11.57	9	13.02	6	-0.7	78	-4.0	12	27	971.4	NA	0.0000	-SN	7000	0	0	0	4790
2017/06/27 16:48:00	BASE	11.74	10	13.84	6	-0.6	78	-4.0	13	28	971.4	NA	0.0000	-SN	5000	0	0	0	4690
2017/06/27 16:49:00	BASE	12.19	10	13.84	11	-0.6	78	-4.0	13	28	971.3	NA	0.0000	-SN	4100	0	0	0	4790
2017/06/27 16:50:00	BASE	12.73	8	13.84	5	-0.6	78	-3.9	13	27	971.3	NA	0.0000	-SN	8000	0	0	0	4990
2017/06/27 16:51:00	BASE	12.79	7	13.94	3	-0.5	78	-3.9	13	28	971.3	NA	0.0000	-SN	6000	0	0	0	4920
2017/06/27 16:52:00	BASE	12.43	10	13.94	3	-0.6	78	-3.9	13	28	971.3	NA	0.0000	-SN	5000	0	0	0	4760
2017/06/27 16:53:00	BASE	11.83	11	13.94	3	-0.6	79	-3.8	13	28	971.3	NA	0.0000	-SN	7000	0	0	0	5020
2017/06/27 16:54:00	BASE	11.89	8	13.94	3	-0.6	79	-3.8	13	28	971.3	NA	0.0000	-SN	7000	0	0	0	4660
2017/06/27 16:55:00	BASE	12.36	9	14.40	12	-0.6	79	-3.9	13	28	971.3	NA	0.0000	-SN	9999	4300	0	0	0
2017/06/27 16:56:00	BASE	12.53	12	14.97	7	-0.7	79	-3.9	12	27	971.2	NA	0.0000	-SN	9999	4170	0	0	0
2017/06/27 16:57:00	BASE	12.72	13	14.97	7	-0.7	78	-4.0	12	26	971.2	NA	0.0000	-SN	9999	4130	0	0	0
2017/06/27 16:58:00	BASE	13.05	12	15.59	4	-0.6	77	-4.1	12	26	971.1	NA	0.0000	-SN	9999	3940	0	0	0
2017/06/27 16:59:00	BASE	13.16	8	15.59	4	-0.6	77	-4.2	12	24	971.0	NA	0.0000	-SN	9999	8660	0	0	0
2017/06/27 17:00:00	BASE	12.87	9	15.59	4	-0.6	76	-4.2	12	24	971.1	NA	0.0000	-SN	9999	7280	0	0	0
2017/06/27 17:01:00	BASE	12.61	12	15.59	4	-0.5	76	-4.2	12	25	971.0	NA	0.0000	-SN	9999	7320	8790	0	0
2017/06/27 17:02:00	BASE	12.60	9	15.59	4	-0.6	76	-4.2	12	24	971.1	NA	0.0000	-SN	9999	9780	0	0	0
2017/06/27 17:03:00	BASE	12.99	10	16.20	12	-0.5	76	-4.2	12	25	971.0	NA	0.0000	-SN	9999	10270	0	0	0
2017/06/27 17:04:00	BASE	14.12	9	17.03	8	-0.5	76	-4.2	13	25	970.8	NA	0.0000		9999	8890	0	0	0
2017/06/27 17:05:00	BASE	14.51	11	17.03	8	-0.5	76	-4.2	13	26	970.8	NA	0.0000		9999	8990	0	0	0
2017/06/27 17:06:00	BASE	14.72	10	17.03	8	-0.5	77	-4.1	13	27	970.7	NA	0.0000		9999	10530	0	0	0
2017/06/27 17:07:00	BASE	14.99	8	17.03	8	-0.5	77	-4.1	13	26	970.6	NA	0.0000		9999	8660	0	0	0
2017/06/27 17:08:00	BASE	15.19	8	18.16	3	-0.5	77	-4.1	13	26	970.6	NA	0.0000		9999	10240	0	0	0
2017/06/27 17:09:00	BASE	15.91	7	18.21	4	-0.6	77	-4.1	13	26	970.6	NA	0.0000		9999	8270	0	0	0
2017/06/27 17:10:00	BASE	16.22	7	18.31	4	-0.6	77	-4.0	13	25	970.6	NA	0.0000		9999	8560	0	0	0
2017/06/27 17:11:00	BASE	16.24	8	18.31	4	-0.6	78	-4.0	13	25	970.6	NA	0.0000		9999	10010	0	0	0
2017/06/27 17:12:00	BASE	16.15	9	18.31	4	-0.6	78	-3.9	12	24	970.5	NA	0.0000		9999	8690	0	0	0
2017/06/27 17:13:00	BASE	16.23	11	18.31	4	-0.6	79	-3.8	12	24	970.4	NA	0.0000		9999	8730	0	0	0
2017/06/27 17:14:00	BASE	16.60	11	18.42	8	-0.6	79	-3.7	12	24	970.4	NA	0.0000		9999	8630	0	0	0
2017/06/27 17:15:00	BASE	16.72	7	18.42	8	-0.5	79	-3.7	12	23	970.3	NA	0.0000		9999	8860	0	0	0
2017/06/27 17:16:00	BASE	16.49	8	18.42	8	-0.5	80	-3.6	12	23	970.3	NA	0.0000		9999	4950	0	0	0
2017/06/27 17:17:00	BASE	16.50	11	18.67	10	-0.5	80	-3.6	12	23	970.3	NA	0.0000		9999	4760	0	0	0
2017/06/27 17:18:00	BASE	16.82	12	18.67	10	-0.5	80	-3.6	12	23	970.2	NA	0.0000		9999	9580	0	0	0
2017/06/27 17:19:00	BASE	16.59	11	18.67	10	-0.5	79	-3.6	12	23	970.3	NA	0.0000		9999	9810	0	0	0
2017/06/27 17:20:00	BASE	16.14	9	18.67	10	-0.4	79	-3.6	12	23	970.3	NA	0.0000		9999	10040	0	0	0
2017/06/27 17:21:00	BASE	16.36	9	18.67	10	-0.4	79	-3.6	12	23	970.2	NA	0.0000		9999	4560	0	0	0
2017/06/27 17:22:00	BASE	16.25	10	18.67	10	-0.4	79	-3.7	12	23	970.2	NA	0.0000		9999	8600	0	0	0
2017/06/27 17:23:00	BASE	15.29	9	18.67	10	-0.4	78	-3.7	13	24	970.4	NA	0.0000		9999	8530	0	0	0
2017/06/27 17:24:00	BASE	14.90	10	18.67	10	-0.4	78	-3.7	13	25	970.4	NA	0.0000		9999	9190	0	0	0
2017/06/27 17:25:00	BASE	14.81	10	18.67	10	-0.4	78	-3.7	14	26	970.3	NA	0.0000		9999	10560	0	0	0
2017/06/27 17:26:00	BASE	14.05	11	18.67	10	-0.4	78	-3.7	14	26	970.4	NA	0.0000		9999	9510	0	0	0
2017/06/27 17:27:00	BASE	14.05	14	18.47	18	-0.4	78	-3.7	14	26	970.3	NA	0.0000		9999	9680	0	0	0
2017/06/27 17:28:00	BASE	14.09	13	18.47	18	-0.4	79	-3.7	14	25	970.4	NA	0.0000		9999	8890	0	0	0
2017/06/27 17:29:00	BASE	13.66	11	18.47	18	-0.4	79	-3.7	14	25	970.4	NA	0.0000		9999	9190	0	0	0
2017/06/27 17:30:00	BASE	14.06	12	18.47	18	-0.4	79	-3.6	14	24	970.3	NA	0.0000		9999	9740	0	0	0
2017/06/27 17:31:00	BASE	14.71	10	18.26	6	-0.4	79	-3.6	14	25	970.3	NA	0.0000		9999	9510	0	0	0
2017/06/27 17:32:00	BASE	14.73	9	16.77	6	-0.4	79	-3.6	13	25	970.3	NA	0.0000		9999	9910	0	0	0
2017/06/27 17:33:00	BASE	13.90	12	16.77	6	-0.3	78	-3.7	13	25	970.3	NA	0.0000		9999	9880	0	0	0
2017/06/27 17:34:00	BASE	13.60	12	16.46	11	-0.3	78	-3.7	13	25	970.3	NA	0.0000		9999	9940	0	0	0
2017/06/27 17:35:00	BASE	13.31	11	16.46	11	-0.3	78	-3.7	12	24	970.3	NA	0.0000		9999	9580	0	0	0
2017/06/27 17:36:00	BASE	12.56	10	16.46	11	-0.2	77	-3.7	12	23	970.4	NA	0.0000		9999	10010	0	0	0
2017/06/27 17:37:00	BASE	12.61	13	16.46	11	-0.2	78	-3.7	11	22	970.3	NA	0.0000		9999	9880	10600	0	0
2017/06/27 17:38:00	BASE	12.85	13	16.46	11	-0.3	78	-3.7	11	21	970.2	NA	0.0000		9999	3540	10200	0	0
2017/06/27 17:39:00	BASE	13.43	9	16.46	11	-0.2	78	-3.6	11	21	970.1	NA	0.0000		9999	3350	3740	0	0
2017/06/27 17:40:00	BASE	13.72	6	16.46	11	-0.2	78	-3.6	11	21	970.0	NA	0.0000		9999	3310	0	0	0
2017/06/27 17:41:00	BASE	13.59	6	16.10	6	-0.1	77	-3.6	11	21	970.0	NA	0.0000		9999	3310	0	0	0
2017/06/27 17:42:00	BASE	15.38	7	18.83	9	0.0	77	-3.6	11	16	969.8	NA	0.0000		9999	3450	0	0	0
2017/06/27 17:43:00	BASE	17.05	10	19.03	9	0.1	77	-3.6	11	21	969.8	NA	0.0000		9999	3220	10400	0	0
2017/06/27 17:44:00	BASE	16.24	11	19.03	9	0.1	77	-3.5	11	21	969.9	NA	0.2540		9999	3050	10500	0	0
2017/06/27 17:45:00	BASE	15.64	10	19.03	9	0.1	77	-3.5	11	21	969.9	NA	0.0000		9999	3080	10340	0	0
2017/06/27 17:46:00	BASE	15.89	11	19.03	9	0.0	77	-3.5	11	21	969.9	NA	0.0000		9999	3020	0	0	0
2017/06/27 17:47:00	BASE	15.23	11	19.03	9	-0.0	78	-3.4	11	20	970.0	NA	0.0000		9999	3150	0	0	0
2017/06/27 17:48:00	BASE	14.68	11	19.03	9	-0.1	78	-3.4	11	20	970.1	NA	0.0000		9999	3280	0	0	0
2017/06/27 17:49:00	BASE	15.15	11	19.03	9	-0.1	79	-3.4	11	19	970.0	NA	0.0000		9999	3380	0	0	0
2017/06/27 17:50:00	BASE	14.69	11	19.03	9	-0.1	79	-3.3	11	19	970.2	NA	0.0000		9999	3410	0	0	0
2017/06/27 17:51:00	BASE	13.92	10	19.03	9	-0.1	79	-3.3	11	18	970.2	NA	0.0000		9999	3480	10600	0	0
2017/06/27 17:52:00	BASE	13.84	9	19.03	9	-0.1	80	-3.2	11	19	970.2	NA	0.0000		9999	3640	0	0	0
2017/06/27 17:53:00	BASE	13.24	9	17.34	7	-0.1	80	-3.2	11	19	970.3	NA	0.0000		9999	3740	10560	0	0
2017/06/27 17:54:00	BASE	13.68	9	17.34	7	-0.1	80	-3.2	12	19	970.2	NA	0.0000		9999	3840	10530	0	0
2017/06/27 17:55:00	BASE	14.09	12	17.34	7	-0.1	80	-3.1	12	19	970.2	NA	0.0000		9999	3900	10630	0	0
2017/06/27 17:56:00	BASE	13.96	12	16.93	5	-0.1	80	-3.1	13	20	970.2	NA	0.0000		9999	10600	0	0	0
2017/06/27 17:57:00	BASE	13.91	9	16.93	5	-0.1	80	-3.1	13	21	970.2	NA	0.0000		9999	10660	0	0	0
2017/06/27 17:58:00	BASE	13.79	8	16.93	5	-0.1	80	-3.1	13	21	970.2	NA	0.0000		9999	10860	0	0	0
2017/06/27 17:59:00	BASE	14.28	11	16.82	16	-0.1	80	-3.1	13	21	970.1	NA	0.0000		9999	10730	0	0	0
2017/06/27 18:00:00	BASE	14.82	13	17.34	6	-0.1	81	-3.0	14	20	970.1	NA	0.0000		9999	10240	0	0	0
2017/06/27 18:01:00	BASE	14.89	10	17.34	6	-0.1	81	-3.0	14	21	970.1	NA	0.0000		9999	10140	0	0	0
2017/06/27 18:02:00	BASE	13.99	8	17.34	6	-0.1	81	-2.9	15	21	970.1	NA	0.0000		9999	10070	0	0	0
2017/06/27 18:03:00	BASE	13.25	8	17.34	6	-0.1	81	-2.9	16	21	970.2	NA	0.0000		9999	11290	0	0	0
2017/06/27 18:04:00	BASE	13.17	10	17.34	6	-0.1	81	-2.9	16	21	970.2	NA	0.0000		9999	10560	0	0	0
2017/06/27 18:05:00	BASE	13.47	10	17.34	6	-0.1	81	-2.9	15	19	970.1	NA	0.0000		9999	11020	0	0	0
2017/06/27 18:06:00	BASE	12.91	8	17.34	6	-0.1	81	-2.9	15	20	970.1	NA	0.0000		9999	10500	0	0	0
2017/06/27 18:07:00	BASE	12.35	5	17.34	6	-0.1	81	-2.9	14	19	970.1	NA	0.0000		9999	10560	0	0	0
2017/06/27 18:08:00	BASE	12.96	7	17.34	6	-0.1	81	-2.9	13	18	970.1	NA	0.0000		9999	10470	0	0	0
2017/06/27 18:09:00	BASE	13.06	10	17.34	6	-0.1	81	-3.0	12	17	970.0	NA	0.0000		9999	10530	0	0	0
2017/06/27 18:10:00	BASE	13.98	8	16.26	16	-0.1	81	-3.0	11	17	969.8	NA	0.0000		9999	10760	0	0	0
2017/06/27 18:11:00	BASE	14.40	8	16.77	15	-0.1	81	-3.0	10	16	969.8	NA	0.0000		9999	10500	0	0	0
2017/06/27 18:12:00	BASE	14.34	12	16.77	15	-0.0	81	-2.9	9	15	969.7	NA	0.0000		9999	10200	0	0	0
2017/06/27 18:13:00	BASE	15.06	13	16.77	8	-0.0	81	-2.9	8	14	969.6	NA	0.0000		9999	9880	0	0	0
2017/06/27 18:14:00	BASE	14.72	10	16.87	9	-0.0	81	-2.9	8	14	969.6	NA	0.0000		9999	11290	0	0	0
2017/06/27 18:15:00	BASE	14.74	9	17.18	8	0.0	81	-2.9	8	14	969.6	NA	0.0000		9999	11940	0	0	0
2017/06/27 18:16:00	BASE	14.65	9	17.18	8	0.0	80	-2.9	7	14	969.6	NA	0.0000		9999	12600	0	0	0
2017/06/27 18:17:00	BASE	14.26	11	17.18	8	0.0	80	-3.0	7	13	969.7	NA	0.0000		9999	10930	0	0	0
2017/06/27 18:18:00	BASE	14.11	11	17.18	8	0.1	80	-3.0	7	12	969.7	NA	0.0000		9999	8300	0	0	0
2017/06/27 18:19:00	BASE	13.90	9	17.18	8	0.1	80	-3.0	7	11	969.6	NA	0.0000		9999	6170	8270	0	0
2017/06/27 18:20:00	BASE	13.81	11	17.18	8	0.1	80	-3.0	6	11	969.7	NA	0.0000		9999	6140	12110	0	0
2017/06/27 18:21:00	BASE	13.42	13	17.18	8	0.1	79	-3.0	6	10	969.7	NA	0.0000		9999	6070	8270	12170	0
2017/06/27 18:22:00	BASE	12.86	13	17.18	8	0.1	79	-3.1	6	10	969.7	NA	0.0000		9999	6040	8240	12340	0
2017/06/27 18:23:00	BASE	12.63	13	17.18	8	0.1	79	-3.1	6	8	969.7	NA	0.0000		9999	5910	8200	12400	0
2017/06/27 18:24:00	BASE	12.02	14	17.18	8	0.1	79	-3.1	5	8	969.7	NA	0.0000		9999	5840	0	0	0
2017/06/27 18:25:00	BASE	11.13	14	16.77	14	0.1	79	-3.1	5	8	969.7	NA	0.0000		9999	5770	0	0	0
2017/06/27 18:26:00	BASE	11.64	18	16.77	14	0.1	79	-3.1	5	7	969.6	NA	0.0000		9999	5710	0	0	0
2017/06/27 18:27:00	BASE	12.88	20	16.67	9	0.1	79	-3.1	5	6	969.4	NA	0.0000		9999	5610	0	0	0
2017/06/27 18:28:00	BASE	13.25	19	15.43	15	0.2	79	-3.1	4	4	969.4	NA	0.0000		9999	5350	0	0	0
2017/06/27 18:29:00	BASE	12.60	15	15.43	15	0.2	79	-3.1	4	5	969.5	NA	0.0000		9999	5250	0	0	0
2017/06/27 18:30:00	BASE	11.61	11	15.43	15	0.2	79	-3.0	4	4	969.5	NA	0.0000		9999	5150	0	0	0
2017/06/27 18:31:00	BASE	11.33	11	15.43	15	0.2	79	-3.0	3	4	969.5	NA	0.0000		9999	5050	0	0	0
2017/06/27 18:32:00	BASE	11.46	14	15.43	15	0.2	79	-3.0	3	3	969.5	NA	0.0000		9999	4920	5710	0	0
2017/06/27 18:33:00	BASE	11.80	16	14.92	15	0.3	78	-3.1	3	2	969.4	NA	0.0000		9999	4990	0	0	0
2017/06/27 18:34:00	BASE	11.99	16	14.92	15	0.3	78	-3.1	3	3	969.4	NA	0.0000		9999	4890	0	0	0
2017/06/27 18:35:00	BASE	12.07	17	14.92	15	0.3	78	-3.1	3	2	969.3	NA	0.0000		9999	4720	0	0	0
2017/06/27 18:36:00	BASE	12.93	17	15.18	13	0.3	78	-3.1	3	2	969.2	NA	0.0000		9999	4760	0	0	0
2017/06/27 18:37:00	BASE	13.48	17	15.64	14	0.3	78	-3.1	3	2	969.2	NA	0.0000		9999	4690	0	0	0
2017/06/27 18:38:00	BASE	13.46	17	15.74	16	0.3	78	-3.0	2	1	969.1	NA	0.0000		9999	4630	0	0	0
2017/06/27 18:39:00	BASE	13.74	14	16.26	12	0.4	78	-3.0	2	2	969.0	NA	0.0000		9999	4490	0	0	0
2017/06/27 18:40:00	BASE	12.86	13	16.26	12	0.4	78	-3.0	2	1	969.1	NA	0.0000		9999	4430	0	0	0
2017/06/27 18:41:00	BASE	12.78	12	16.67	14	0.4	78	-3.0	2	0	969.0	NA	0.0000		9999	4230	0	0	0
2017/06/27 18:42:00	BASE	14.14	12	17.18	10	0.4	78	-3.0	2	1	968.9	NA	0.0000		9999	4000	0	0	0
2017/06/27 18:43:00	BASE	13.60	10	17.18	10	0.4	78	-3.0	2	1	969.0	NA	0.0000		9999	3970	0	0	0
2017/06/27 18:44:00	BASE	13.85	12	17.18	10	0.4	79	-2.9	2	1	968.9	NA	0.0000		9999	3940	0	0	0
2017/06/27 18:45:00	BASE	14.88	17	17.29	13	0.4	79	-2.9	2	1	968.9	NA	0.0000		9999	3870	0	0	0
2017/06/27 18:46:00	BASE	14.40	16	17.29	13	0.4	79	-2.9	2	1	968.8	NA	0.0000		9999	3840	0	0	0
2017/06/27 18:47:00	BASE	13.40	13	17.29	13	0.4	79	-2.9	2	1	968.9	NA	0.0000		9999	3740	0	0	0
2017/06/27 18:48:00	BASE	13.42	13	17.29	21	0.4	79	-2.9	2	0	968.8	NA	0.0000		9999	3940	0	0	0
2017/06/27 18:49:00	BASE	14.37	15	17.29	21	0.4	79	-2.9	2	1	968.7	NA	0.0000		9999	4100	0	0	0
2017/06/27 18:50:00	BASE	14.47	16	17.29	11	0.4	79	-2.9	2	0	968.7	NA	0.0000		9999	3740	0	0	0
2017/06/27 18:51:00	BASE	14.19	13	17.29	11	0.4	78	-2.9	2	0	968.7	NA	0.0000		9999	3840	4460	0	0
2017/06/27 18:52:00	BASE	14.21	14	17.29	11	0.4	78	-2.9	2	0	968.7	NA	0.0000		9999	3940	0	0	0
2017/06/27 18:53:00	BASE	14.06	14	17.29	11	0.4	78	-2.9	2	0	968.7	NA	0.0000		9999	3900	0	0	0
2017/06/27 18:54:00	BASE	13.09	9	17.29	11	0.4	78	-2.9	2	0	968.7	NA	0.0000		9999	4100	0	0	0
2017/06/27 18:55:00	BASE	13.10	12	17.29	11	0.4	78	-2.9	2	0	968.7	NA	0.0000		9999	4100	0	0	0
2017/06/27 18:56:00	BASE	13.53	16	17.29	11	0.4	78	-2.9	2	0	968.7	NA	0.0000		9999	4200	0	0	0
2017/06/27 18:57:00	BASE	12.58	13	17.29	11	0.5	78	-2.9	2	0	968.7	NA	0.0000		9999	4230	0	0	0
2017/06/27 18:58:00	BASE	12.34	12	17.29	11	0.5	78	-2.9	2	0	968.7	NA	0.0000		9999	4300	0	0	0
2017/06/27 18:59:01	BASE	12.61	13	17.29	11	0.5	78	-2.9	2	0	968.6	NA	0.0000		9999	4300	0	0	0
2017/06/27 19:00:00	BASE	12.44	14	16.51	19	0.5	78	-2.9	2	0	968.6	NA	0.0000		9999	4270	0	0	0
2017/06/27 19:01:00	BASE	12.92	14	16.51	19	0.6	77	-2.9	2	0	968.6	NA	0.0000		9999	4230	0	0	0
2017/06/27 19:02:00	BASE	13.23	15	16.00	17	0.6	77	-2.9	2	0	968.6	NA	0.0000		9999	4300	0	0	0
2017/06/27 19:03:00	BASE	13.14	14	16.00	17	0.6	77	-2.9	1	0	968.5	NA	0.0000		9999	4330	0	0	0
2017/06/27 19:04:00	BASE	13.94	14	16.00	17	0.6	77	-2.9	1	0	968.4	NA	0.0000		9999	4300	0	0	0
2017/06/27 19:05:00	BASE	14.35	17	16.41	17	0.6	77	-2.9	1	0	968.4	NA	0.0000		9999	4270	0	0	0
2017/06/27 19:06:00	BASE	13.29	15	16.41	17	0.7	77	-2.9	1	0	968.5	NA	0.0000		9999	4270	0	0	0
2017/06/27 19:07:00	BASE	12.85	15	16.41	17	0.7	77	-2.9	1	0	968.4	NA	0.0000		9999	4300	0	0	0
2017/06/27 19:08:00	BASE	13.43	16	16.41	17	0.7	77	-2.9	1	0	968.4	NA	0.0000		9999	4300	0	0	0
2017/06/27 19:09:00	BASE	13.25	13	16.41	17	0.7	77	-3.0	1	0	968.4	NA	0.0000		9999	4360	0	0	0
2017/06/27 19:10:00	BASE	12.97	14	16.41	17	0.7	76	-3.0	1	0	968.3	NA	0.0000		9999	4460	0	0	0
2017/06/27 19:11:00	BASE	12.85	16	16.41	17	0.7	76	-3.0	1	0	968.3	NA	0.0000		9999	4560	0	0	0
2017/06/27 19:12:00	BASE	12.62	16	16.41	17	0.7	76	-3.0	1	0	968.3	NA	0.0000		9999	4590	0	0	0
2017/06/27 19:13:00	BASE	12.23	16	16.41	17	0.8	76	-3.0	1	0	968.3	NA	0.0000		9999	4690	0	0	0
2017/06/27 19:14:01	BASE	12.45	17	16.41	17	0.8	76	-3.0	1	0	968.3	NA	0.0000		9999	4760	0	0	0
2017/06/27 19:15:00	BASE	12.65	16	16.05	2	0.8	76	-3.0	1	0	968.3	NA	0.0000		9999	4890	0	0	0
2017/06/27 19:16:00	BASE	11.97	18	16.05	2	0.8	76	-2.9	1	0	968.2	NA	0.0000		9999	5050	0	0	0
2017/06/27 19:17:00	BASE	11.99	20	16.05	2	0.8	76	-2.9	0	0	968.2	NA	0.0000		9999	4820	0	0	0
2017/06/27 19:18:00	BASE	12.32	20	16.05	2	0.8	76	-2.9	0	0	968.2	NA	0.0000		9999	4760	0	0	0
2017/06/27 19:19:01	BASE	11.95	19	16.00	17	0.8	76	-2.9	0	0	968.2	NA	0.0000		9999	4890	0	0	0
2017/06/27 19:20:00	BASE	11.69	16	16.00	17	0.8	76	-2.9	0	0	968.2	NA	0.0000		9999	4820	0	0	0
2017/06/27 19:21:00	BASE	11.67	17	16.00	17	0.9	76	-2.9	0	0	968.1	NA	0.0000		9999	4690	0	0	0
2017/06/27 19:22:01	BASE	11.96	20	16.00	17	0.9	76	-2.9	0	0	968.1	NA	0.0000		9999	4590	0	0	0
2017/06/27 19:23:01	BASE	11.93	20	16.00	17	0.9	76	-2.9	0	0	968.1	NA	0.0000		9999	4490	0	0	0
2017/06/27 19:24:00	BASE	12.21	20	16.00	17	0.9	75	-2.9	0	0	968.0	NA	0.0000		9999	4430	0	0	0
2017/06/27 19:25:00	BASE	13.12	21	16.00	17	1.0	75	-2.9	0	0	968.0	NA	0.0000		9999	4360	0	0	0
2017/06/27 19:26:00	BASE	12.84	19	16.00	17	1.0	75	-2.9	0	0	968.0	NA	0.0000		9999	4300	0	0	0
2017/06/27 19:27:00	BASE	12.78	19	15.69	17	1.0	75	-2.9	0	0	967.9	NA	0.0000		9999	4330	0	0	0
2017/06/27 19:28:00	BASE	12.72	18	15.69	17	1.0	75	-2.9	0	0	967.9	NA	0.0000		9999	4330	0	0	0
2017/06/27 19:29:00	BASE	12.53	18	15.69	17	1.1	75	-2.9	0	0	967.8	NA	0.0000		9999	4270	0	0	0
2017/06/27 19:30:00	BASE	12.68	18	15.69	17	1.1	75	-2.9	0	0	967.7	NA	0.0000		9999	4360	0	0	0
2017/06/27 19:31:00	BASE	12.17	16	15.69	17	1.1	75	-2.9	0	0	967.7	NA	0.0000		9999	4330	0	0	0
2017/06/27 19:32:00	BASE	12.33	18	15.69	17	1.1	75	-2.9	0	0	967.6	NA	0.0000		9999	4400	0	0	0
2017/06/27 19:33:00	BASE	12.54	19	15.69	17	1.1	75	-2.9	0	0	967.6	NA	0.0000		9999	4460	0	0	0
2017/06/27 19:34:01	BASE	12.76	17	15.69	17	1.1	75	-2.9	0	0	967.6	NA	0.0000		9999	4400	0	0	0
2017/06/27 19:35:01	BASE	13.52	18	15.18	29	1.1	75	-2.9	0	0	967.5	NA	0.0000		9999	4300	0	0	0
2017/06/27 19:36:01	BASE	13.49	16	15.18	29	1.1	75	-2.9	0	0	967.5	NA	0.0000		9999	4300	0	0	0
2017/06/27 19:37:01	BASE	12.97	14	15.18	29	1.1	75	-2.8	0	0	967.5	NA	0.0000		9999	4230	0	0	0
2017/06/27 19:38:01	BASE	13.30	16	15.90	16	1.1	75	-2.8	0	0	967.5	NA	0.0000		9999	4230	0	0	0
2017/06/27 19:39:01	BASE	14.03	18	16.26	24	1.1	75	-2.8	0	0	967.5	NA	0.0000		9999	4170	0	0	0
2017/06/27 19:40:01	BASE	13.67	16	16.26	24	1.1	75	-2.8	0	0	967.5	NA	0.0000		9999	4100	0	0	0
2017/06/27 19:41:01	BASE	13.07	15	16.26	24	1.1	75	-2.8	0	0	967.5	NA	0.0000		9999	4130	0	0	0
2017/06/27 19:42:01	BASE	12.95	15	16.26	24	1.1	75	-2.9	0	0	967.4	NA	0.0000		9999	4100	0	0	0
2017/06/27 19:43:01	BASE	13.67	16	16.26	24	1.1	75	-2.8	0	0	967.4	NA	0.0000		9999	4100	0	0	0
2017/06/27 19:44:01	BASE	13.55	17	16.26	24	1.1	75	-2.8	0	0	967.4	NA	0.0000		9999	4200	0	0	0
2017/06/27 19:45:01	BASE	12.90	17	16.26	24	1.2	75	-2.8	0	0	967.4	NA	0.0000		9999	4270	0	0	0
2017/06/27 19:46:01	BASE	13.44	18	16.26	24	1.2	75	-2.8	0	0	967.3	NA	0.0000		9999	4130	4590	0	0
2017/06/27 19:47:01	BASE	13.35	20	16.26	24	1.1	75	-2.8	0	0	967.3	NA	0.0000		9999	4200	0	0	0
2017/06/27 19:48:01	BASE	12.46	17	16.26	24	1.1	75	-2.8	0	0	967.3	NA	0.0000		9999	4130	0	0	0
2017/06/27 19:49:01	BASE	12.87	18	16.15	20	1.1	75	-2.8	0	0	967.3	NA	0.0000		9999	4000	0	0	0
2017/06/27 19:50:01	BASE	13.68	23	16.15	20	1.2	75	-2.9	0	0	967.3	NA	0.0000		9999	4130	0	0	0
2017/06/27 19:51:01	BASE	12.96	22	16.15	20	1.2	75	-2.8	0	0	967.3	NA	0.0000		9999	4270	0	0	0
2017/06/27 19:52:01	BASE	11.68	18	16.15	20	1.2	75	-2.8	0	0	967.3	NA	0.0000		9999	4170	0	0	0
2017/06/27 19:53:01	BASE	11.06	19	15.95	28	1.2	75	-2.8	0	0	967.3	NA	0.0000		9999	4230	0	0	0
2017/06/27 19:54:01	BASE	12.05	20	15.95	28	1.3	74	-2.8	0	0	967.2	NA	0.0000		9999	4300	0	0	0
2017/06/27 19:55:01	BASE	13.48	16	16.77	15	1.3	75	-2.8	0	0	967.1	NA	0.0000		9999	4300	0	0	0
2017/06/27 19:56:01	BASE	13.85	13	16.77	15	1.3	75	-2.7	0	0	967.0	NA	0.0000		9999	4300	0	0	0
2017/06/27 19:57:01	BASE	12.80	12	16.77	15	1.3	75	-2.7	0	0	967.1	NA	0.0000		9999	4360	0	0	0
2017/06/27 19:58:01	BASE	12.96	14	16.77	15	1.3	75	-2.7	0	0	967.0	NA	0.0000		9999	4270	0	0	0
2017/06/27 19:59:01	BASE	14.13	17	16.77	15	1.3	75	-2.6	0	0	967.0	NA	0.0000		9999	4330	0	0	0
2017/06/27 20:00:01	BASE	13.03	18	16.77	15	1.3	75	-2.6	0	0	967.2	NA	0.0000		9999	4270	0	0	0
2017/06/27 20:01:01	BASE	12.03	16	16.77	15	1.3	75	-2.6	0	0	967.1	NA	0.0000		9999	4460	0	0	0
2017/06/27 20:02:01	BASE	12.63	10	16.77	15	1.3	76	-2.5	0	0	967.0	NA	0.0000	UP	9999	4430	0	0	0
2017/06/27 20:03:01	BASE	13.53	11	16.77	4	1.3	76	-2.4	0	0	966.9	NA	0.0000	UP	9999	4430	0	0	0
2017/06/27 20:04:01	BASE	12.91	15	16.77	4	1.3	77	-2.3	0	0	967.0	NA	0.0000	UP	9999	4460	0	0	0
2017/06/27 20:05:01	BASE	11.84	14	16.77	4	1.3	77	-2.3	0	0	966.9	NA	0.0000	UP	9999	4400	0	0	0
2017/06/27 20:06:01	BASE	12.53	16	16.77	4	1.2	78	-2.2	0	0	966.8	NA	0.0000	UP	9999	4490	0	0	0
2017/06/27 20:07:01	BASE	13.17	14	16.77	4	1.3	78	-2.2	0	0	966.7	NA	0.0000	UP	9999	4490	0	0	0
2017/06/27 20:08:01	BASE	13.25	14	16.77	4	1.3	77	-2.3	0	0	966.7	NA	0.0000	UP	9999	4530	0	0	0
2017/06/27 20:09:01	BASE	13.21	16	16.77	4	1.3	77	-2.3	0	0	966.5	NA	0.0000	UP	9999	4360	0	0	0
2017/06/27 20:10:01	BASE	12.74	15	16.77	4	1.3	77	-2.3	0	0	966.5	NA	0.0000	UP	9999	4400	0	0	0
2017/06/27 20:11:01	BASE	13.54	17	16.77	4	1.4	76	-2.3	0	0	966.4	NA	0.0000	UP	9999	4490	0	0	0
2017/06/27 20:12:01	BASE	14.44	17	16.98	19	1.4	76	-2.3	0	0	966.4	NA	0.0000	UP	9999	4530	0	0	0
2017/06/27 20:13:00	BASE	14.05	14	16.98	19	1.4	76	-2.4	0	0	966.4	NA	0.0000	UP	9999	4460	0	0	0
2017/06/27 20:14:00	BASE	14.04	13	16.98	19	1.4	76	-2.4	0	0	966.3	NA	0.0000	UP	9999	4560	0	0	0
2017/06/27 20:15:00	BASE	14.34	16	16.98	19	1.4	76	-2.4	0	0	966.3	NA	0.0000	UP	9999	4590	0	0	0
2017/06/27 20:16:00	BASE	13.84	17	16.98	19	1.5	76	-2.4	0	0	966.4	NA	0.0000		9999	4530	0	0	0
2017/06/27 20:17:00	BASE	13.75	18	16.98	19	1.5	75	-2.4	0	0	966.3	NA	0.0000		9999	4630	0	0	0
2017/06/27 20:18:00	BASE	14.24	20	16.98	19	1.5	75	-2.4	0	0	966.3	NA	0.0000		9999	4630	0	0	0
2017/06/27 20:19:00	BASE	13.62	20	16.98	19	1.6	75	-2.4	0	0	966.3	NA	0.0000		9999	4660	0	0	0
2017/06/27 20:20:00	BASE	13.09	20	16.98	19	1.6	75	-2.4	0	0	966.3	NA	0.0000		9999	4760	0	0	0
2017/06/27 20:21:00	BASE	13.14	18	16.98	19	1.6	75	-2.4	0	0	966.3	NA	0.0000		9999	4760	0	0	0
2017/06/27 20:22:00	BASE	12.96	19	16.62	15	1.6	75	-2.4	0	0	966.3	NA	0.0000		9999	4860	0	0	0
2017/06/27 20:23:00	BASE	12.71	21	16.62	15	1.6	75	-2.4	0	0	966.3	NA	0.0000		9999	4950	0	0	0
2017/06/27 20:24:00	BASE	12.54	22	16.62	15	1.6	75	-2.4	0	0	966.2	NA	0.0000		9999	4890	0	0	0
2017/06/27 20:25:00	BASE	12.99	23	16.05	28	1.6	75	-2.4	0	0	966.2	NA	0.0000		9999	4860	0	0	0
2017/06/27 20:26:00	BASE	12.53	23	16.05	28	1.7	74	-2.4	0	0	966.3	NA	0.0000		9999	4890	0	0	0
2017/06/27 20:27:00	BASE	12.22	22	16.05	28	1.7	74	-2.4	0	0	966.3	NA	0.0000		9999	4920	0	0	0
2017/06/27 20:28:01	BASE	12.72	20	16.00	16	1.7	74	-2.4	0	0	966.2	NA	0.0000		9999	4920	0	0	0
2017/06/27 20:29:00	BASE	13.17	20	16.00	16	1.7	74	-2.4	0	0	966.2	NA	0.0000		9999	4920	0	0	0
2017/06/27 20:30:00	BASE	13.41	23	15.54	29	1.8	74	-2.4	0	0	966.3	NA	0.0000		9999	4920	0	0	0
2017/06/27 20:31:00	BASE	12.43	25	15.18	10	1.8	73	-2.4	0	0	966.4	NA	0.0000		9999	4890	0	0	0
2017/06/27 20:32:00	BASE	11.69	27	15.18	10	1.8	73	-2.4	0	0	966.4	NA	0.0000		9999	4890	0	0	0
2017/06/27 20:33:00	BASE	10.93	28	15.18	10	1.9	73	-2.4	0	0	966.5	NA	0.0000		9999	4890	0	0	0
2017/06/27 20:34:00	BASE	9.75	29	15.18	10	1.8	74	-2.4	0	0	966.5	NA	0.0000		9999	4890	0	0	0
2017/06/27 20:35:00	BASE	9.79	30	15.18	10	1.8	74	-2.4	0	0	966.5	NA	0.0000		9999	4920	0	0	0
2017/06/27 20:36:00	BASE	10.60	32	15.18	10	1.8	74	-2.4	0	0	966.6	NA	0.0000		9999	4990	0	0	0
2017/06/27 20:37:00	BASE	9.60	35	15.18	10	1.8	74	-2.4	0	0	966.6	NA	0.0000		9999	5020	0	0	0
2017/06/27 20:38:00	BASE	7.98	33	15.18	10	1.7	74	-2.4	0	0	966.6	NA	0.0000		9999	4990	0	0	0
2017/06/27 20:39:00	BASE	8.25	31	15.12	18	1.7	74	-2.4	0	0	966.6	NA	0.0000		9999	4920	0	0	0
2017/06/27 20:40:00	BASE	8.94	28	14.35	42	1.8	74	-2.4	0	0	966.5	NA	0.0000		9999	5050	0	0	0
2017/06/27 20:41:00	BASE	9.63	26	14.35	42	1.8	74	-2.4	0	0	966.5	NA	0.0000		9999	4950	0	0	0
2017/06/27 20:42:00	BASE	9.81	26	13.17	32	1.8	74	-2.4	0	0	966.4	NA	0.0000		9999	4860	0	0	0
2017/06/27 20:43:00	BASE	9.34	23	13.17	32	1.8	74	-2.4	0	0	966.4	NA	0.0000		9999	4860	0	0	0
2017/06/27 20:44:00	BASE	10.09	23	13.17	32	1.8	74	-2.3	0	0	966.2	NA	0.0000		9999	4950	0	0	0
2017/06/27 20:45:00	BASE	11.05	21	13.17	32	1.8	74	-2.3	0	0	966.1	NA	0.0000		9999	4920	0	0	0
2017/06/27 20:46:01	BASE	11.04	20	12.81	23	1.8	75	-2.2	0	0	966.1	NA	0.0000		9999	4920	0	0	0
2017/06/27 20:47:01	BASE	10.19	20	12.81	23	1.8	75	-2.2	0	0	966.1	NA	0.0000		9999	4990	0	0	0
2017/06/27 20:48:00	BASE	10.21	20	12.81	23	1.8	75	-2.2	0	0	966.0	NA	0.0000		9999	5090	0	0	0
2017/06/27 20:49:01	BASE	10.07	20	13.17	12	1.8	75	-2.1	0	0	966.1	NA	0.0000	UP	9999	5020	0	0	0
2017/06/27 20:50:00	BASE	9.81	24	13.38	30	1.8	76	-2.1	0	0	966.0	NA	0.0000	UP	9999	4950	0	0	0
2017/06/27 20:51:01	BASE	11.30	24	14.25	16	1.8	76	-2.1	0	0	965.8	NA	0.0000	UP	9999	4790	0	0	0
2017/06/27 20:52:01	BASE	11.87	21	14.25	16	1.8	76	-2.1	0	0	965.8	NA	0.0000	UP	9999	4860	0	0	0
2017/06/27 20:53:00	BASE	11.62	18	14.25	16	1.8	76	-2.0	0	0	965.8	NA	0.0000	UP	9999	4920	0	0	0
2017/06/27 20:54:00	BASE	11.07	17	14.25	16	1.8	76	-2.0	0	0	965.7	NA	0.0000	UP	9999	5050	0	0	0
2017/06/27 20:55:00	BASE	11.38	21	14.46	24	1.8	75	-2.1	0	0	965.7	NA	0.0000	UP	9999	5120	0	0	0
2017/06/27 20:56:01	BASE	12.49	23	14.46	36	1.9	75	-2.0	0	0	965.6	NA	0.0000	UP	9999	5120	0	0	0
2017/06/27 20:57:01	BASE	12.29	25	14.46	36	1.8	75	-2.0	0	0	965.7	NA	0.0000	UP	9999	5250	0	0	0
2017/06/27 20:58:01	BASE	11.96	26	14.46	36	1.9	75	-2.1	0	0	965.6	NA	0.0000	UP	9999	5020	0	0	0
2017/06/27 20:59:01	BASE	11.90	24	14.46	36	1.9	75	-2.1	0	0	965.6	NA	0.0000	UP	9999	5020	0	0	0
2017/06/27 21:00:01	BASE	11.37	22	14.46	36	1.9	75	-2.1	0	0	965.7	NA	0.0000	UP	9999	5020	0	0	0
2017/06/27 21:01:01	BASE	10.85	23	14.46	36	1.9	75	-2.1	0	0	965.6	NA	0.0000	UP	9999	4990	0	0	0
2017/06/27 21:02:01	BASE	11.20	23	14.51	26	1.8	75	-2.1	0	0	965.6	NA	0.0000	UP	9999	4990	0	0	0
2017/06/27 21:03:01	BASE	12.34	23	15.33	16	1.8	76	-2.0	0	0	965.5	NA	0.0000	UP	9999	5090	0	0	0
2017/06/27 21:04:01	BASE	12.55	24	15.33	16	1.8	76	-2.0	0	0	965.5	NA	0.0000	UP	9999	5180	0	0	0
2017/06/27 21:05:01	BASE	11.72	23	15.33	16	1.8	76	-2.0	0	0	965.5	NA	0.0000	UP	9999	4820	0	0	0
2017/06/27 21:06:01	BASE	11.79	25	15.33	16	1.8	75	-2.0	0	0	965.5	NA	0.0000	UP	9999	4430	0	0	0
2017/06/27 21:07:01	BASE	12.43	27	15.33	16	1.9	75	-2.1	0	0	965.5	NA	0.0000	UP	9999	4820	0	0	0
2017/06/27 21:08:01	BASE	12.23	30	15.33	16	2.0	74	-2.2	0	0	965.4	NA	0.0000	UP	9999	5050	0	0	0
2017/06/27 21:09:01	BASE	10.62	29	15.33	16	2.0	74	-2.2	0	0	965.6	NA	0.0000	UP	9999	5050	0	0	0
2017/06/27 21:10:01	BASE	9.56	27	15.33	16	2.0	74	-2.1	0	0	965.7	NA	0.0000	UP	9999	5090	0	0	0
2017/06/27 21:11:01	BASE	10.52	24	15.33	16	2.0	74	-2.1	0	0	965.6	NA	0.0000	UP	9999	5050	0	0	0
2017/06/27 21:12:01	BASE	11.00	21	15.33	16	2.0	74	-2.1	0	0	965.6	NA	0.0000	UP	9999	4990	0	0	0
2017/06/27 21:13:01	BASE	10.66	25	15.07	38	2.0	75	-2.1	0	0	965.6	NA	0.0000	UP	9999	4860	0	0	0
2017/06/27 21:14:01	BASE	10.82	25	15.07	38	2.0	74	-2.1	0	0	965.6	NA	0.0000	UP	9999	4690	0	0	0
2017/06/27 21:15:01	BASE	11.18	21	15.07	38	2.0	74	-2.1	0	0	965.6	NA	0.0000		9999	4630	0	0	0
2017/06/27 21:16:01	BASE	11.67	22	15.07	38	2.1	74	-2.1	0	0	965.6	NA	0.0000		9999	4560	0	0	0
2017/06/27 21:17:01	BASE	10.87	17	14.10	33	2.1	74	-2.1	0	0	965.6	NA	0.0000		9999	4590	0	0	0
2017/06/27 21:18:01	BASE	9.03	19	14.10	33	2.1	74	-2.1	0	0	965.7	NA	0.0000	UP	9999	4690	0	0	0
2017/06/27 21:19:01	BASE	9.11	22	14.10	33	2.0	75	-2.0	0	0	965.7	NA	0.0000	UP	8000	4760	0	0	0
2017/06/27 21:20:01	BASE	9.40	16	14.10	33	1.9	76	-1.9	0	0	965.7	NA	0.0000	UP	9000	3870	0	0	0
2017/06/27 21:21:01	BASE	8.28	12	14.10	33	1.8	77	-1.8	0	0	965.6	NA	0.0000	UP	9999	3740	0	0	0
2017/06/27 21:22:01	BASE	8.40	14	14.10	33	1.7	78	-1.6	0	0	965.6	NA	0.0000	UP	9999	0	0	0	3250
2017/06/27 21:23:01	BASE	9.73	18	14.10	33	1.6	79	-1.6	0	0	965.5	NA	0.0000	UP	9999	4100	0	0	0
2017/06/27 21:24:01	BASE	9.84	20	14.10	33	1.6	79	-1.6	0	0	965.5	NA	0.0000	UP	9999	4130	0	0	0
2017/06/27 21:25:01	BASE	9.00	22	14.10	33	1.6	79	-1.7	0	0	965.5	NA	0.0000	UP	9999	4040	0	0	0
2017/06/27 21:26:01	BASE	8.23	23	12.96	7	1.6	79	-1.7	0	0	965.5	NA	0.0000	UP	9999	4100	0	0	0
2017/06/27 21:27:01	BASE	8.15	24	12.96	7	1.6	78	-1.8	0	0	965.6	NA	0.0000	UP	9999	4360	0	0	0
2017/06/27 21:28:01	BASE	8.69	22	12.96	7	1.6	78	-1.8	0	0	965.5	NA	0.0000	UP	9999	4530	0	0	0
2017/06/27 21:29:01	BASE	8.34	28	12.96	7	1.7	78	-1.8	0	0	965.6	NA	0.0000	UP	9999	4490	0	0	0
2017/06/27 21:30:01	BASE	7.22	36	12.96	7	1.7	78	-1.8	0	0	965.6	NA	0.0000	UP	9999	4430	0	0	0
2017/06/27 21:31:01	BASE	5.61	41	12.96	7	1.7	78	-1.8	0	0	965.7	NA	0.0000	UP	9999	4430	0	0	0
2017/06/27 21:32:01	BASE	3.86	54	12.96	7	1.7	77	-1.8	0	0	965.7	NA	0.0000	UP	9999	4400	0	0	0
2017/06/27 21:33:01	BASE	3.81	46	11.63	12	1.7	77	-1.9	0	0	965.7	NA	0.0000	UP	9999	4200	0	0	0
2017/06/27 21:34:01	BASE	3.80	38	11.47	25	1.7	77	-1.9	0	0	965.6	NA	0.0000	UP	9999	4130	0	0	0
2017/06/27 21:35:01	BASE	2.98	37	11.47	25	1.7	77	-1.9	0	0	965.5	NA	0.0000	UP	9999	4040	0	0	0
2017/06/27 21:36:01	BASE	4.96	12	11.47	25	1.7	77	-2.0	0	0	965.4	NA	0.0000	UP	9999	4100	0	0	0
2017/06/27 21:37:01	BASE	6.90	4	11.42	33	1.7	77	-2.0	0	0	965.4	NA	0.0000	UP	9999	4100	0	0	0
2017/06/27 21:38:01	BASE	7.54	17	10.03	22	1.7	76	-2.0	0	0	965.4	NA	0.0000		9999	4130	0	0	0
2017/06/27 21:39:01	BASE	8.50	22	10.85	31	1.7	76	-2.0	0	0	965.3	NA	0.0000		9999	4200	0	0	0
2017/06/27 21:40:01	BASE	7.39	14	10.85	31	1.8	76	-2.0	0	0	965.3	NA	0.0000		9999	4230	0	0	0
2017/06/27 21:41:01	BASE	5.38	15	10.85	31	1.7	76	-2.0	0	0	965.4	NA	0.0000		9999	4270	0	0	0
2017/06/27 21:42:01	BASE	5.92	23	10.85	31	1.7	76	-2.1	0	0	965.4	NA	0.0000		9999	4270	0	0	0
2017/06/27 21:43:01	BASE	6.96	14	10.85	31	1.7	76	-2.1	0	0	965.4	NA	0.0000		9999	4270	0	0	0
2017/06/27 21:44:01	BASE	6.48	5	10.85	31	1.7	76	-2.1	0	0	965.4	NA	0.0000		9999	4270	0	0	0
2017/06/27 21:45:01	BASE	6.12	6	10.85	31	1.7	75	-2.2	0	0	965.3	NA	0.0000		9999	4360	0	0	0
2017/06/27 21:46:01	BASE	5.94	354	10.85	31	1.7	75	-2.3	0	0	965.3	NA	0.0000		9999	4460	0	0	0
2017/06/27 21:47:01	BASE	5.57	340	10.85	31	1.6	75	-2.3	0	0	965.4	NA	0.0000		9999	4400	0	0	0
2017/06/27 21:48:01	BASE	5.48	324	10.85	31	1.6	75	-2.3	0	0	965.3	NA	0.0000		9999	4400	0	0	0
2017/06/27 21:49:01	BASE	5.79	308	8.90	25	1.5	76	-2.4	0	0	965.3	NA	0.0000		9999	4490	0	0	0
2017/06/27 21:50:01	BASE	5.39	307	8.90	25	1.4	76	-2.4	0	0	965.4	NA	0.0000		9999	4690	0	0	0
2017/06/27 21:51:01	BASE	5.37	314	8.90	25	1.3	76	-2.4	0	0	965.4	NA	0.0000		9999	4170	4630	0	0
2017/06/27 21:52:01	BASE	4.78	330	8.28	1	1.3	76	-2.5	0	0	965.3	NA	0.0000		9999	4130	0	0	0
2017/06/27 21:53:01	BASE	4.58	327	8.28	1	1.3	76	-2.5	0	0	965.4	NA	0.0000		9999	4170	0	0	0
2017/06/27 21:54:01	BASE	4.76	294	8.39	263	1.3	76	-2.5	0	0	965.3	NA	0.0000		9999	4170	0	0	0
2017/06/27 21:55:01	BASE	3.44	284	8.39	263	1.3	76	-2.5	0	0	965.4	NA	0.0000		9999	4130	0	0	0
2017/06/27 21:56:01	BASE	2.69	356	8.39	263	1.3	75	-2.6	0	0	965.4	NA	0.0000		9999	4270	0	0	0
2017/06/27 21:57:01	BASE	2.75	27	8.39	263	1.4	75	-2.6	0	0	965.3	NA	0.0000		9999	4270	0	0	0
2017/06/27 21:58:01	BASE	2.25	103	8.39	263	1.4	74	-2.6	0	0	965.4	NA	0.0000		9999	4270	0	0	0
2017/06/27 21:59:01	BASE	2.10	157	8.39	263	1.4	74	-2.7	0	0	965.3	NA	0.0000		9999	4130	0	0	0
2017/06/27 22:00:01	BASE	3.54	152	8.39	263	1.3	74	-2.8	0	0	965.3	NA	0.0000		9999	4100	0	0	0
2017/06/27 22:01:01	BASE	4.46	130	8.39	263	1.1	74	-3.0	0	0	965.3	NA	0.0000		9999	4000	0	0	0
2017/06/27 22:02:01	BASE	4.18	131	8.39	263	0.9	75	-3.1	0	0	965.4	NA	0.0000		9999	2000	3940	0	0
2017/06/27 22:03:01	BASE	4.59	143	8.39	263	0.7	75	-3.2	0	0	965.3	NA	0.0000		9999	3870	0	0	0
2017/06/27 22:04:01	BASE	5.01	145	6.64	310	0.5	76	-3.2	0	0	965.3	NA	0.0000		9999	3870	0	0	0
2017/06/27 22:05:01	BASE	4.94	140	5.71	141	0.3	77	-3.3	0	0	965.3	NA	0.0000		9999	3870	0	0	0
2017/06/27 22:06:01	BASE	5.20	135	5.71	141	0.3	77	-3.2	0	0	965.3	NA	0.0000		9999	3810	0	0	0
2017/06/27 22:07:01	BASE	5.23	131	5.71	127	0.2	78	-3.2	0	0	965.4	NA	0.0000		9999	3770	0	0	0
2017/06/27 22:08:01	BASE	4.97	131	5.71	127	0.1	78	-3.2	0	0	965.3	NA	0.0000		9999	3740	0	0	0
2017/06/27 22:09:01	BASE	4.95	129	5.71	130	0.1	78	-3.3	0	0	965.3	NA	0.0000		9999	3810	0	0	0
2017/06/27 22:10:01	BASE	5.21	126	5.86	130	0.1	78	-3.3	0	0	965.3	NA	0.0000		9999	3810	0	0	0
2017/06/27 22:11:01	BASE	5.73	128	7.05	140	0.1	78	-3.3	0	0	965.2	NA	0.0000		9999	3840	0	0	0
2017/06/27 22:12:01	BASE	5.35	136	7.05	140	0.1	78	-3.2	0	0	965.3	NA	0.0000		9999	3870	0	0	0
2017/06/27 22:13:01	BASE	4.14	143	7.05	140	0.1	79	-3.2	0	0	965.3	NA	0.0000		9999	3770	0	0	0
2017/06/27 22:14:01	BASE	3.63	139	7.05	140	0.0	79	-3.2	0	0	965.3	NA	0.0000		9999	3970	0	0	0
2017/06/27 22:15:01	BASE	2.72	128	7.05	140	0.0	79	-3.2	0	0	965.3	NA	0.0000		9999	4040	0	0	0
2017/06/27 22:16:01	BASE	1.20	121	7.05	140	0.1	79	-3.2	0	0	965.3	NA	0.0000		9999	4000	0	0	0
2017/06/27 22:17:01	BASE	1.19	150	7.05	140	0.0	79	-3.2	0	0	965.2	NA	0.0000		9999	4000	0	0	0
2017/06/27 22:18:01	BASE	2.22	185	7.05	140	0.1	79	-3.1	0	0	965.2	NA	0.0000		9999	4000	0	0	0
2017/06/27 22:19:01	BASE	2.79	182	7.05	140	0.1	79	-3.1	0	0	965.1	NA	0.0000		9999	3940	0	0	0
2017/06/27 22:20:01	BASE	3.43	174	7.05	140	0.1	79	-3.1	0	0	965.1	NA	0.0000		9999	3940	0	0	0
2017/06/27 22:21:01	BASE	3.91	173	5.25	180	0.1	79	-3.1	0	0	965.1	NA	0.0000		9999	4100	0	0	0
2017/06/27 22:22:01	BASE	4.02	160	5.25	180	0.1	79	-3.1	0	0	965.1	NA	0.0000		9999	3970	0	0	0
2017/06/27 22:23:01	BASE	4.11	147	5.25	180	0.1	79	-3.1	0	0	965.1	NA	0.0000		9999	4040	0	0	0
2017/06/27 22:24:01	BASE	4.09	147	5.25	180	0.0	79	-3.1	0	0	965.1	NA	0.0000		9999	3970	0	0	0
2017/06/27 22:25:01	BASE	3.90	141	5.25	180	-0.0	80	-3.1	0	0	965.0	NA	0.0000		9999	3840	0	0	0
2017/06/27 22:26:01	BASE	4.04	137	5.25	180	-0.1	80	-3.2	0	0	964.9	NA	0.0000		9999	3770	0	0	0
2017/06/27 22:27:01	BASE	3.76	145	5.25	180	-0.1	80	-3.1	0	0	965.0	NA	0.0000		9999	3970	0	0	0
2017/06/27 22:28:01	BASE	3.17	147	5.25	180	-0.1	80	-3.1	0	0	964.9	NA	0.0000		9999	4230	0	0	0
2017/06/27 22:29:01	BASE	2.82	136	5.25	180	-0.1	80	-3.1	0	0	965.0	NA	0.0000		9999	4270	0	0	0
2017/06/27 22:30:01	BASE	2.68	131	5.25	180	-0.1	80	-3.1	0	0	964.8	NA	0.0000		9999	4300	0	0	0
2017/06/27 22:31:01	BASE	3.23	127	4.63	143	-0.1	81	-3.1	0	0	964.8	NA	0.0000		9999	4300	0	0	0
2017/06/27 22:32:01	BASE	3.51	117	4.63	143	-0.0	81	-3.0	0	0	964.8	NA	0.0000		9999	4460	0	0	0
2017/06/27 22:33:01	BASE	3.29	108	4.63	143	0.1	81	-2.8	0	0	964.8	NA	0.0000		9999	3900	0	0	0
2017/06/27 22:34:01	BASE	3.31	95	4.63	143	0.3	81	-2.6	0	0	964.7	NA	0.0000		9999	4360	0	0	0
2017/06/27 22:35:01	BASE	3.72	88	5.25	76	0.5	81	-2.5	0	0	964.8	NA	0.0000		9999	4360	0	0	0
2017/06/27 22:36:01	BASE	4.64	85	6.58	61	0.7	80	-2.3	0	0	964.7	NA	0.0000		9999	4330	0	0	0
2017/06/27 22:37:01	BASE	5.55	77	7.10	79	0.8	80	-2.2	0	0	964.7	NA	0.0000		9999	4330	0	0	0
2017/06/27 22:38:01	BASE	5.56	61	7.56	50	0.9	80	-2.1	0	0	964.7	NA	0.0000		9999	4100	0	0	0
2017/06/27 22:39:01	BASE	4.19	28	7.56	50	1.0	80	-2.1	0	0	964.8	NA	0.0000	UP	9999	4400	0	0	0
2017/06/27 22:40:01	BASE	2.16	30	7.56	50	1.0	80	-2.0	0	0	964.7	NA	0.0000	UP	9999	4230	0	0	0
2017/06/27 22:41:01	BASE	3.01	42	7.56	50	1.1	80	-2.0	0	0	964.6	NA	0.0000	UP	9999	3840	0	0	0
2017/06/27 22:42:01	BASE	4.77	24	7.56	50	1.1	80	-1.9	0	0	964.6	NA	0.0000	UP	9999	4000	0	0	0
2017/06/27 22:43:01	BASE	4.49	21	7.56	50	1.1	80	-2.0	0	0	964.6	NA	0.0000	UP	9999	4330	0	0	0
2017/06/27 22:44:01	BASE	4.88	22	7.82	22	1.1	80	-2.0	0	0	964.5	NA	0.0000	UP	9999	4430	0	0	0
2017/06/27 22:45:01	BASE	5.89	21	9.11	30	1.1	80	-2.0	0	0	964.5	NA	0.0000	UP	9999	4400	0	0	0
2017/06/27 22:46:01	BASE	6.88	21	10.08	10	1.1	80	-2.0	0	0	964.4	NA	0.0000	UP	9999	0	0	0	4690
2017/06/27 22:47:01	BASE	7.81	23	10.08	10	1.1	80	-2.0	0	0	964.3	NA	0.0000	UP	9999	0	0	0	4690
2017/06/27 22:48:01	BASE	8.46	23	10.19	10	1.1	80	-2.0	0	0	964.2	NA	0.0000	UP	9999	0	0	0	4590
2017/06/27 22:49:01	BASE	8.81	20	10.70	28	1.0	80	-2.0	0	0	964.1	NA	0.0000	UP	9999	0	0	0	4560
2017/06/27 22:50:01	BASE	9.11	18	11.21	23	1.0	81	-1.9	0	0	964.1	NA	0.0000	UP	9999	0	0	0	4430
2017/06/27 22:51:01	BASE	9.60	17	12.24	9	1.0	81	-1.9	0	0	964.1	NA	0.0000	UP	9999	0	0	0	4560
2017/06/27 22:52:01	BASE	10.25	19	12.91	32	0.9	81	-1.9	0	0	964.0	NA	0.0000	UP	9999	0	0	0	4460
2017/06/27 22:53:01	BASE	10.63	18	14.10	20	0.9	82	-1.9	0	0	963.9	NA	0.0000	UP	9000	0	0	0	4530
2017/06/27 22:54:01	BASE	10.38	17	14.10	20	0.9	82	-1.8	0	0	963.9	NA	0.0000	UP	9000	0	0	0	4530
2017/06/27 22:55:01	BASE	10.15	14	14.10	20	0.9	82	-1.8	0	0	963.8	NA	0.0000	UP	9999	0	0	0	4560
2017/06/27 22:56:01	BASE	10.22	11	14.10	20	0.8	83	-1.8	0	0	963.8	NA	0.0000	UP	9999	0	0	0	5020
2017/06/27 22:57:01	BASE	9.98	13	14.10	20	0.8	83	-1.7	0	0	963.8	NA	0.0000	UP	9999	4360	0	0	0
2017/06/27 22:58:01	BASE	9.92	12	14.10	20	0.8	83	-1.7	0	0	963.8	NA	0.0000	UP	9999	4330	0	0	0
2017/06/27 22:59:01	BASE	10.78	12	14.10	20	0.8	83	-1.7	0	0	963.7	NA	0.0000	UP	9999	4400	0	0	0
2017/06/27 23:00:01	BASE	10.81	12	14.10	20	0.8	84	-1.7	0	0	963.7	NA	0.0000	UP	9999	4400	0	0	0
2017/06/27 23:01:01	BASE	10.12	11	14.10	20	0.8	84	-1.7	0	0	963.7	NA	0.0000	UP	9999	0	0	0	4790
2017/06/27 23:02:01	BASE	10.47	12	14.15	20	0.8	84	-1.6	0	0	963.6	NA	0.0000	UP	9999	0	0	0	4660
2017/06/27 23:03:01	BASE	11.37	11	14.15	20	0.7	84	-1.6	0	0	963.5	NA	0.0000	UP	9999	0	0	0	2790
2017/06/27 23:04:01	BASE	12.42	12	14.87	10	0.7	85	-1.5	0	0	963.4	NA	0.0000	UP	9999	0	0	0	5090
2017/06/27 23:05:01	BASE	12.23	10	14.87	10	0.6	86	-1.4	0	0	963.4	NA	0.0000	UP	9999	0	0	0	4400
2017/06/27 23:06:01	BASE	11.23	11	14.87	10	0.6	87	-1.3	0	0	963.4	NA	0.0000	UP	8000	0	0	0	4460
2017/06/27 23:07:01	BASE	11.60	11	14.87	10	0.6	88	-1.2	0	0	963.3	NA	0.0000	-SN	7000	0	0	0	4590
2017/06/27 23:08:01	BASE	12.21	7	14.87	10	0.6	88	-1.1	0	0	963.2	NA	0.0000	-SN BR	6000	0	0	0	4590
2017/06/27 23:09:01	BASE	12.15	9	14.87	10	0.5	89	-1.1	0	0	963.3	NA	0.0000	-SN BR	6000	0	0	0	4660
2017/06/27 23:10:01	BASE	12.26	10	14.87	10	0.6	89	-1.1	0	0	963.2	NA	0.0000	-SN BR	6000	0	0	0	4660
2017/06/27 23:11:01	BASE	12.69	12	14.87	10	0.5	89	-1.1	0	0	963.2	NA	0.0000	-SN BR	6000	0	0	0	4690
2017/06/27 23:12:01	BASE	12.72	14	14.87	10	0.6	89	-1.1	0	0	963.2	NA	0.0000	-SN BR	7000	0	0	0	4760
2017/06/27 23:13:01	BASE	11.92	14	14.87	10	0.6	89	-1.0	0	0	963.2	NA	0.0000	-SN BR	6000	0	0	0	4660
2017/06/27 23:14:01	BASE	11.93	13	14.82	19	0.6	89	-1.0	0	0	963.1	NA	0.0000	-SN BR	5000	0	0	0	4530
2017/06/27 23:15:01	BASE	12.21	12	14.82	19	0.6	89	-1.0	0	0	963.1	NA	0.0000	-SN BR	5000	0	0	0	4530
2017/06/27 23:16:01	BASE	12.34	13	14.92	7	0.6	89	-1.0	0	0	963.0	NA	0.0000	-SN BR	6000	0	0	0	4490
2017/06/27 23:17:01	BASE	12.72	11	15.69	13	0.6	89	-1.1	0	0	963.0	NA	0.0000	-SN BR	6000	0	0	0	4560
2017/06/27 23:18:01	BASE	11.89	11	15.69	13	0.6	88	-1.1	0	0	963.1	NA	0.0000	-SN BR	5000	0	0	0	4560
2017/06/27 23:19:01	BASE	11.61	14	15.69	13	0.7	89	-1.0	0	0	963.0	NA	0.0000	-SN BR	4200	0	0	0	4530
2017/06/27 23:20:01	BASE	11.65	14	15.69	13	0.7	89	-1.0	0	0	963.0	NA	0.0000	-SN BR	4500	0	0	0	4530
2017/06/27 23:21:01	BASE	12.01	15	15.69	13	0.7	89	-0.9	0	0	963.0	NA	0.0000	-SN BR	6000	0	0	0	4560
2017/06/27 23:22:01	BASE	12.37	16	15.69	13	0.7	89	-0.9	0	0	962.9	NA	0.0000	-SN BR	5000	0	0	0	4560
2017/06/27 23:23:01	BASE	12.30	15	15.69	13	0.7	89	-0.9	0	0	962.9	NA	0.0000	-SN BR	5000	0	0	0	4590
2017/06/27 23:24:01	BASE	12.72	12	15.84	20	0.7	89	-0.9	0	0	962.8	NA	0.0000	-SN BR	4200	0	0	0	4630
2017/06/27 23:25:01	BASE	11.71	13	15.84	20	0.7	89	-0.9	0	0	962.9	NA	0.0000	-SN BR	3900	0	0	0	4590
2017/06/27 23:26:01	BASE	11.29	13	15.84	20	0.6	89	-0.9	0	0	962.8	NA	0.0000	-SN BR	5000	0	0	0	4590
2017/06/27 23:27:01	BASE	11.18	13	15.84	20	0.6	90	-0.9	0	0	962.9	NA	0.0000	-SN BR	7000	0	0	0	4630
2017/06/27 23:28:01	BASE	10.94	10	15.84	20	0.6	90	-0.9	0	0	962.8	NA	0.0000	-SN BR	5000	0	0	0	4630
2017/06/27 23:29:01	BASE	11.04	11	15.84	20	0.6	90	-0.8	0	0	962.8	NA	0.0000	-SN BR	5000	0	0	0	4660
2017/06/27 23:30:01	BASE	11.13	14	15.84	20	0.6	90	-0.8	0	0	962.7	NA	0.0000	-SN BR	6000	0	0	0	4660
2017/06/27 23:31:01	BASE	12.38	13	15.84	20	0.6	90	-0.8	0	0	962.7	NA	0.0000	-SN BR	4200	0	0	0	4720
2017/06/27 23:32:01	BASE	12.35	10	15.84	20	0.6	90	-0.8	0	0	962.7	NA	0.0000	-SN BR	4900	0	0	0	4760
2017/06/27 23:33:01	BASE	11.58	8	15.84	20	0.6	90	-0.8	0	0	962.6	NA	0.0000	-SN BR	4200	0	0	0	4590
2017/06/27 23:34:01	BASE	12.18	11	15.28	6	0.6	90	-0.9	0	0	962.6	NA	0.0000	-SN BR	4200	0	0	0	4630
2017/06/27 23:35:01	BASE	13.48	12	16.15	22	0.6	90	-0.9	0	0	962.4	NA	0.0000	-SN BR	5000	0	0	0	4560
2017/06/27 23:36:01	BASE	13.59	11	16.15	22	0.6	90	-0.9	0	0	962.5	NA	0.0000	-SN BR	4000	0	0	0	4430
2017/06/27 23:37:01	BASE	13.20	9	16.15	22	0.6	90	-0.9	0	0	962.4	NA	0.0000	-SN BR	3700	0	0	0	4200
2017/06/27 23:38:01	BASE	13.03	8	16.15	22	0.5	90	-0.9	0	0	962.4	NA	0.0000	-SN BR	3600	300	0	0	0
2017/06/27 23:39:01	BASE	13.15	9	16.31	22	0.5	90	-0.9	0	0	962.3	NA	0.0000	-SN BR	3500	0	0	0	4330
2017/06/27 23:40:01	BASE	13.03	10	16.31	22	0.4	91	-0.9	0	0	962.3	NA	0.0000	-SN BR	3500	0	0	0	4300
2017/06/27 23:41:00	BASE	12.84	11	16.31	22	0.4	92	-0.8	0	0	962.3	NA	0.0000	-SN BR	3600	0	0	0	4070
2017/06/27 23:42:00	BASE	13.44	10	16.51	18	0.3	93	-0.7	0	0	962.2	NA	0.0000	-SN BR	3300	0	0	0	4200
2017/06/27 23:43:00	BASE	13.12	10	16.51	18	0.3	93	-0.7	0	0	962.2	NA	0.0000	-SN BR	3500	0	0	0	4590
2017/06/27 23:44:00	BASE	13.21	12	16.51	18	0.3	93	-0.7	0	0	962.1	NA	0.0000	-SN BR	4200	0	0	0	4400
2017/06/27 23:45:00	BASE	13.52	10	16.51	18	0.3	93	-0.7	0	0	962.1	NA	0.0000	-SN BR	5000	0	0	0	4270
2017/06/27 23:46:00	BASE	14.06	12	16.77	17	0.3	93	-0.7	0	0	962.0	NA	0.0000	-SN BR	6000	0	0	0	4130
2017/06/27 23:47:00	BASE	14.17	12	16.77	17	0.3	93	-0.7	0	0	962.0	NA	0.0000	-SN BR	6000	0	0	0	4070
2017/06/27 23:48:00	BASE	13.88	7	19.03	1	0.3	93	-0.6	0	0	961.9	NA	0.0000	-SN BR	6000	0	0	0	3870
2017/06/27 23:49:00	BASE	15.05	10	19.03	1	0.4	93	-0.6	0	0	961.9	NA	0.0000	-SN BR	7000	0	0	0	3810
2017/06/27 23:50:00	BASE	14.89	13	19.03	1	0.4	93	-0.6	0	0	962.0	NA	0.0000	-SN BR	4800	0	0	0	3740
2017/06/27 23:51:00	BASE	14.02	11	19.03	1	0.4	93	-0.6	0	0	962.0	NA	0.0000	-SN BR	4700	0	0	0	4000
2017/06/27 23:52:00	BASE	13.70	8	19.03	1	0.4	93	-0.5	0	0	962.0	NA	0.0000	-SN BR	5000	0	0	0	3640
2017/06/27 23:53:00	BASE	13.37	7	19.03	1	0.4	94	-0.5	0	0	962.0	NA	0.0000	-SN BR	7000	0	0	0	3450
2017/06/27 23:54:00	BASE	13.57	7	19.03	1	0.4	94	-0.4	0	0	962.0	NA	0.0000	-SN BR	9000	0	0	0	3510
2017/06/27 23:55:00	BASE	13.74	8	19.03	1	0.4	95	-0.3	0	0	962.0	NA	0.0000	-SN BR	9999	0	0	0	3540
2017/06/27 23:56:00	BASE	13.68	9	19.03	1	0.4	95	-0.3	0	0	961.9	NA	0.0000	-SN BR	9000	0	0	0	3510
2017/06/27 23:57:00	BASE	13.66	10	19.03	1	0.4	95	-0.3	0	0	961.9	NA	0.0000	-SN BR	9999	0	0	0	3380
2017/06/27 23:58:00	BASE	13.78	12	18.73	19	0.4	95	-0.3	0	0	961.8	NA	0.0000	-SN BR	7000	0	0	0	3480
2017/06/27 23:59:00	BASE	13.45	12	18.52	6	0.4	95	-0.3	0	0	961.9	NA	0.0000	-SN BR	6000	0	0	0	2950